[[{"header":{"parameterUnit":"m.s-1","parameterCategory":1,"la1":30.6,"la2":29.2853,"lo1":-89.7004,"lo2":-87.6739,"dx":0.0162,"dy":0.0183,"nx":112,"ny":82,"refTime":"2023-01-31T18:00:00:Z","depth":0,"parameterNumber":2,"parameterNumberName":"U-component_of_WINDS"},"data":[0.0,0.0,0.0,0.0,0.0,0.0,0.0,0.0,0.0,0.0,0.0,0.0,0.0,0.0,0.0,0.0,0.0,0.0,0.0,0.0,0.0,0.0,0.0,0.0,0.0,0.0,0.0,0.0,0.0,0.0,0.0,0.0,0.0,0.0,0.0,0.0,0.0,0.0,0.0,0.0,0.0,0.0,0.0,0.0,0.0,0.0,0.0,0.0,0.0,0.0,0.0,0.0,0.0,0.0,0.0,0.0,0.0,0.0,0.0,0.0,0.0,0.0,0.0,0.0,0.0,0.0,0.0,0.0,0.0,0.0,0.0,0.0,0.0,0.0,0.0,0.0,0.0,0.0,0.0,0.0,0.0,0.0,0.0,0.0,0.0,0.0,0.0,0.0,0.0,0.0,3.2364,3.3743,3.7315,3.8931,3.7228,3.5374,3.1812,2.5977,0.0,0.0,0.0,0.0,0.0,0.0,0.0,0.0,0.0,0.0,0.0,0.0,0.0,0.0,0.0,0.0,0.0,0.0,0.0,0.0,0.0,0.0,0.0,0.0,0.0,0.0,0.0,0.0,0.0,0.0,0.0,0.0,0.0,0.0,0.0,0.0,0.0,0.0,0.0,0.0,0.0,0.0,0.0,0.0,0.0,0.0,0.0,0.0,0.0,0.0,0.0,0.0,0.0,0.0,0.0,0.0,0.0,0.0,0.0,0.0,0.0,0.0,0.0,0.0,0.0,0.0,0.0,0.0,0.0,0.0,0.0,0.0,0.0,0.0,0.0,0.0,0.0,0.0,0.0,0.0,0.0,0.0,0.0,0.0,0.0,0.0,0.0,0.0,0.0,0.0,0.0,0.0,0.0,0.0,0.0,0.0,0.0,0.0,0.0,0.0,0.0,0.0,0.0,0.0,3.2265,3.7732,3.9088,3.8901,3.716,3.429,3.0581,2.59,0.0,0.0,0.0,0.0,0.0,0.0,0.0,0.0,0.0,0.0,0.0,0.0,0.0,0.0,0.0,0.0,0.0,0.0,0.0,0.0,0.0,0.0,0.0,0.0,0.0,0.0,0.0,0.0,0.0,0.0,0.0,0.0,0.0,0.0,0.0,0.0,0.0,0.0,0.0,0.0,0.0,0.0,0.0,0.0,0.0,0.0,0.0,0.0,0.0,0.0,0.0,0.0,0.0,0.0,0.0,0.0,0.0,0.0,0.0,0.0,0.0,0.0,0.0,0.0,0.0,0.0,0.0,0.0,0.0,0.0,0.0,0.0,0.0,0.0,0.0,0.0,0.0,0.0,0.0,0.0,0.0,0.0,0.0,0.0,0.0,0.0,0.0,0.0,0.0,0.0,0.0,0.0,0.0,0.0,0.0,0.0,0.0,0.0,0.0,0.0,0.0,0.0,0.0,3.1136,3.3538,3.8889,3.9116,3.8035,3.5938,3.3137,2.9804,2.5847,2.4708,0.0,0.0,0.0,0.0,0.0,0.0,0.0,0.0,0.0,0.0,0.0,0.0,0.0,0.0,0.0,0.0,0.0,0.0,0.0,0.0,0.0,0.0,0.0,0.0,0.0,0.0,0.0,0.0,0.0,0.0,0.0,0.0,0.0,0.0,0.0,0.0,0.0,0.0,0.0,0.0,0.0,0.0,0.0,0.0,0.0,0.0,0.0,0.0,0.0,0.0,0.0,0.0,0.0,0.0,0.0,0.0,0.0,0.0,0.0,0.0,0.0,0.0,0.0,0.0,0.0,0.0,0.0,0.0,0.0,0.0,0.0,0.0,0.0,0.0,0.0,0.0,0.0,0.0,0.0,0.0,0.0,0.0,0.0,0.0,0.0,0.0,0.0,0.0,0.0,0.0,0.0,0.0,0.0,0.0,0.0,0.0,0.0,0.0,0.0,0.0,0.0,0.0,3.3379,3.4696,3.8546,3.819,3.6867,3.4848,3.179,2.873,2.5801,2.3586,0.0,0.0,0.0,0.0,0.0,0.0,0.0,0.0,0.0,0.0,0.0,0.0,0.0,0.0,0.0,0.0,0.0,0.0,0.0,0.0,0.0,0.0,0.0,0.0,0.0,0.0,0.0,0.0,0.0,0.0,0.0,0.0,0.0,0.0,0.0,0.0,0.0,0.0,0.0,0.0,0.0,0.0,0.0,0.0,0.0,0.0,0.0,0.0,0.0,0.0,0.0,0.0,0.0,0.0,0.0,0.0,0.0,0.0,0.0,0.0,0.0,0.0,0.0,0.0,0.0,0.0,0.0,0.0,0.0,0.0,0.0,0.0,0.0,0.0,0.0,0.0,0.0,0.0,0.0,0.0,0.0,0.0,0.0,0.0,0.0,0.0,0.0,0.0,0.0,0.0,0.0,0.0,0.0,0.0,0.0,0.0,0.0,0.0,0.0,0.0,0.0,0.0,3.2468,3.4872,3.6877,3.6361,3.5543,3.4679,3.0107,2.6816,2.5762,2.2472,0.0,0.0,0.0,0.0,0.0,0.0,0.0,0.0,0.0,0.0,0.0,0.0,0.0,0.0,0.0,0.0,0.0,0.0,0.0,0.0,0.0,0.0,0.0,0.0,0.0,0.0,0.0,0.0,0.0,0.0,0.0,0.0,0.0,0.0,0.0,0.0,0.0,0.0,0.0,0.0,0.0,0.0,0.0,0.0,0.0,0.0,0.0,0.0,0.0,0.0,0.0,0.0,0.0,0.0,0.0,0.0,0.0,0.0,0.0,0.0,0.0,0.0,0.0,0.0,0.0,0.0,0.0,0.0,0.0,0.0,0.0,0.0,0.0,0.0,0.0,0.0,0.0,0.0,0.0,0.0,0.0,0.0,0.0,0.0,0.0,0.0,0.0,0.0,0.0,0.0,0.0,0.0,0.0,0.0,0.0,0.0,0.0,0.0,0.0,0.0,0.0,0.0,3.1889,3.3526,3.5846,3.5862,3.4761,3.2424,2.9513,2.7207,2.5781,0.0,0.0,0.0,0.0,0.0,0.0,0.0,0.0,0.0,0.0,0.0,0.0,0.0,0.0,0.0,0.0,0.0,0.0,0.0,0.0,0.0,0.0,0.0,0.0,0.0,0.0,0.0,0.0,0.0,0.0,0.0,0.0,0.0,0.0,0.0,0.0,0.0,0.0,0.0,0.0,0.0,0.0,0.0,0.0,0.0,0.0,0.0,0.0,0.0,0.0,0.0,0.0,0.0,0.0,0.0,0.0,0.0,0.0,0.0,0.0,0.0,0.0,0.0,0.0,0.0,0.0,0.0,0.0,0.0,0.0,0.0,0.0,0.0,0.0,0.0,0.0,0.0,0.0,0.0,0.0,0.0,0.0,0.0,0.0,0.0,0.0,0.0,0.0,0.0,0.0,0.0,0.0,0.0,0.0,0.0,0.0,0.0,0.0,0.0,0.0,0.0,0.0,3.0023,3.0947,3.2192,3.4554,3.4613,3.3487,3.0976,2.8496,2.668,2.5762,0.0,0.0,0.0,0.0,0.0,0.0,0.0,0.0,0.0,0.0,0.0,0.0,0.0,0.0,0.0,0.0,0.0,0.0,0.0,0.0,0.0,0.0,0.0,0.0,0.0,0.0,0.0,0.0,0.0,0.0,0.0,0.0,0.0,0.0,0.0,0.0,0.0,0.0,0.0,0.0,0.0,0.0,0.0,0.0,0.0,0.0,0.0,0.0,0.0,0.0,0.0,0.0,0.0,0.0,0.0,0.0,0.0,0.0,0.0,0.0,0.0,0.0,0.0,0.0,0.0,0.0,0.0,0.0,0.0,0.0,0.0,0.0,0.0,0.0,0.0,0.0,0.0,0.0,0.0,0.0,0.0,0.0,0.0,0.0,0.0,0.0,0.0,0.0,0.0,0.0,0.0,0.0,0.0,0.0,0.0,0.0,0.0,0.0,0.0,0.0,0.0,0.0,2.8285,2.9617,3.109,3.2885,3.2382,3.1574,3.074,2.6836,2.4785,0.0,0.0,0.0,0.0,0.0,0.0,0.0,0.0,0.0,0.0,0.0,0.0,0.0,0.0,0.0,0.0,0.0,0.0,0.0,0.0,0.0,0.0,0.0,0.0,0.0,0.0,0.0,0.0,0.0,0.0,0.0,0.0,0.0,0.0,0.0,0.0,0.0,0.0,0.0,0.0,0.0,0.0,0.0,0.0,0.0,0.0,0.0,0.0,0.0,0.0,0.0,0.0,0.0,0.0,0.0,0.0,0.0,0.0,0.0,0.0,0.0,0.0,0.0,0.0,0.0,0.0,0.0,0.0,0.0,0.0,0.0,0.0,0.0,0.0,0.0,0.0,0.0,0.0,0.0,0.0,0.0,0.0,0.0,0.0,0.0,0.0,0.0,0.0,0.0,0.0,0.0,0.0,0.0,0.0,0.0,0.0,0.0,0.0,0.0,0.0,0.0,0.0,0.0,2.8397,2.9698,3.0843,3.1997,3.2538,3.1737,2.9082,2.6689,2.543,2.5684,0.0,0.0,0.0,0.0,0.0,0.0,0.0,0.0,0.0,0.0,0.0,0.0,0.0,0.0,0.0,0.0,0.0,0.0,0.0,0.0,0.0,0.0,0.0,0.0,0.0,0.0,0.0,0.0,0.0,0.0,0.0,0.0,0.0,0.0,0.0,0.0,0.0,0.0,0.0,0.0,0.0,0.0,0.0,0.0,0.0,0.0,0.0,0.0,0.0,0.0,0.0,0.0,0.0,0.0,0.0,0.0,0.0,0.0,0.0,0.0,0.0,0.0,0.0,0.0,0.0,0.0,0.0,0.0,0.0,0.0,0.0,0.0,0.0,0.0,0.0,0.0,0.0,0.0,0.0,0.0,0.0,0.0,0.0,0.0,0.0,0.0,0.0,0.0,0.0,0.0,0.0,0.0,0.0,0.0,0.0,0.0,0.0,0.0,0.0,0.0,0.0,0.0,2.8021,2.8959,2.9868,3.1041,3.1778,3.1049,2.8332,2.6933,2.5762,2.4727,0.0,0.0,0.0,0.0,0.0,0.0,0.0,0.0,0.0,0.0,0.0,0.0,0.0,0.0,0.0,0.0,0.0,0.0,0.0,0.0,0.0,0.0,0.0,0.0,0.0,0.0,0.0,0.0,0.0,0.0,0.0,0.0,0.0,0.0,0.0,0.0,0.0,0.0,0.0,0.0,0.0,0.0,0.0,0.0,0.0,0.0,0.0,0.0,0.0,0.0,0.0,0.0,0.0,0.0,0.0,0.0,0.0,0.0,0.0,0.0,0.0,0.0,0.0,0.0,0.0,0.0,0.0,0.0,0.0,0.0,0.0,0.0,0.0,0.0,0.0,0.0,0.0,0.0,0.0,0.0,0.0,0.0,0.0,0.0,0.0,0.0,0.0,0.0,0.0,0.0,0.0,0.0,0.0,0.0,0.0,0.0,0.0,0.0,0.0,0.0,0.0,0.0,2.7324,2.7838,2.8621,3.0231,3.0599,3.0027,2.8353,2.7461,2.5957,2.3496,0.0,0.0,0.0,0.0,0.0,0.0,0.0,0.0,0.0,0.0,0.0,0.0,0.0,0.0,0.0,0.0,0.0,0.0,0.0,0.0,0.0,0.0,0.0,0.0,0.0,0.0,0.0,0.0,0.0,0.0,0.0,0.0,0.0,0.0,0.0,0.0,0.0,0.0,0.0,0.0,0.0,0.0,0.0,0.0,0.0,0.0,0.0,0.0,0.0,0.0,0.0,0.0,0.0,0.0,0.0,0.0,0.0,0.0,0.0,0.0,2.1982,2.1996,0.0,0.0,0.0,0.0,0.0,0.0,0.0,0.0,0.0,0.0,0.0,0.0,0.0,0.0,0.0,0.0,0.0,0.0,0.0,0.0,0.0,0.0,0.0,0.0,0.0,0.0,0.0,0.0,0.0,0.0,0.0,0.0,0.0,0.0,0.0,0.0,0.0,0.0,0.0,0.0,2.7138,2.8237,2.9239,3.0288,3.1093,3.0873,2.9195,2.7734,2.6406,2.5215,2.3379,0.0,0.0,0.0,0.0,0.0,0.0,0.0,0.0,0.0,0.0,0.0,0.0,0.0,0.0,0.0,0.0,0.0,0.0,0.0,0.0,0.0,0.0,0.0,0.0,0.0,0.0,0.0,0.0,0.0,0.0,0.0,0.0,0.0,0.0,0.0,0.0,0.0,0.0,0.0,0.0,0.0,0.0,0.0,0.0,0.0,0.0,0.0,0.0,0.0,0.0,0.0,0.0,0.0,0.0,0.0,0.0,0.0,0.0,0.0,2.2286,2.2083,0.0,0.0,0.0,0.0,0.0,0.0,0.0,0.0,0.0,0.0,0.0,0.0,0.0,0.0,0.0,0.0,0.0,0.0,0.0,0.0,0.0,0.0,0.0,0.0,0.0,0.0,0.0,0.0,0.0,0.0,0.0,0.0,0.0,0.0,0.0,0.0,0.0,0.0,0.0,0.0,2.7227,2.8415,2.9432,3.0308,3.124,3.1122,2.9444,2.822,2.666,2.4629,2.3184,0.0,0.0,0.0,0.0,0.0,0.0,0.0,0.0,0.0,0.0,0.0,0.0,0.0,0.0,0.0,0.0,0.0,0.0,0.0,0.0,0.0,0.0,0.0,0.0,0.0,0.0,0.0,0.0,0.0,0.0,0.0,0.0,0.0,0.0,0.0,0.0,0.0,0.0,0.0,0.0,0.0,0.0,0.0,0.0,0.0,0.0,0.0,0.0,0.0,0.0,0.0,0.0,0.0,2.2796,2.3544,2.3972,2.4487,2.4448,2.3934,2.3102,2.2526,2.2187,2.2322,0.0,0.0,0.0,0.0,0.0,0.0,0.0,0.0,0.0,0.0,0.0,0.0,0.0,0.0,0.0,0.0,0.0,0.0,0.0,0.0,0.0,0.0,2.0981,2.0981,2.0981,2.0811,2.0143,0.0,0.0,0.0,0.0,0.0,0.0,0.0,0.0,0.0,0.0,0.0,2.7536,2.8517,2.9458,3.0516,3.1175,3.1018,2.965,2.8691,2.6951,2.4043,2.3242,2.1892,0.0,0.0,0.0,0.0,0.0,0.0,0.0,0.0,0.0,0.0,0.0,0.0,0.0,0.0,0.0,0.0,0.0,0.0,0.0,0.0,0.0,0.0,0.0,0.0,0.0,0.0,0.0,0.0,0.0,0.0,0.0,0.0,1.8916,1.8425,0.0,0.0,0.0,0.0,0.0,0.0,0.0,0.0,0.0,0.0,0.0,0.0,0.0,2.1719,2.2298,2.2917,2.3238,2.3301,2.3876,2.4435,2.5017,2.5433,2.5861,2.6201,2.4988,0.0,2.1738,2.238,0.0,0.0,0.0,0.0,0.0,0.0,0.0,0.0,0.0,0.0,0.0,0.0,0.0,0.0,0.0,0.0,0.0,0.0,0.0,0.0,0.0,0.0,2.016,2.016,2.016,2.0126,2.0018,2.0629,2.1197,2.1197,2.0742,2.0755,0.0,0.0,0.0,0.0,0.0,0.0,2.8217,2.8683,2.9522,3.1337,3.0965,3.0541,3.0442,2.9005,2.7645,2.6562,2.3691,2.1875,2.1464,1.9264,0.0,0.0,0.0,0.0,0.0,0.0,0.0,0.0,0.0,0.0,0.0,0.0,0.0,0.0,0.0,0.0,0.0,0.0,0.0,0.0,0.0,0.0,0.0,0.0,0.0,0.0,0.0,0.0,0.0,1.8341,1.7917,1.7676,1.7384,1.7198,0.0,0.0,0.0,0.0,0.0,0.0,0.0,0.0,0.0,2.0898,2.1783,2.2573,2.3201,2.3838,2.4156,2.4178,2.5397,2.6122,2.6407,2.7236,2.7738,2.7917,2.6656,2.516,2.3603,2.2686,2.1787,2.0967,0.0,0.0,0.0,0.0,2.0286,1.9862,2.0095,1.9834,1.9423,1.9594,0.0,0.0,0.0,0.0,0.0,0.0,0.0,2.1462,2.0834,2.0984,2.1181,2.0764,2.0984,2.1299,2.1299,2.1245,2.1197,2.1197,2.1245,2.154,2.2307,2.2594,0.0,0.0,0.0,2.6391,2.8304,2.9091,2.9851,3.087,3.108,3.0984,3.0621,2.9056,2.7785,2.705,2.3789,2.1641,2.1094,1.946,1.8544,0.0,0.0,0.0,0.0,0.0,0.0,0.0,0.0,0.0,0.0,0.0,0.0,0.0,0.0,0.0,0.0,0.0,0.0,0.0,0.0,0.0,0.0,0.0,0.0,0.0,0.0,0.0,0.0,1.7678,1.7421,1.7131,1.6882,1.6674,0.0,0.0,0.0,0.0,0.0,0.0,1.8651,1.9758,2.0937,2.2205,2.3193,2.4006,2.4623,2.5453,2.5887,2.5899,2.7233,2.7969,2.8116,2.8975,2.9262,2.9009,2.7734,2.6377,2.4949,2.3106,2.179,2.089,2.0548,2.0295,2.015,2.015,1.9841,1.9497,1.9793,1.966,1.9373,1.9388,1.9823,2.031,2.0235,0.0,0.0,0.0,0.0,2.1261,2.1066,2.1429,2.1786,2.1536,2.1904,2.2296,2.2296,2.187,2.1427,2.1248,2.1481,2.1861,2.2332,2.271,0.0,2.4705,2.5666,2.6879,2.8605,2.9659,3.0364,3.071,3.1118,3.1077,3.0321,2.8938,2.7785,2.705,2.3984,2.1894,2.1211,1.9868,1.8693,1.7743,0.0,0.0,0.0,0.0,0.0,0.0,0.0,0.0,0.0,0.0,0.0,0.0,0.0,0.0,0.0,0.0,0.0,0.0,0.0,0.0,0.0,0.0,0.0,0.0,0.0,0.0,0.0,0.0,0.0,1.6669,1.701,0.0,0.0,0.0,0.0,1.7394,1.8793,1.9768,1.9995,2.1016,2.2248,2.3656,2.5458,2.6719,2.739,2.8708,2.9338,2.9338,2.9435,2.9748,3.0256,3.0298,2.9945,2.9204,2.7938,2.6304,2.4475,2.3662,2.2302,2.0719,2.0691,2.0286,1.9729,1.9729,1.9312,1.8747,1.8764,1.8635,1.8571,1.9208,2.0352,2.1609,2.2027,2.2178,0.0,0.0,2.0551,2.0544,2.0539,2.0555,2.0863,2.1983,2.2269,2.2296,2.2296,2.2269,2.204,2.1343,2.0612,2.045,2.1474,0.0,2.2782,2.4615,2.6487,2.8185,2.9552,3.0396,3.1052,3.1584,3.0923,3.0164,2.943,2.8583,2.7785,2.705,2.4512,2.3047,2.3066,2.0573,1.9021,1.8645,1.7419,0.0,0.0,0.0,0.0,0.0,0.0,0.0,0.0,0.0,0.0,0.0,0.0,0.0,0.0,0.0,0.0,0.0,0.0,0.0,0.0,0.0,0.0,0.0,0.0,0.0,0.0,0.0,0.0,1.7612,1.8092,0.0,1.8606,1.8989,1.9346,1.9633,1.9744,2.0596,2.2453,2.2827,2.3991,2.6189,2.7312,2.8216,2.8888,2.9353,2.9593,2.9606,2.9564,2.9644,2.9821,2.9791,2.9603,2.927,2.7566,2.6438,2.5672,2.416,2.2672,2.1335,2.1335,2.1201,2.0986,2.0986,2.0557,1.9995,1.9995,1.9826,1.9676,2.0006,2.0169,2.0319,2.0703,2.0642,2.0434,2.0497,2.0308,2.0214,2.0696,2.0817,2.0936,2.1366,2.166,2.1772,2.1524,2.2282,2.2847,2.2269,2.1797,2.1593,2.1983,2.2889,2.3975,2.517,2.6756,2.827,2.958,2.9978,3.0327,3.0813,3.008,2.9494,2.9314,2.8053,2.6943,2.6211,2.4238,2.2871,2.2383,2.0827,1.9335,1.7954,1.7166,1.6594,0.0,0.0,0.0,0.0,0.0,0.0,0.0,0.0,0.0,0.0,0.0,0.0,0.0,0.0,0.0,0.0,0.0,0.0,0.0,0.0,0.0,0.0,0.0,0.0,0.0,1.7727,1.8341,1.8706,1.9233,1.9622,1.9786,2.015,2.0603,2.116,2.129,2.2366,2.4699,2.494,2.6009,2.8213,2.89,2.9445,2.9907,3.0118,3.0238,3.0252,2.9974,2.9838,2.9819,2.9556,2.9183,2.8672,2.7165,2.6256,2.5746,2.4219,2.3101,2.2323,2.2124,2.1899,2.1695,2.1695,2.1425,2.1045,2.1118,2.0866,2.0595,2.0978,2.0819,2.0461,2.0522,2.0348,2.0178,2.0386,2.0248,2.0146,2.0637,2.0756,2.0893,2.144,2.1485,2.1491,2.1843,2.2448,2.2955,2.3019,2.2841,2.2743,2.3004,2.3701,2.4733,2.62,2.7561,2.8791,2.9875,3.0302,3.0442,3.0289,2.9836,2.9346,2.8893,2.7865,2.6786,2.5722,2.4043,2.2852,2.2324,2.1383,2.0097,1.8443,1.7311,1.6402,1.5731,0.0,0.0,0.0,0.0,0.0,0.0,0.0,0.0,0.0,0.0,0.0,0.0,0.0,0.0,0.0,0.0,0.0,0.0,0.0,0.0,0.0,0.0,0.0,1.8254,1.9158,1.9849,1.9899,2.0414,2.0566,2.0012,2.0941,2.1701,2.1955,2.3508,2.5119,2.6646,2.7318,2.8258,2.9624,3.0223,3.0537,3.0537,3.1152,3.1466,3.1466,3.0777,3.0445,3.0418,2.975,2.8723,2.7465,2.6778,2.5759,2.459,2.3883,2.3595,2.3535,2.2957,2.2333,2.1754,2.1754,2.1759,2.1772,2.1971,2.1598,2.1182,2.206,2.2313,2.2194,2.1733,2.1574,2.1375,2.0534,2.0297,2.028,2.028,2.028,2.0673,2.2247,2.1786,2.148,2.3227,2.2789,2.2387,2.3489,2.3578,2.3673,2.4372,2.4217,2.4885,2.756,2.8896,0.0,3.0482,3.1445,3.1537,3.019,3.0228,2.9739,2.8161,2.8057,2.735,2.5663,2.4004,2.3086,2.3066,2.2217,2.1235,2.0128,1.7798,1.6001,1.4809,0.0,0.0,0.0,0.0,0.0,0.0,0.0,0.0,0.0,0.0,0.0,0.0,0.0,0.0,0.0,0.0,0.0,0.0,0.0,0.0,0.0,1.912,1.9849,1.9422,1.9987,2.0892,2.2042,2.2345,2.2696,2.3361,2.37,2.4401,2.5622,2.566,2.6743,2.9284,2.9097,2.9534,3.0928,3.1137,3.1227,3.1227,3.0927,3.0777,3.0762,2.9654,2.9119,2.9104,2.8437,2.792,2.7512,2.6363,2.5642,2.5244,2.4088,2.3595,2.358,2.3426,2.3236,2.3071,2.3071,2.3015,2.2929,2.2823,2.2546,2.2324,2.291,2.2511,2.1772,2.1643,2.1165,2.0609,2.0374,2.008,1.9865,1.9865,1.9865,1.9981,2.043,2.0885,2.1281,2.1479,2.2586,2.3631,2.3996,2.4243,2.443,2.4487,2.5079,2.5913,2.697,2.8542,2.9635,2.972,3.0611,3.1158,3.0963,3.0043,2.93,2.8901,2.7779,2.6375,2.4688,2.3645,2.2829,2.2171,2.1272,1.989,1.7991,1.7155,1.6103,0.0,0.0,0.0,0.0,0.0,0.0,0.0,0.0,0.0,0.0,0.0,0.0,0.0,0.0,0.0,0.0,0.0,0.0,0.0,0.0,0.0,0.0,2.059,2.1481,2.1857,2.1995,2.2512,2.3672,2.381,2.4061,2.4741,2.5005,2.5557,2.6577,2.6725,2.7563,2.9362,2.9652,3.0147,3.097,3.1322,3.1511,3.1511,3.1107,3.0927,3.0897,2.9624,2.9011,2.8994,2.8034,2.76,2.754,2.6479,2.5869,2.5513,2.4451,2.3853,2.3595,0.0,0.0,0.0,0.0,2.3387,2.3144,2.3429,2.3228,2.2982,2.3634,2.303,2.2026,2.1863,2.1308,2.0672,2.0515,2.05,2.0537,2.0537,2.0537,2.0663,2.1129,2.1365,2.1603,2.2134,2.2927,2.3734,2.4489,2.4816,0.0,2.5376,2.5704,2.6365,2.7579,2.8991,2.9845,2.9745,3.0711,3.1193,3.0693,3.0036,2.9374,2.8703,2.7796,0.0,0.0,0.0,2.3187,2.2349,2.1393,0.0,0.0,0.0,1.6666,1.5059,1.5081,0.0,0.0,1.555,1.6079,0.0,0.0,0.0,0.0,0.0,0.0,0.0,0.0,0.0,0.0,0.0,0.0,0.0,0.0,0.0,0.0,2.2246,2.3185,2.4678,2.4594,2.4531,2.4942,2.4992,2.5017,2.508,2.5511,2.5908,2.6172,2.7133,2.7824,2.8106,2.9408,0.0,0.0,0.0,3.1219,3.1219,3.1232,3.1216,3.1127,3.0017,2.9457,2.9324,2.8139,2.76,2.7555,2.6884,2.6258,2.5663,2.4993,2.4332,2.3714,2.3625,2.3595,2.3606,2.367,2.3342,2.3025,2.398,0.0,0.0,2.4253,2.3689,2.2598,2.2219,2.1764,2.1277,2.0911,2.1246,2.1695,2.1695,2.1695,2.1959,2.2974,2.2499,2.2249,2.3861,2.3462,2.3284,2.4881,2.5202,2.5556,2.6648,2.6218,2.649,2.8766,2.9778,3.0274,3.0216,3.1305,3.1525,3.0007,3.0178,0.0,2.8316,2.8057,2.7288,2.5637,2.4594,2.3691,2.2891,2.1953,2.096,1.9906,1.8846,1.7358,1.5436,1.4282,1.3799,1.3973,1.5274,1.5944,0.0,0.0,0.0,0.0,0.0,0.0,0.0,0.0,0.0,0.0,0.0,0.0,0.0,0.0,0.0,2.2581,2.4001,2.5071,2.5398,2.6138,2.6532,2.6223,2.6172,2.6331,2.6766,2.6909,2.7261,2.7949,2.7805,2.8014,2.8774,2.9091,2.9254,2.9254,2.9395,2.9473,2.9473,2.9631,2.945,2.8928,2.8835,0.0,2.7974,2.772,2.76,2.7555,2.6884,2.6524,2.6348,2.5678,2.502,2.435,2.3819,2.3595,2.3649,2.4085,2.4169,2.4224,2.5264,2.4866,2.3996,2.4557,2.366,2.2367,2.2275,2.1961,0.0,2.153,2.1605,2.1695,2.1695,2.1695,2.1754,2.1968,2.2264,2.2599,2.2942,2.3241,2.378,2.4967,2.5202,2.5702,2.7303,2.697,2.7089,2.8837,2.9778,3.0274,3.0216,3.1305,3.1756,3.084,3.0544,3.0269,2.9942,2.8681,2.7472,2.6426,2.4332,2.2786,2.1974,2.1057,2.0103,1.9133,1.821,1.7066,1.5631,1.4855,1.4368,1.4133,1.4003,1.4415,0.0,0.0,0.0,0.0,0.0,0.0,0.0,0.0,0.0,0.0,0.0,1.8338,2.0001,0.0,2.3288,2.4929,2.59,2.6457,2.6457,2.7168,2.7512,2.6947,2.6901,2.7097,2.7645,2.7695,2.788,2.8273,2.8052,2.7976,2.8151,2.8531,2.8627,2.836,2.8764,2.9002,2.9002,2.9103,2.9203,2.9304,2.907,2.8989,2.9039,2.8738,2.8603,2.8558,2.7887,2.7408,2.7018,2.6019,2.5408,2.5079,2.4735,2.4193,2.3672,2.4284,2.4285,2.4158,2.523,2.5016,2.4385,2.515,2.4239,2.2858,2.2858,2.2553,2.2198,2.2198,2.2423,2.2652,2.2652,2.2652,2.2652,2.2652,2.2917,2.3141,2.3141,2.3655,2.4329,2.5144,2.5808,2.6609,2.776,2.7892,2.8262,2.947,3.0341,3.0839,3.0808,3.1459,3.1869,3.1638,3.1146,3.074,3.0433,2.8464,2.7063,2.6637,2.4651,2.3342,2.2976,2.1635,2.0654,2.0169,1.8473,1.7247,1.6492,1.5192,1.4528,1.4433,1.3798,1.4096,0.0,0.0,0.0,0.0,0.0,0.0,0.0,0.0,1.4037,1.5445,1.6995,1.8881,2.1475,2.3175,2.4888,2.6962,2.7457,2.755,2.7336,2.7758,2.7896,2.7361,2.7487,2.777,2.8204,2.826,2.826,2.826,2.816,2.7908,2.7487,2.8069,2.8221,2.779,2.836,2.8668,2.8668,2.8723,2.912,2.9841,2.9474,2.9667,3.0313,2.9817,2.9593,2.9563,2.8891,2.8291,2.769,2.6348,2.5782,2.5782,2.5782,2.5061,2.4055,2.4574,2.4346,2.3937,2.4863,2.4782,2.441,2.5373,2.4675,2.3445,2.3445,2.3279,2.3067,2.3067,2.3426,2.3789,2.3789,2.3789,2.3748,2.3625,2.3804,2.3954,2.3808,2.4332,2.4954,2.5498,2.6514,2.7519,2.8197,2.8925,2.9709,3.0541,3.1229,3.1691,3.1852,3.2093,3.2243,3.2199,3.1792,3.1235,3.0466,2.8214,2.6774,2.6618,2.5029,2.4127,2.4178,2.2464,2.1489,2.1448,1.9094,1.7721,1.7349,1.5622,1.4749,1.4694,1.4155,1.4411,1.4013,1.3467,1.3069,1.3352,1.2932,1.2698,0.0,0.0,1.445,1.5629,1.7605,1.9743,2.179,2.3652,2.5417,2.7031,2.8109,2.838,2.7437,2.7758,2.7896,2.7361,2.8147,2.8737,2.8787,2.8819,2.8819,2.8819,2.8367,2.8084,2.8009,2.81,2.8116,2.8053,2.7698,2.7484,2.7484,2.7732,2.7978,2.8278,2.8963,2.9433,2.9698,2.9623,2.9593,2.9563,2.8891,2.8562,2.8382,2.7036,2.6494,2.6494,2.6494,2.6033,2.5373,2.5323,2.4948,2.4562,2.5042,2.4542,2.3784,2.4389,2.4117,2.3586,2.3586,2.3968,2.4395,2.4395,2.444,2.4485,2.4485,2.4485,2.4335,2.3744,2.4507,2.5214,2.4619,2.5008,2.5642,2.618,2.6834,2.7674,2.8868,3.0122,3.1275,3.2195,3.2414,3.2726,3.3444,3.3778,3.3486,3.2326,3.2296,3.1832,3.0504,2.8775,2.7412,2.6656,2.5029,2.4096,2.4104,2.2482,2.1588,2.1571,1.9832,1.8479,1.7562,1.6578,1.5612,1.4718,1.4912,1.5128,1.3395,1.3088,1.2918,1.3005,1.2808,1.2913,1.4137,1.4619,1.5264,1.6808,1.8747,2.0854,2.3125,2.4847,2.654,2.8437,2.9126,2.9132,2.8329,2.8417,2.8242,2.7412,2.7971,2.8555,2.8881,2.8888,2.9045,2.9402,2.9214,2.8938,2.858,2.8568,2.8417,2.8109,2.7883,2.7758,2.7758,2.758,2.8001,2.9045,2.9108,2.9691,3.0702,3.0702,3.0478,3.0088,2.9458,2.8951,2.8532,2.7572,2.7408,2.7737,2.7333,2.7243,2.724,2.6411,2.5707,2.5254,2.5739,2.5393,2.4852,2.5398,2.5201,2.475,2.475,2.496,2.5173,2.5173,2.5173,2.5173,2.5173,2.5173,2.5109,2.4825,2.5184,2.5528,2.5244,2.5708,2.624,2.6462,2.7603,2.8838,2.9793,3.0996,3.2376,3.3941,3.4006,3.393,3.4067,3.403,3.3684,3.2972,3.3107,3.2871,3.193,3.0311,2.8772,2.7448,2.6219,2.5346,2.4889,2.3707,2.2831,2.2376,2.0667,1.9341,1.8419,1.7495,1.6772,1.6208,1.6205,1.6302,1.3118,1.2958,1.2853,1.2876,1.3036,1.3421,1.4416,1.5293,1.6282,1.7683,1.9253,2.1056,2.3235,2.4607,2.6148,2.853,2.9063,2.9053,2.8719,2.8543,2.8122,2.7185,2.7286,2.7727,2.8593,2.8819,2.9145,2.9741,2.9792,2.9616,2.917,2.9145,2.8969,2.8586,2.8411,2.8317,2.8317,2.7783,2.8251,2.9685,2.9561,3.0262,3.1664,3.1752,3.1406,3.0732,3.0118,2.9564,2.9071,2.841,2.844,2.8831,2.8349,2.844,2.8757,2.7782,2.6779,2.5898,2.6119,2.5932,2.5658,2.6043,2.5921,2.5603,2.5603,2.5734,2.5884,2.5884,2.5884,2.5884,2.5884,2.5884,2.5839,2.5648,2.5872,2.6093,2.5914,2.6393,2.6869,2.6869,2.8249,2.9626,3.036,3.167,3.3172,3.483,3.5178,3.5172,3.4986,3.4556,3.4142,3.3801,3.3776,3.3567,3.2952,3.1368,2.9772,2.8316,2.7198,2.6349,2.5752,2.4673,2.3834,2.3274,2.1545,2.0233,1.9375,1.8446,1.7778,1.738,1.7295,1.7322,0.0,0.0,1.2805,1.3277,1.3728,1.4148,1.4435,1.5974,1.7442,1.7825,1.8663,1.9798,2.1222,2.1961,2.3285,2.6226,2.7186,2.7692,2.8069,2.767,2.7135,2.6587,2.6017,2.6327,2.7953,2.8593,2.9145,2.9741,2.9792,2.9779,2.9767,2.9767,2.9767,2.9741,2.9183,2.8881,2.8881,2.8329,2.8518,2.9425,3.0317,3.1208,3.2085,3.2344,3.2093,3.1436,3.0762,3.0462,3.0402,2.9788,2.9548,2.9577,2.9548,2.9548,2.9563,2.9518,2.8261,2.6479,2.5836,2.56,2.5603,2.5611,2.56,2.5603,2.5603,2.6048,2.6569,2.6569,2.6569,2.6569,2.6569,2.6569,2.6405,2.5737,2.6584,2.736,2.6704,2.7106,2.757,2.757,2.8563,2.9626,3.036,3.21,3.3626,3.4403,3.5565,3.6423,3.6605,3.5937,3.5257,3.472,3.4142,3.3567,3.2952,3.1368,3.0022,2.9127,2.7505,2.6579,2.656,2.4978,2.4113,2.417,2.244,2.1167,2.0369,1.9411,1.8482,1.7608,1.7979,1.796,0.0,0.0,1.4708,1.5364,1.5436,1.5601,1.6533,1.7466,1.8174,1.8333,1.8865,1.9591,2.0499,2.1838,2.3564,2.5952,2.7506,2.8616,2.9151,2.8737,2.8034,2.7135,2.7173,2.7344,2.7562,2.8059,2.8775,2.9729,2.9792,2.9792,2.9792,2.9792,2.9792,2.9792,2.9603,2.9503,2.9503,2.8919,2.9068,2.9929,3.1109,3.2141,3.3023,3.2661,3.2377,3.2093,3.0972,3.0507,3.0447,2.9847,2.9832,3.0163,2.9758,2.9847,3.0148,2.9743,2.9159,2.8485,2.7814,2.729,2.6929,2.6929,2.6929,2.6929,2.6929,2.7078,2.727,2.727,2.727,2.727,2.727,2.727,2.721,2.6986,2.727,2.754,2.7315,2.7435,2.7735,2.8186,2.9271,3.052,3.169,3.3148,3.4499,3.5599,3.5943,3.6223,3.6639,3.6314,3.603,3.6029,3.5377,3.4752,3.4326,3.276,3.1271,3.0033,2.839,2.7198,2.6618,2.5493,2.4668,2.4149,2.2987,2.1983,2.1137,2.0273,1.9628,1.919,1.9238,1.8947,0.0,1.5676,1.603,1.6656,1.6855,1.7111,1.7929,1.8561,1.8882,1.8472,1.8633,1.8871,1.8996,2.0143,2.1883,2.4378,2.5757,2.7072,2.8675,2.8411,2.7934,2.7607,2.772,2.7821,2.7871,2.8185,2.8787,2.9729,2.9792,2.9792,2.9792,2.9792,2.9792,2.9792,2.9792,2.9792,2.9792,2.9428,2.9848,3.1083,3.1884,3.2833,3.3844,3.341,3.308,3.2796,3.1689,3.1211,3.1166,3.0537,3.0507,3.0822,3.0432,3.0522,3.0807,3.0417,3.0118,2.9803,2.8906,2.8321,2.7916,2.7675,2.7764,2.7959,2.7959,2.8111,2.8319,2.8319,2.8319,2.8319,2.8319,2.8319,2.8319,2.8319,2.8319,2.8319,2.8319,2.8319,2.8438,2.8874,2.9987,3.1225,3.2396,3.3876,3.5269,3.6373,3.6442,3.6452,3.6665,3.6726,3.6721,3.67,3.5969,3.5332,3.4894,3.3405,3.1993,3.0797,2.8949,2.7643,2.7082,2.5923,2.5079,2.4567,2.3721,2.2876,2.1993,2.1168,2.0535,2.0106,1.9798,1.9362,1.643,1.6783,1.6889,1.7306,1.8024,1.8628,1.8609,1.9231,1.9474,1.8232,1.7922,1.7656,0.0,0.0,1.861,2.1772,2.2406,2.3659,2.6955,2.7002,2.704,2.8021,2.7708,2.7821,2.8856,2.8957,2.9195,2.9792,2.9817,2.9792,2.9792,2.9792,2.9792,2.9792,2.9792,2.9792,2.9792,2.9792,3.0746,3.2593,3.2593,3.3289,3.4548,3.4518,3.4143,3.3499,3.2811,3.2497,3.2452,3.1809,3.1525,3.1511,3.154,3.1555,3.1555,3.1555,3.1151,3.0418,2.9175,2.8712,2.8532,2.7869,2.8096,2.8637,2.8607,2.9069,2.9593,2.9593,2.9593,2.9593,2.9593,2.9593,2.9593,2.9593,2.9593,2.9593,2.9593,2.9623,2.9653,2.9683,3.0783,3.1963,3.2739,3.4457,3.5966,3.6682,3.7061,3.7128,3.6765,3.721,3.7377,3.686,3.6056,3.5308,3.4741,3.3377,3.2197,3.1409,2.9257,2.7981,2.7893,2.6272,2.5385,2.5385,2.4608,2.377,2.2891,2.2014,2.1137,2.0275,1.9681,1.9266,1.7405,1.86,1.9678,2.0081,2.035,2.0426,2.0129,1.9481,1.8674,1.7734,1.7038,1.6572,1.6567,1.8457,2.0736,2.2973,2.5163,2.7212,2.8919,2.9026,2.8888,2.8718,0.0,2.9264,2.9541,2.9578,2.9804,3.0337,3.003,2.9792,2.9792,2.9792,2.9792,2.9792,2.9792,2.9792,2.9792,2.9792,3.0746,3.2593,3.2593,3.3531,3.5235,3.4727,3.4398,3.4173,3.3021,3.2497,3.2482,3.2318,3.1944,3.1555,3.2049,3.2258,3.2258,3.2258,3.2138,3.1869,3.1047,3.0134,2.9234,2.856,2.88,2.9249,2.8742,2.9069,2.9593,2.9593,2.9593,2.9593,2.9593,2.9593,2.9593,2.9593,2.9593,2.9593,2.9593,2.9952,3.0417,3.0927,3.2975,3.504,3.6334,3.6977,3.7195,3.6851,3.7509,3.7794,3.7145,3.7843,3.8334,3.8203,3.6935,3.6113,3.6168,3.4145,3.2678,3.222,3.0482,2.8986,2.7945,2.6851,2.5962,2.5346,2.4548,2.3706,2.2821,2.1955,2.1029,2.0067,1.9612,1.9341,1.8896,2.0136,2.1221,2.1455,2.1357,2.1045,2.042,1.9405,1.8256,1.7067,1.6437,1.6128,1.622,1.8139,2.0432,0.0,0.0,0.0,2.8787,2.9051,2.9114,0.0,2.9591,2.9792,2.9792,3.0018,3.0281,3.0575,3.0105,2.9792,2.9792,2.9792,2.9792,2.9792,2.9792,2.9792,2.9792,3.0216,3.1137,3.2593,3.3031,3.4024,3.5489,3.51,3.4937,3.4892,3.3829,3.338,3.335,3.3066,3.2721,3.2422,3.2781,3.2946,3.2946,3.2946,3.2751,3.2452,3.2064,3.1286,3.0283,2.934,2.9473,2.9922,2.9549,2.9659,2.9909,2.9909,2.9623,2.9334,2.9334,2.9623,2.9909,2.9909,3.0387,3.0866,3.0866,3.1375,3.2117,3.3139,3.462,3.6265,3.8076,3.8113,3.7872,3.7782,3.7862,3.7875,3.7709,3.8275,3.8699,3.8699,3.7569,3.6738,3.6539,3.468,3.3352,3.2918,3.1079,2.9525,2.8464,2.7255,2.6195,2.5324,2.4889,2.424,2.3374,2.2913,2.2139,2.1074,2.0535,2.0115,2.0622,2.155,2.2211,2.2211,2.1816,2.1174,2.0136,1.9085,1.7922,1.6418,1.6012,1.5974,1.6097,1.7402,1.9308,2.1936,0.0,2.5147,2.793,2.8335,2.8699,2.9679,2.9854,2.993,3.0012,3.0432,3.0738,3.0801,3.0319,3.0005,3.0005,2.9942,2.9867,2.9792,2.9792,2.9792,2.9792,3.0733,3.1669,3.2611,3.3536,3.4526,3.5504,3.5504,3.5504,3.5474,3.4787,3.4503,3.4443,3.3874,3.359,3.3499,3.3589,3.3619,3.3619,3.3619,3.326,3.2781,3.2781,3.2243,3.1395,3.024,3.0124,3.0472,3.0472,3.0309,3.0132,3.0203,2.9693,2.9156,2.9366,2.9976,3.0559,3.0695,3.1692,3.2632,3.2632,3.3155,3.4091,3.5675,3.5982,3.6651,3.8778,3.8616,3.8379,3.892,3.8305,3.7923,3.83,3.8579,3.8737,3.8699,3.8072,3.7327,3.653,3.5151,3.4081,3.3541,3.1485,2.9906,2.9081,2.7588,2.631,2.5324,2.5365,2.4966,2.411,2.4168,2.3609,2.2458,2.1734,2.1096,2.2019,2.3148,2.3805,2.3805,2.319,2.2123,2.0316,1.842,0.0,0.0,1.5527,1.5487,1.7027,1.8653,2.0773,2.3815,2.5639,2.7331,2.9233,2.9503,2.9578,0.0,3.0193,3.0645,3.1072,3.1198,3.1449,3.188,3.1424,3.111,3.111,3.0708,3.0269,2.9804,2.9792,2.9792,2.9792,3.0733,3.1669,3.2611,3.3536,3.4526,3.5504,3.5504,3.5504,3.5474,3.4787,3.4503,3.4503,3.4368,3.3994,3.356,3.4113,3.4323,3.4323,3.4323,3.4248,3.4143,3.4143,3.3213,3.1905,3.1352,3.0792,3.0335,3.0335,2.9819,2.932,2.9771,2.9781,2.9956,3.1235,3.1666,3.1982,3.2759,3.3139,3.332,3.332,3.3859,3.4941,3.7024,3.7439,3.7966,3.9619,3.9795,3.9542,3.9068,3.9173,3.9126,3.8617,3.8822,3.8951,3.8724,3.8579,3.8182,3.7364,3.5795,3.4631,3.4106,3.2608,3.0833,2.8852,2.8055,2.6928,2.5324,2.5305,2.4928,2.411,2.411,2.3505,2.2325,2.169,2.1138,2.3246,2.4458,2.5252,2.465,2.3692,2.2331,2.0086,0.0,0.0,0.0,1.5391,1.5725,1.7697,1.9188,0.0,2.3918,2.5297,2.6678,2.8637,2.8693,2.8925,3.008,3.0437,3.0801,3.1356,3.165,3.1926,3.2169,3.1964,3.1574,3.1022,3.0482,3.0068,2.9804,3.0279,3.052,3.052,3.1942,3.289,3.3345,3.431,3.5019,3.5504,3.5504,3.5504,3.5489,3.516,3.5011,3.5011,3.5011,3.4831,3.4577,3.4891,3.5011,3.5011,3.5011,3.4499,3.3771,3.3771,3.2704,3.1352,3.1506,3.1048,3.0459,3.0459,2.9876,2.9265,2.9531,2.927,2.9212,3.0426,3.1082,3.1657,3.26,3.3429,3.4113,3.4472,3.4786,3.5453,3.6902,3.7515,3.8163,3.9276,3.9821,3.9977,3.9626,3.9435,3.9294,3.9197,3.9627,3.9831,3.9517,3.9382,3.9001,3.8193,3.7,3.5899,3.4933,3.3516,3.192,3.0122,2.8673,2.7294,2.6,2.5538,2.5064,2.458,2.458,2.4091,2.3173,2.2491,2.1645,2.4751,2.5924,2.6564,2.5441,2.4139,2.2448,1.9882,1.825,0.0,1.5664,1.5396,1.6038,1.8119,1.9279,2.0865,0.0,2.4616,2.5745,2.7953,2.8009,2.8511,3.0374,3.0801,0.0,3.1524,3.2064,3.234,3.2206,3.2081,3.1625,3.0651,3.0206,2.9917,2.9792,3.0714,3.1199,3.1199,3.3066,3.401,3.401,3.5019,3.5504,3.5504,3.5504,3.5504,3.5504,3.5504,3.5504,3.5504,3.5504,3.5504,3.5504,3.5504,3.5504,3.5472,3.5262,3.4383,3.3255,3.3056,3.2007,3.0821,3.1336,3.0978,3.0368,3.0504,2.9876,2.9151,2.9269,2.8794,2.856,2.983,3.067,3.1472,3.2623,3.3834,3.4862,3.5385,3.5504,3.5733,3.6461,3.7099,3.7833,3.8745,3.9424,3.9901,4.007,3.9609,3.9363,3.9736,4.0464,4.0826,4.0573,4.0303,3.9827,3.9038,3.8054,3.6983,3.5751,3.434,3.2874,3.1287,2.942,2.7852,2.6618,2.5895,2.5349,2.5007,2.4898,2.4558,2.3983,2.3176,2.2043,2.6972,2.7848,2.7683,2.6616,2.5074,2.3021,1.9985,0.0,1.6492,1.5591,1.5396,1.6038,1.8119,1.8978,0.0,0.0,0.0,2.6302,2.8518,2.9264,2.9829,3.0512,0.0,0.0,3.2127,3.2675,3.278,3.2231,3.175,3.1223,3.0625,3.055,3.0306,2.9817,3.0714,3.1199,3.1199,3.3066,3.401,3.401,3.5019,3.5504,3.5504,3.5504,3.5504,3.5504,3.5504,3.5504,3.5504,3.5504,3.5504,3.5504,3.5504,3.5504,3.5392,3.4461,3.4035,3.3805,3.2947,3.1983,3.1151,3.1222,3.0457,2.9627,3.0236,2.9388,2.8307,2.8811,2.8888,2.9368,3.1716,3.2374,3.2898,3.476,3.529,3.5429,3.5489,3.5504,3.5733,3.6461,3.6645,3.7173,3.8646,3.8962,3.9262,3.9995,4.0045,4.0007,4.0069,4.1012,4.169,4.1661,4.1252,4.0663,3.9853,3.8374,3.714,3.628,3.514,3.3413,3.1045,3.0437,2.9038,2.6656,2.6338,2.5802,2.5007,2.4569,2.4249,2.396,2.2941,2.1816,2.7038,2.8355,2.87,2.6935,2.4989,2.2733,1.9942,0.0,1.6152,1.5522,1.6036,1.7084,1.8698,1.9771,2.1179,0.0,0.0,0.0,2.6205,2.6929,2.7971,2.9892,3.0783,3.1617,3.2641,3.2964,3.2851,3.2252,3.2001,3.1512,3.0638,3.06,3.0607,3.0646,3.1554,3.2321,3.289,3.4225,3.4889,3.4905,3.531,3.5504,3.5504,3.5504,3.5504,3.5504,3.5504,3.5504,3.5441,3.4856,3.4593,3.4543,3.3973,3.3736,3.3702,3.3293,3.2802,3.2267,3.1888,3.1137,3.0362,3.0362,3.0029,2.969,2.9958,2.9599,2.9164,2.939,2.9453,2.9802,3.1354,3.2593,3.3788,3.5166,3.5504,3.5504,3.5504,3.5504,3.5587,3.5879,3.629,3.6949,3.8048,3.8608,3.9166,3.9978,4.0096,4.0096,4.0096,4.0774,4.1268,4.1268,4.159,4.1489,4.0681,3.9588,3.8384,3.7099,3.5806,3.4489,3.3186,3.1225,2.9677,2.8674,2.7093,2.5999,2.5426,2.4545,2.3793,2.314,2.2253,2.103,2.7076,2.8635,2.9268,2.7058,2.4943,2.2695,0.0,0.0,1.6119,1.5513,1.626,1.7476,1.9018,2.013,2.1382,0.0,0.0,2.3825,2.5121,2.5762,2.6972,2.9264,3.0011,3.0947,3.2449,3.26,3.2499,3.2206,3.2043,3.1637,3.0884,3.0997,3.1121,3.1206,3.2105,3.3049,3.3993,3.5003,3.5504,3.5504,3.5504,3.5504,3.5504,3.5504,3.5343,3.5067,3.5067,3.4903,3.4591,3.3874,3.3602,3.3518,3.2873,3.2593,3.2558,3.2303,3.176,3.1161,3.0889,3.0343,2.9792,2.9792,2.9792,2.9792,2.9792,2.9792,2.9792,2.9792,2.9998,3.0438,3.1384,3.2802,3.4245,3.5262,3.5504,3.5504,3.5504,3.5504,3.5504,3.5504,3.5926,3.66,3.7617,3.8232,3.8924,3.994,4.0096,4.0096,4.0096,4.0565,4.0903,4.0903,4.1805,4.2072,4.126,4.0396,3.9302,3.7944,3.6559,3.5397,3.4524,3.2245,3.0655,2.9901,2.812,2.6778,2.587,2.4684,2.3651,2.2755,2.1628,2.0127,2.7524,2.8938,2.9268,2.7058,2.5195,2.3082,0.0,0.0,1.6443,1.5581,1.5791,1.6774,1.8914,1.9648,2.0815,2.3542,0.0,0.0,2.6248,2.6934,2.77,2.8781,2.9453,3.0218,3.1298,3.1432,3.1637,3.2156,3.1712,3.1406,3.1386,3.1901,3.1878,3.1214,3.2105,3.3049,3.3993,3.5003,3.5504,3.5504,3.5504,3.5504,3.5504,3.5504,3.4953,3.4027,3.4027,3.3484,3.2629,3.2611,3.2611,3.2611,3.2593,3.2593,3.25,3.1573,3.1217,3.1068,3.0139,2.9811,2.9792,2.9792,2.9792,2.9792,2.9792,2.9792,2.9792,2.9792,3.0463,3.1407,3.2339,3.3293,3.4245,3.5262,3.5504,3.5504,3.5504,3.5504,3.5504,3.5504,3.5504,3.599,3.7545,3.7822,3.8332,3.9876,4.0096,4.0096,4.0096,4.0565,4.0903,4.0903,4.1979,4.2332,4.1475,4.0479,3.9559,3.8744,3.7431,3.5944,3.4276,3.3655,3.218,2.9652,2.9447,2.8354,2.6287,2.5016,2.3979,2.3151,2.1135,1.9174,2.5015,2.5735,2.572,2.3891,2.1989,2.0104,1.8384,1.6875,1.5737,1.5454,1.6937,1.8488,1.9175,2.0826,2.2512,2.3801,2.4318,0.0,0.0,2.6465,2.7695,2.8781,3.0771,3.2185,3.2537,3.2562,3.2638,3.2792,3.2663,3.2365,3.1976,3.2114,3.2347,3.2703,3.2366,3.2768,3.3993,3.3671,3.3515,3.3515,3.3515,3.3515,3.3515,3.3515,3.3342,3.3049,3.3049,3.2873,3.254,3.1906,3.1646,3.1573,3.0927,3.069,3.0652,3.0355,3.0241,3.0196,2.9895,2.9792,2.9792,2.9792,2.9792,2.9792,2.9792,2.9792,2.9792,2.9792,3.0017,3.0614,3.2195,3.282,3.3463,3.51,3.5504,3.5504,3.5504,3.5504,3.5504,3.5504,3.5504,3.5814,3.6798,3.7441,3.8135,3.9126,3.9756,4.0096,4.0096,4.0254,4.0343,4.0343,4.1024,4.1446,4.1409,4.1482,4.0965,3.9614,3.8611,3.7431,3.5969,3.4651,3.3302,3.1955,2.9985,2.8572,2.7737,2.539,2.3263,2.13,1.9207,1.7892,0.0,2.3919,2.3832,2.2372,2.0627,0.0,0.0,0.0,1.5615,1.5435,1.7214,1.8899,1.9227,2.1134,2.2874,2.3553,2.4126,2.4566,2.4779,2.6063,2.7399,2.8467,3.0884,3.2386,3.2164,3.2516,3.2842,3.3077,3.2901,3.2692,3.2554,3.2307,3.2507,3.3149,3.241,3.2464,3.3463,3.289,3.2593,3.2593,3.2593,3.2593,3.2593,3.2593,3.2411,3.2069,3.2069,3.187,0.0,3.0908,3.0677,3.0601,3.0017,2.9792,2.9792,2.9792,2.9792,2.9792,2.9792,2.9792,2.9792,2.9792,2.9792,2.9792,2.9792,2.9792,2.9792,2.9792,2.9792,3.0139,3.1683,3.2069,3.2554,3.4476,3.4937,3.5036,3.5423,3.5504,3.5504,3.5504,3.5504,3.5718,3.6477,3.7279,3.805,3.8786,3.9568,4.0096,4.0096,4.0096,4.0096,4.0096,4.0577,4.0991,4.1191,4.1667,4.1391,4.0096,3.9192,3.8106,3.6764,3.5144,3.379,3.2795,3.0777,2.9192,2.8082,2.5038,2.2517,2.0494,1.8532,1.7636,0.0,0.0,0.0,0.0,0.0,0.0,0.0,0.0,0.0,1.5537,1.6858,1.8358,1.9227,2.0817,2.2269,2.3087,2.3687,2.4243,2.4779,2.5942,2.7128,2.816,3.0193,3.1298,3.0783,3.1642,3.2503,3.3052,3.2579,3.2491,3.3014,3.2503,3.2347,3.2633,3.2154,3.2086,3.25,3.2429,3.2393,3.2393,3.2393,3.2393,3.2393,3.2393,3.1924,3.1087,3.1087,3.0614,2.9792,2.9792,2.9792,2.9792,2.9792,2.9792,2.9792,2.9792,2.9792,2.9792,2.9792,2.9792,2.9792,2.9792,2.9792,2.9792,2.9792,2.9792,2.9792,2.9792,2.9792,3.0017,3.0951,3.1199,3.1678,3.3523,3.4016,3.4334,3.5271,3.553,3.5564,3.5519,3.5549,3.5777,3.6476,3.73,3.8078,3.8717,3.9547,4.0071,4.002,4.0058,4.0096,4.0096,4.054,4.0833,4.0833,4.1189,4.1067,4.0192,3.9276,3.8121,3.6708,3.5275,3.387,3.2506,3.1589,2.9932,2.749,2.4096,2.1825,2.0576,1.8968,1.8201,0.0,0.0,0.0,0.0,0.0,0.0,0.0,0.0,0.0,0.0,0.0,1.9283,2.0276,2.1757,2.317,2.4217,2.4528,2.4791,2.5335,2.7512,2.9264,2.9923,3.1599,3.2474,3.1867,3.2466,3.2952,3.309,3.2977,3.2742,3.2428,3.229,3.1878,3.1148,3.0983,3.1106,3.1531,3.0827,3.047,3.047,3.047,3.047,3.047,3.047,3.0336,3.012,3.012,2.9998,2.9792,2.9792,2.9792,2.9792,2.9792,2.9792,2.9792,2.9792,2.9792,2.9792,2.9792,2.9792,2.9792,2.9792,2.9792,2.9792,2.9792,2.9792,2.9792,2.9792,2.9792,3.0017,3.0951,3.1199,3.1601,3.3155,3.4158,3.4831,3.4998,3.5689,3.6103,3.5609,3.5908,3.6319,3.6503,3.7567,3.8294,3.7963,3.9082,3.9755,3.9262,3.9731,4.0096,4.0096,4.0217,4.0286,4.0286,4.1167,4.1129,3.9742,3.9449,3.8343,3.6176,3.5732,3.4845,3.3343,3.0786,2.8524,2.661,2.3441,2.1528,2.0793,1.902,1.8207,0.0,0.0,0.0,0.0,0.0,0.0,0.0,0.0,0.0,0.0,0.0,0.0,1.9998,2.1743,2.3396,2.429,2.4641,2.5256,2.6565,2.8273,2.9603,3.0168,3.1687,3.2453,3.1888,3.2353,3.2679,3.2679,3.2474,3.2185,3.1851,3.1612,3.119,3.0613,3.0369,3.0341,3.0558,3.0056,2.9792,2.9792,2.9792,2.9792,2.9792,2.9792,2.9792,2.9792,2.9792,2.9792,2.9792,2.9792,2.9792,2.9792,2.9792,2.9792,2.9792,2.9792,2.9792,2.9792,2.9792,2.9792,2.9792,2.9792,2.9792,2.9792,2.9792,2.9792,2.9792,2.9792,2.9792,2.9977,3.074,3.0926,3.1425,3.3392,3.4305,3.49,3.5511,3.6316,3.6716,3.6073,3.6477,3.6911,3.6911,3.7854,3.8471,3.8101,3.8828,3.9384,3.9369,3.9462,3.9688,4.0058,4.0096,4.0096,4.0096,4.0666,4.0617,3.9655,3.9534,3.8629,3.6713,3.598,3.466,3.2632,3.0005,2.7778,2.597,2.3414,2.1709,2.0821,1.9279,1.8694,0.0,0.0,0.0,0.0,0.0,0.0,0.0,0.0,0.0,0.0,0.0,0.0,0.0,2.1496,2.3296,2.4114,2.4766,2.5921,2.8059,2.8819,2.9383,2.9967,3.1399,3.2127,3.1574,3.1938,3.2194,3.2194,3.17,3.1348,3.1273,3.0859,3.055,3.0475,3.0043,2.9792,2.9792,2.9792,2.9792,2.9792,2.9792,2.9792,2.9792,2.9792,2.9792,2.9792,2.9792,2.9792,2.9792,2.9792,2.9792,2.9792,2.9792,2.9792,2.9792,2.9792,2.9792,2.9792,2.9792,2.9792,2.9792,2.9792,2.9792,2.9792,2.9792,2.9792,2.9817,2.9892,2.9854,2.9892,3.0369,3.0538,3.1165,3.3407,3.4245,3.4882,3.6066,3.696,3.7375,3.6746,3.7135,3.7554,3.7554,3.821,3.8691,3.8584,3.8764,3.9071,3.9487,3.9159,3.9124,3.9696,3.9744,3.9782,3.9914,3.9914,3.9861,3.9772,3.9554,3.8818,3.7448,3.578,3.3832,3.161,2.928,2.7275,2.5604,2.354,2.194,2.077,1.9659,1.9371,1.8447,1.8413,0.0,0.0,0.0,0.0,0.0,0.0,0.0,0.0,0.0,0.0,0.0,2.1996,2.3333,2.5069,2.6226,2.7537,2.9289,3.0005,3.0538,3.1085,3.2223,3.2738,3.2139,3.2144,3.2194,3.2194,3.17,3.1198,3.0738,3.0638,3.0387,2.993,2.9829,2.9792,2.9792,2.9792,2.9792,2.9792,2.9792,2.9792,2.9792,2.9792,2.9792,2.9792,2.9792,2.9792,2.9792,2.9792,2.9792,2.9792,2.9792,2.9792,2.9792,2.9792,2.9792,2.9792,2.9792,2.9792,2.9792,2.9792,2.9792,2.9792,2.9792,2.9792,2.9892,3.0337,3.0156,2.9817,2.9892,3.0269,3.0813,3.166,3.3594,3.5291,3.5455,3.6936,3.8048,3.7389,3.7793,3.8242,3.8242,3.8827,3.9078,3.8527,3.9033,3.9117,3.8091,3.8466,3.8653,3.8199,3.8149,3.8402,3.9032,3.9086,3.9357,3.9997,3.9435,3.8426,3.6967,3.4343,3.2746,3.2342,2.8626,2.6339,2.5589,2.3023,2.1439,2.0783,2.0029,1.9723,1.7577,1.772,1.7989,0.0,0.0,0.0,0.0,0.0,0.0,0.0,0.0,0.0,0.0,2.1843,2.3868,2.6157,2.7444,2.8549,2.9641,3.0269,3.0809,3.1336,3.2114,3.239,3.1813,3.1763,3.165,3.1353,3.0834,3.0419,3.0181,3.0168,3.0055,2.9804,2.9792,2.9792,2.9792,2.9792,2.9792,2.9792,2.9792,2.9792,2.9792,2.9792,2.9792,2.9792,2.9792,2.9792,2.9792,2.9792,2.9792,2.9792,2.9792,2.9792,2.9792,2.9792,2.9792,2.9792,2.9792,2.9792,2.9792,2.9792,2.9792,2.9792,2.9792,2.9792,2.9905,3.0437,3.0412,3.0369,3.0947,3.1265,3.1756,3.29,3.4547,3.587,3.6066,3.7594,3.8751,3.8063,3.8482,3.8945,3.8945,3.9197,3.9302,3.899,3.895,3.8894,3.87,3.8372,3.8193,3.8325,3.8017,3.7935,3.8274,3.8318,3.8474,3.8831,3.8942,3.7973,3.5712,3.3994,3.2572,3.1486,2.8492,2.6298,2.5,2.3375,2.2086,2.1157,2.056,2.0302,1.7091,1.7248,1.7654,0.0,0.0,1.8469,1.844,0.0,0.0,0.0,0.0,0.0,0.0,2.2455,2.5103,2.733,2.8599,2.9546,3.0256,3.0721,3.1185,3.1733,3.2039,3.2051,3.1625,3.1348,3.1047,3.0625,3.0105,2.9792,2.9792,2.9792,2.9792,2.9792,2.9792,2.9792,2.9792,2.9792,2.9792,2.9792,2.9792,2.9792,2.9792,2.9792,2.9792,2.9792,2.9792,2.9792,2.9792,2.9792,2.9792,2.9792,2.9792,2.9792,2.9792,2.9792,2.9792,2.9792,2.9792,2.9792,2.9792,2.9792,2.9792,2.9792,2.9792,2.9792,2.9905,3.0437,3.0688,3.0984,3.18,3.2114,3.2512,3.3817,3.5002,3.6008,3.6538,3.7925,3.8941,3.8701,3.905,3.9406,3.9406,3.9406,3.9406,3.9406,3.8958,3.8802,3.9259,3.8409,3.7914,3.8229,3.7802,3.7498,3.7516,3.769,3.7725,3.7537,3.8113,3.7371,3.4969,3.3901,3.2463,3.0572,2.8446,2.6399,2.445,2.3692,2.2705,2.1495,2.1081,2.0817,1.7628,1.7564,1.7426,1.7406,0.0,0.0,1.9493,1.9453,0.0,2.0165,0.0,0.0,0.0,2.4968,2.741,2.8587,2.9735,3.0839,3.1867,3.2056,3.2315,3.2914,3.2516,3.2169,3.2152,3.124,3.0638,3.06,3.0105,2.9792,2.9792,2.9792,2.9792,2.9792,2.9792,2.9792,2.9792,2.9792,2.9792,2.9792,2.9792,2.9792,2.9792,2.9792,2.9792,2.9792,2.9792,2.9792,2.9792,2.9792,2.9792,2.9792,2.9792,2.9792,2.9792,2.9792,2.9792,2.9792,2.9792,2.9792,2.9792,2.9792,2.9792,2.9792,2.9792,2.9792,2.9905,3.0437,3.0959,3.1348,3.1436,3.1825,3.2215,3.2357,3.3623,3.5075,3.6038,3.7128,3.82,3.9136,3.9376,3.9406,3.9406,3.9406,3.9406,3.9406,3.9361,3.911,3.8555,3.8407,3.7899,3.678,3.6631,3.661,3.6677,3.7382,3.7468,3.672,3.6802,3.6497,3.5662,3.3713,3.1932,3.0348,2.8269,2.6257,2.4313,2.3496,2.2567,2.1507,2.1457,2.1182,1.683,1.7064,1.7468,1.7705,0.0,0.0,0.0,0.0,2.0117,2.0156,2.04,0.0,0.0,2.5991,2.787,2.9244,3.0098,3.0851,3.1599,3.2001,3.2428,3.3027,3.2566,3.2077,3.1738,3.1035,3.045,3.0131,2.9905,2.9792,2.9792,2.9792,2.9792,2.9792,2.9792,2.9792,2.9792,2.9792,2.9792,2.9792,2.9792,2.9792,2.9792,2.9792,2.9792,2.9792,2.9792,2.9792,2.9792,2.9792,2.9792,2.9792,2.9792,2.9792,2.9792,2.9792,2.9792,2.9792,2.9792,2.9792,2.9792,2.9792,2.9792,2.9792,2.9792,3.003,3.0419,3.0947,3.1486,3.1901,3.1901,3.2328,3.2776,3.2776,3.3756,3.4808,3.519,3.6593,3.7919,3.8327,3.8943,3.9406,3.9406,3.9406,3.9406,3.9406,3.9406,3.9316,3.9047,3.8661,3.8048,3.7165,3.6342,3.5889,3.591,3.6196,3.6243,3.5942,3.6835,3.6641,3.5015,3.3678,3.2136,3.0338,2.8054,2.6361,2.5289,2.4188,2.3452,2.3037,2.2334,2.1895,1.6236,1.6627,1.7275,0.0,0.0,0.0,0.0,0.0,2.0801,2.0888,2.144,2.2739,2.5375,2.6858,2.8156,2.957,3.0256,3.0859,3.1549,3.1825,3.2164,3.2751,3.2152,3.1562,3.1185,3.067,3.0193,2.9836,2.9792,2.9792,2.9792,2.9792,2.9792,2.9792,2.9792,2.9792,2.9792,2.9792,2.9792,2.9792,2.9792,2.9792,2.9792,2.9792,2.9792,2.9792,2.9792,2.9792,2.9792,2.9792,2.9792,2.9792,2.9792,2.9792,2.9792,2.9792,2.9792,2.9792,2.9792,2.9905,3.0018,2.9854,3.0018,3.0269,3.0093,3.0432,3.0934,3.1306,3.1788,3.2194,3.2194,3.2641,3.3102,3.3102,3.3649,3.4296,3.4622,3.5815,3.6919,3.7228,3.789,3.8387,3.8387,3.8387,3.8494,3.8837,3.8889,3.9017,3.9355,3.9005,3.8377,3.7477,3.6447,3.5729,3.5519,3.5504,3.5359,3.5036,3.6025,3.5829,3.4122,3.3182,3.1856,3.0047,2.8209,2.6892,2.6087,2.5017,2.433,2.3979,2.3201,2.2633,1.612,1.6396,1.682,0.0,0.0,0.0,2.1005,2.121,2.1561,2.2838,2.4001,2.5315,2.6983,2.7727,2.8486,2.9635,3.0256,3.0964,3.2018,3.1725,3.1587,3.2139,3.124,3.06,3.06,3.0118,2.9792,2.9792,2.9792,2.9792,2.9792,2.9792,2.9792,2.9792,2.9792,2.9792,2.9792,2.9792,2.9792,2.9792,2.9792,2.9792,2.9792,2.9792,2.9792,2.9792,2.9792,2.9792,2.9792,2.9792,2.9792,2.9792,2.9792,2.9792,2.9792,2.9792,2.9792,2.9792,2.9792,3.0143,3.052,2.998,3.052,3.1286,3.0783,3.0984,3.1386,3.1399,3.1788,3.2194,3.2206,3.2641,3.3102,3.3102,3.3102,3.3398,3.447,3.4684,3.4999,3.5994,3.6178,3.6198,3.6198,3.6198,3.6565,3.7625,3.7791,3.8163,3.9247,3.9373,3.8868,3.7537,3.6851,3.6207,3.5548,3.5488,3.5067,3.4044,3.3993,3.3703,3.3113,3.2119,3.0915,2.9443,2.8819,2.7841,2.6499,2.5904,2.5046,2.4017,2.4004,2.3401,1.6518,1.6615,0.0,1.8389,0.0,0.0,0.0,2.2108,0.0,0.0,2.4388,2.5765,2.6584,2.8129,2.9402,2.9741,2.993,3.0281,3.0984,3.0947,3.1047,3.1574,3.1014,3.06,3.06,3.0118,2.9792,2.9792,2.9792,2.9792,2.9792,2.9792,2.9792,2.9792,2.9792,2.9792,2.9792,2.9792,2.9792,2.9792,2.9792,2.9792,2.9792,2.9792,2.9792,2.9792,2.9792,2.9792,2.9792,2.9792,2.9792,2.9792,2.9792,2.9792,2.9792,2.9792,2.9792,2.9792,2.9792,2.9892,3.0068,3.0294,3.0319,3.0382,3.0984,3.1009,3.0997,3.175,3.2089,3.2303,3.2717,3.2977,3.3102,3.3102,3.3102,3.3197,3.3513,3.417,3.4787,3.5088,3.5728,3.6198,3.6198,3.6198,3.631,3.6624,3.6663,3.7065,3.8144,3.8112,3.7836,3.7432,3.6447,3.5438,3.4524,3.4445,3.4041,3.3084,3.2411,3.2239,3.2727,3.1829,3.0943,3.0129,2.8856,2.7837,2.7047,2.6092,2.5435,2.5121,2.4745,2.4177,1.6377,1.6586,0.0,1.8857,1.9873,2.083,2.2381,0.0,0.0,0.0,2.5126,2.6139,2.7564,2.8699,2.9528,2.9754,2.9792,2.998,3.0512,3.0432,3.0482,3.1022,3.062,3.0281,3.0281,2.9993,2.9792,2.9792,2.9792,2.9792,2.9792,2.9792,2.9792,2.9792,2.9792,2.9792,2.9792,2.9792,2.9792,2.9792,2.9792,2.9792,2.9792,2.9792,2.9792,2.9792,2.9792,2.9792,2.9792,2.9792,2.9792,2.9792,2.9792,2.9792,2.9792,2.9792,2.9792,2.9792,2.9792,2.993,3.0143,3.0256,3.0344,3.0527,3.0947,3.116,3.1366,3.2026,3.2378,3.2641,3.3014,3.3102,3.3102,3.3102,3.3102,3.3102,3.3102,3.362,3.4058,3.4058,3.4547,3.4973,3.4973,3.4973,3.5116,3.5547,3.5954,3.6428,3.7079,3.6847,3.6504,3.6228,3.5331,3.4384,3.3512,3.3432,3.3049,3.2105,3.1518,3.1291,3.1476,3.0945,3.0484,3.0173,2.8997,2.8141,2.7625,2.6703,2.6038,2.5586,2.4892,2.4267,1.5977,1.65,1.72,1.9014,2.043,0.0,2.2828,2.3091,2.3724,2.5891,2.598,2.6485,2.9149,2.9276,2.9157,2.9704,2.9792,2.9967,3.047,3.0105,2.998,3.0462,3.0093,2.9792,2.9792,2.9792,2.9792,2.9792,2.9792,2.9792,2.9792,2.9741,2.9741,2.9792,2.9741,2.9741,2.9792,2.9792,2.9792,2.9792,2.9792,2.9792,2.9792,2.9792,2.9792,2.9792,2.9792,2.9792,2.9792,2.9792,2.9792,2.9792,2.9792,2.9792,2.9792,2.9792,2.9792,2.9792,2.9792,3.0118,3.045,3.0018,3.0495,3.1173,3.0796,3.1298,3.2005,3.2156,3.2516,3.2914,3.3052,3.3052,3.3027,3.309,3.3102,3.3102,3.3102,3.3102,3.3102,3.3102,3.3102,3.3102,3.3102,3.3102,3.3441,3.4408,3.542,3.6045,3.599,3.5579,3.5062,3.4407,3.3836,3.3237,3.2541,3.2482,3.2069,3.1124,3.1068,3.0696,2.985,2.9792,2.9792,2.9792,2.9208,2.8668,2.8185,2.76,2.6771,2.5732,2.4825,2.4091,0.0,1.7184,0.0,2.0196,2.1757,2.276,2.3033,2.3091,2.3495,2.4872,2.5783,2.6746,2.8203,2.9098,2.9641,2.9779,2.9792,2.9829,2.9955,2.9867,2.9829,2.9955,2.9867,2.9792,2.9792,2.9792,2.9792,2.9792,2.9792,2.9792,2.9792,2.9346,2.9308,2.9798,2.9333,2.9321,2.9811,2.9792,2.9792,2.9792,2.9792,2.9792,2.9792,2.9792,2.9792,2.9792,2.9792,2.9792,2.9792,2.9792,2.9792,2.9792,2.9792,2.9792,2.9792,2.9792,2.9792,2.9792,2.9792,2.9867,3.0018,3.0331,3.0294,3.0269,3.0997,3.0796,3.0583,3.183,3.17,3.1449,3.2763,3.2742,3.2516,3.2989,3.3102,3.3102,3.3102,3.3102,3.3102,3.3102,3.3102,3.3102,3.3102,3.3102,3.3176,3.342,3.4345,3.4853,3.4373,3.4502,3.4412,3.3827,3.3196,3.2458,3.1586,3.1499,3.11,3.0158,3.0113,3.0017,2.9811,2.9792,2.9792,2.9792,2.9208,2.8838,2.8731,2.7758,2.7173,2.6922,2.6305,2.5679,0.0,0.0,0.0,2.0898,0.0,2.3091,2.3091,2.3091,2.3572,2.5284,2.6099,2.6996,2.8609,2.9404,2.9792,2.9792,2.9792,2.9792,2.9792,2.9792,2.9792,2.9792,2.9792,2.9792,2.9792,2.9541,2.9377,2.9377,2.9126,2.8988,2.8988,2.8932,2.8932,2.8976,2.8932,2.9057,2.9377,2.9377,2.9515,2.9792,2.9792,2.9792,2.9792,2.9792,2.9792,2.9792,2.9792,2.9792,2.9792,2.9792,2.9792,2.9792,2.9792,2.9792,2.9792,2.9792,2.9792,2.9792,2.9792,2.9792,2.9842,3.0131,3.003,2.9942,3.0771,3.0633,3.0419,3.1512,3.1599,3.1574,3.2441,3.2641,3.2704,3.3027,3.3102,3.3102,3.3102,3.3102,3.3102,3.3102,3.3102,3.3102,3.3102,3.3102,3.3102,3.3102,3.3335,3.339,3.306,3.2764,3.2471,3.2186,3.1611,3.1057,3.0576,3.052,3.0317,2.983,2.9792,2.9792,2.9792,2.9792,2.9792,2.9792,2.9503,2.9183,2.8888,2.781,2.7422,2.7634,2.5812,2.4966,0.0,0.0,1.9004,2.1309,2.2498,0.0,2.3091,2.3256,2.3984,2.6058,2.6504,2.718,2.9397,2.9792,2.9792,2.9792,2.9792,2.9792,2.9792,2.9792,2.9792,2.9792,2.9792,2.9754,2.9654,2.9195,2.8869,2.8781,2.8342,2.8109,2.8109,2.843,2.8455,2.8109,2.8442,2.8668,2.8769,2.8838,2.9145,2.9641,2.9555,2.9514,2.9514,2.9514,2.9624,2.9792,2.9792,2.9792,2.9792,2.9792,2.9682,2.9514,2.9514,2.9514,2.9514,2.9514,2.9624,2.9792,2.9792,2.9792,2.9772,2.9573,2.9643,2.986,3.0089,3.0298,3.0563,3.111,3.1587,3.1976,3.2144,3.2566,3.2977,3.3077,3.3102,3.3102,3.3102,3.3102,3.3102,3.3102,3.3102,3.3102,3.3102,3.3102,3.3102,3.3102,3.2591,3.2156,3.2077,3.1203,3.0563,3.0462,3.0068,2.9792,2.9792,2.9792,2.9792,2.9792,2.9792,2.9792,2.9792,2.9792,2.9792,2.9792,2.9792,2.9553,2.9057,2.8071,2.7809,2.8174,2.5229,2.4113,0.0,0.0,2.0517,0.0,2.2498,2.3091,2.3091,2.3855,2.4935,2.6224,2.6504,2.718,2.9397,2.9792,2.9792,2.9792,2.9792,2.9792,2.9792,2.9792,2.9792,2.9792,2.9792,2.9591,2.907,2.8957,2.8718,2.8229,2.8147,2.8109,2.8109,2.772,2.7682,2.8097,2.7708,2.7733,2.8191,2.8668,2.8944,2.9013,2.8555,2.8327,2.8327,2.8327,2.8878,2.9792,2.9792,2.9792,2.9792,2.9792,2.9216,2.8327,2.8327,2.8327,2.8327,2.8327,2.8956,2.9792,2.9792,2.9792,2.9643,2.8648,2.9008,2.9636,2.8701,2.9126,3.0018,3.057,3.0751,3.1027,3.1955,3.2256,3.2453,3.2977,3.3102,3.3102,3.3102,3.3102,3.3102,3.3102,3.3102,3.3102,3.3102,3.3102,3.3102,3.3102,3.2591,3.2039,3.1562,3.0984,3.0412,2.9955,2.9829,2.9792,2.9792,2.9792,2.9792,2.9792,2.9792,2.9792,2.9792,2.9792,2.9792,2.9792,2.9792,2.9754,2.9679,2.9012,2.8725,2.8756,2.6909,2.5909,1.7122,1.842,1.9746,0.0,2.2259,2.3231,2.2853,2.4313,2.588,2.64,2.6985,2.7887,2.9495,2.9792,2.9792,2.9792,2.9792,2.9792,2.9792,2.9792,2.9792,2.9792,2.9503,2.9183,2.8932,2.8355,2.7908,2.7657,2.7374,2.7198,2.7198,2.7261,2.7273,2.7198,2.7273,2.7412,2.7645,2.8185,2.845,2.8453,2.7609,2.7197,2.7197,2.7197,2.8159,2.9792,2.9792,2.9792,2.9753,2.9106,2.8557,2.8044,2.7452,2.7562,2.8096,2.8096,2.8826,2.9792,2.9792,2.9792,2.9624,2.8466,2.8446,2.8697,2.7892,2.8426,2.9419,2.9988,3.0799,3.1625,3.2089,3.2453,3.2776,3.304,3.3102,3.3102,3.3102,3.3102,3.3102,3.3102,3.3102,3.3102,3.3102,3.3102,3.3102,3.3102,3.2315,3.1662,3.1424,3.067,3.0068,2.9836,2.9792,2.9792,2.9792,2.9216,2.9126,2.9753,2.9197,2.8858,2.8858,2.9456,2.9495,2.8858,2.9475,2.9495,2.8858,2.7981,2.7557,2.7506,2.5518,2.4711,0.0,0.0,1.8713,1.9823,2.1506,2.2878,2.2781,2.4595,2.6429,2.6839,2.7775,2.8787,2.9643,2.9792,2.9792,2.9792,2.9792,2.9792,2.9792,2.9792,2.9792,2.9792,2.927,2.8856,2.8718,2.7846,2.7236,2.7097,2.6725,2.6499,2.6499,2.6889,2.6896,2.6512,2.6901,2.7097,2.7097,2.7492,2.7617,2.7444,2.6528,2.6079,2.6079,2.6079,2.7139,2.8961,2.8961,2.8961,2.8902,2.8048,2.7522,2.7186,2.6378,2.6564,2.7308,2.7582,2.8239,2.9025,2.9409,2.9281,2.8796,2.7754,2.7606,2.7694,2.6889,2.7696,2.8984,2.9451,3.073,3.2039,3.2156,3.2641,3.3102,3.3102,3.3102,3.3102,3.3102,3.3102,3.3102,3.3102,3.3102,3.3102,3.3102,3.2977,3.2927,3.3077,3.2135,3.1436,3.1587,3.067,2.9895,2.9596,2.9452,2.9268,2.8981,2.8179,2.8068,2.8922,2.8148,2.7683,2.7683,2.851,2.8549,2.7703,2.853,2.868,2.8096,2.7299,2.676,2.6451,2.4446,2.3772,0.0,1.7096,0.0,1.8588,2.0029,2.1679,2.3119,2.4701,2.6242,2.7729,2.8917,2.9733,2.9792,2.9792,2.9792,2.9792,2.9792,2.9792,2.9792,2.9792,2.9792,2.9792,2.927,2.8706,2.8197,2.762,2.7085,2.6575,2.6512,2.6499,2.6499,2.6524,2.6524,2.6499,2.6524,2.6537,2.6537,2.6572,2.6306,2.5715,2.5153,2.4893,2.4893,2.4893,2.5546,2.6668,2.6668,2.6668,2.6668,2.6595,2.5943,2.4978,2.4914,2.4914,2.5105,2.6182,2.6616,2.6869,2.8339,2.788,2.6561,2.5787,2.6271,2.6876,2.5391,2.6745,2.8819,2.8925,3.0147,3.1549,3.2077,3.2641,3.3102,3.3102,3.3102,3.3102,3.3102,3.3102,3.3102,3.3102,3.3102,3.3102,3.3102,3.2616,3.2441,3.3014,3.2135,3.1574,3.2081,3.1215,3.0134,2.907,2.8494,2.7775,2.6771,2.6627,2.6595,2.6668,2.6627,2.6575,2.6575,2.6648,2.6648,2.6575,2.6648,2.7148,2.8096,2.8044,2.7481,2.6483,2.5273,2.4525,0.0,0.0,0.0,1.8216,1.9984,2.1615,2.1266,2.3583,2.5867,2.6178,2.7565,2.8937,2.9663,2.9792,2.9792,2.9792,2.9792,2.9792,2.9792,2.9792,2.9792,2.9792,2.8963,2.8304,2.8122,2.7298,2.6713,2.6512,2.6499,2.6499,2.6499,2.6499,2.6499,2.6499,2.6499,2.6511,2.6505,2.5141,2.4668,2.5079,2.415,2.3714,2.3714,2.3714,2.393,2.4307,2.4307,2.5147,2.6431,2.5714,2.5168,2.4723,2.3984,2.4168,2.4851,2.5252,2.5871,2.6588,2.7129,2.6948,2.634,2.5328,2.5285,2.5445,2.4467,2.5586,2.7423,2.8541,2.9446,3.0525,3.2308,3.2321,3.2096,3.2918,3.3102,3.3102,3.3102,3.3102,3.3102,3.3102,3.3102,3.3102,3.3102,3.2927,3.2851,3.3065,3.2416,3.1989,3.219,3.0897,2.9799,2.9401,2.821,2.7307,2.691,2.5972,2.5714,2.6451,2.5818,2.5399,2.5399,2.612,2.6162,2.542,2.6141,2.6316,2.5983,2.5983,2.541,2.4307,2.3908,2.3634,1.627,0.0,0.0,1.8833,2.0086,2.1278,2.1597,2.3544,2.539,2.5819,2.7217,2.8597,2.9356,2.9666,2.9792,2.9792,2.9792,2.9792,2.9792,2.9792,2.9792,2.9792,2.88,2.8109,2.8109,2.7123,2.6499,2.6499,2.6499,2.6499,2.6499,2.6499,2.6499,2.6499,2.6164,2.6005,2.5995,2.4192,2.3635,2.4284,2.3487,2.3091,2.3091,2.3091,2.3091,2.3091,2.3091,2.3951,2.5305,2.4553,2.4232,2.4146,2.3408,2.3572,2.4275,2.466,2.5052,2.5432,2.5952,2.5803,2.5253,2.4665,2.4457,2.4367,2.3937,2.4933,2.6591,2.8322,2.9251,3.0265,3.2519,3.2469,3.2052,3.2896,3.3102,3.3102,3.3102,3.3102,3.3102,3.3102,3.3102,3.3102,3.3102,3.2939,3.2714,3.2488,3.1979,3.1522,3.1285,3.0097,2.9122,2.8721,2.7543,2.6607,2.6237,2.5117,2.4781,2.5551,2.4743,2.4232,2.4232,2.4946,2.4988,2.4253,2.4967,2.4988,2.4232,2.4596,2.4211,2.3091,2.3091,2.3091,0.0,0.0,0.0,2.0333,2.016,2.0556,2.421,2.4552,2.4689,2.6746,2.8024,2.8787,2.8844,2.9307,2.9703,2.9703,2.9747,2.9792,2.9792,2.9792,2.9792,2.9792,2.88,2.8109,2.8109,2.7123,2.6499,2.6512,2.6499,2.6499,2.6512,2.6482,2.6452,2.6452,2.5441,2.4927,2.4939,2.3828,2.3272,2.3273,2.3154,2.3091,2.3091,2.3091,2.3091,2.3091,2.3091,2.3091,2.3091,2.3091,2.3091,2.3091,2.3091,2.3091,2.3222,2.4329,2.4049,2.3303,2.481,2.436,2.3191,2.3633,2.3769,2.3779,2.3799,2.4864,2.6433,2.8254,2.9478,3.0679,3.2519,3.3025,3.3047,3.3102,3.3068,3.3047,3.3102,3.3102,3.3102,3.3102,3.3102,3.3102,3.3102,3.2604,3.2001,3.1294,3.0773,3.0181,2.9477,2.8913,2.814,2.7045,2.6407,2.5616,2.4503,2.4043,2.3789,2.3789,2.3357,2.3091,2.3091,2.3091,2.3091,2.3091,2.3091,2.3091,2.3091,2.4211,2.4168,2.3091,2.3091,2.3091,1.7302,0.0,0.0,0.0,0.0,0.0,2.1028,2.1534,2.2247,2.3792,2.5081,2.6202,2.7073,2.7377,2.7486,2.7486,2.8775,2.9792,2.9792,2.9792,2.9792,2.9792,2.88,2.8109,2.8109,2.7123,2.6663,2.7047,2.6713,2.6663,2.7047,2.6012,2.5406,2.5406,2.3734,2.2995,2.3335,2.2643,2.2437,2.2714,2.2979,2.3091,2.3091,2.3091,2.3091,2.3091,2.3091,2.3091,2.3091,2.3091,2.3091,2.3091,2.3091,2.3091,2.3135,2.3442,2.3365,2.3154,2.3591,2.3473,2.311,2.3259,2.3298,2.3415,2.403,2.4523,2.5289,2.7345,2.7483,2.7528,2.9829,3.1067,3.1965,3.2884,3.2404,3.1987,3.2896,3.3102,3.3102,3.3102,3.3102,3.3102,3.3102,3.2964,3.2481,3.1366,3.107,3.0613,2.9545,2.8525,2.7764,2.7437,2.6177,2.5248,2.493,2.4232,2.3789,2.3789,2.3357,2.3091,2.3091,2.3091,2.3091,2.3091,2.3091,2.3091,2.3091,2.343,2.3408,2.3091,2.3091,2.3091,0.0,0.0,0.0,0.0,0.0,0.0,2.0922,2.051,2.0322,2.1596,2.2598,2.3529,2.4425,2.4918,2.5263,2.5438,2.6661,2.7652,2.7854,2.8219,2.8554,2.882,2.8201,2.7846,2.8084,2.7123,2.6625,2.6952,2.6675,2.6452,2.6346,2.5486,2.4808,2.4391,2.2832,2.2239,2.2711,2.216,2.21,2.2498,2.2918,2.3091,2.3091,2.3091,2.3091,2.3091,2.3091,2.3091,2.3091,2.3091,2.3091,2.3091,2.3091,2.3091,2.3091,2.3091,2.3091,2.3091,2.3091,2.3091,2.3091,2.3091,2.3091,2.3257,2.4137,2.4274,2.4618,2.6946,2.7423,2.7686,2.9624,3.0676,3.1378,3.2118,3.2152,3.2052,3.2261,3.272,3.3102,3.3102,3.3102,3.3102,3.3102,3.2655,3.1877,3.0631,3.0022,2.9246,2.8004,2.7234,2.6802,2.6802,2.5944,2.5273,2.5112,2.4443,2.3975,2.3799,2.3357,2.3091,2.3091,2.3091,2.3091,2.3091,2.3091,2.3091,2.3091,2.3091,2.3091,2.3091,2.3091,2.3091,0.0,0.0,0.0,0.0,2.1734,0.0,2.234,2.0831,1.9301,2.0338,2.0849,2.1313,2.185,2.2565,2.3185,2.3611,2.3905,2.4324,2.5092,2.593,2.6648,2.7192,2.7176,2.7326,2.7813,2.7032,2.6512,2.6587,2.6587,2.6087,2.4898,2.4826,2.4373,2.3368,2.24,2.211,2.2526,2.2159,2.2139,2.2498,2.2918,2.3091,2.3091,2.3091,2.3091,2.3091,2.3091,2.3091,2.3091,2.3091,2.3091,2.3091,2.3091,2.3091,2.3091,2.3091,2.3091,2.3091,2.3091,2.3091,2.3091,2.3091,2.313,2.3337,2.4147,2.4189,2.4421,2.6751,2.8272,2.9453,3.0519,3.0899,3.1033,3.1178,3.2052,3.2612,3.1611,3.2196,3.2884,3.2884,3.2884,3.2853,3.2711,3.1755,3.0586,2.9384,2.8296,2.7149,2.5854,2.5693,2.5693,2.5693,2.5669,2.5484,2.5121,2.4629,2.4189,2.3809,2.3357,2.3091,2.3091,2.3091,2.3091,2.3091,2.3091,2.3091,2.3091,2.3091,2.3091,2.3091,2.3091,2.3091,0.0,0.0,0.0,0.0,2.1447,0.0,2.0937,2.1197,2.1558,2.1465,2.1429,2.1746,2.2805,2.2536,2.2209,2.235,2.1813,2.2266,2.4834,2.5365,2.5515,2.5626,2.591,2.613,2.6244,2.6401,2.6675,2.7097,2.7135,2.6156,2.3913,2.38,2.3331,2.2328,2.1682,2.1412,2.1491,2.2075,2.241,2.2498,2.2918,2.3091,2.3091,2.3091,2.3091,2.3091,2.3091,2.3091,2.3091,2.3091,2.3091,2.3091,2.3091,2.3091,2.3091,2.3091,2.3091,2.3091,2.3091,2.3091,2.3091,2.3091,2.3357,2.376,2.4235,2.46,2.5012,2.5846,2.6982,2.8002,2.8249,2.9016,3.0,3.0966,3.1378,3.1777,3.2568,3.2118,3.1567,3.1567,3.1567,3.1245,3.0294,2.9931,2.9338,2.8132,2.7744,2.7149,2.5854,2.5693,2.5693,2.5693,2.541,2.519,2.5102,2.4378,2.3877,2.3799,2.3357,2.3091,2.3091,2.3091,2.3091,2.3091,2.3091,2.3091,2.3091,2.3091,2.3091,2.3091,2.3091,2.3091,0.0,0.0,2.1008,2.1283,2.128,0.0,0.0,2.0503,2.0569,2.0974,2.0523,2.0382,2.1498,2.1263,2.0908,2.0955,2.0386,2.0549,2.2313,2.2986,2.3394,2.3673,2.3879,2.4193,2.4704,2.472,2.5119,2.6071,2.6155,2.5385,2.361,2.3496,2.2813,2.1355,2.1046,2.1113,2.1532,2.1982,2.2412,2.2801,2.2994,2.3091,2.3091,2.3091,2.3091,2.3091,2.3091,2.3091,2.3091,2.3091,2.3091,2.3091,2.3091,2.3091,2.3091,2.3091,2.3091,2.3091,2.3091,2.3091,2.3091,2.3091,2.3269,2.3523,2.3975,2.4574,2.5141,2.5342,2.6004,2.6802,2.7447,2.8495,2.9544,3.0158,3.1245,3.2152,3.2152,3.1655,3.1011,3.0429,2.9818,2.9407,2.9407,2.8912,2.8296,2.7696,2.7054,2.6414,2.5781,2.5693,2.5693,2.5693,2.5332,2.5004,2.4756,2.416,2.3691,2.3477,2.324,2.3091,2.3091,2.3091,2.3091,2.3091,2.3091,2.3091,2.3091,2.3091,2.3091,2.3091,2.3091,2.3091,2.1369,2.1381,2.1474,2.2201,2.1546,2.0753,0.0,0.0,0.0,2.0617,1.9911,1.9468,2.0486,2.0235,1.9876,1.9953,1.9515,1.926,1.956,2.0258,2.1008,2.167,2.1706,2.21,2.3163,2.2972,2.3156,2.4113,2.4436,2.406,2.2867,2.3066,2.2414,2.0663,2.0693,2.1104,2.1896,2.1984,2.2383,2.3091,2.3091,2.3091,2.3091,2.3091,2.3091,2.3091,2.3091,2.3091,2.3091,2.3091,2.3091,2.3091,2.3091,2.3091,2.3091,2.3091,2.3091,2.3091,2.3091,2.3091,2.3091,2.3091,2.3149,2.3327,2.3779,2.4476,2.5092,2.5092,2.5391,2.5951,2.6969,2.8319,2.9338,2.9108,3.0945,3.2382,3.1134,3.0676,3.0226,2.9246,2.8062,2.7542,2.8518,2.7874,2.7244,2.7244,2.6366,2.5693,2.5693,2.564,2.5581,2.5581,2.5137,2.4701,2.4326,2.3906,2.3493,2.312,2.3091,2.3091,2.3091,2.3091,2.3091,2.3091,2.2862,2.2862,2.3091,2.2862,2.2862,2.3091,2.2862,2.2743,2.2106,2.2346,2.2269,2.2027,2.2858,2.3239,2.1405,0.0,2.3141,2.2264,0.0,2.1507,2.2571,0.0,0.0,2.0122,1.9333,1.8624,1.8492,1.8432,1.8838,2.0031,1.9944,2.0298,2.154,2.2042,2.1997,2.1328,2.2428,2.2302,2.0403,2.1499,2.1688,2.0625,2.0947,2.1376,2.1896,2.2256,2.2654,2.3091,2.3091,2.3091,2.3091,2.3091,2.3091,2.3091,2.3091,2.3091,2.3091,2.3091,2.3091,2.3091,2.3091,2.3091,2.3091,2.3091,2.3091,2.3091,2.3091,2.3091,2.3091,2.3091,2.3376,2.3799,2.4219,2.4687,2.5092,2.5092,2.5391,2.5732,2.5878,2.7639,2.9131,2.8073,2.9658,3.1089,2.9863,2.8773,2.7979,2.7838,2.6778,2.5965,2.61,2.6014,2.5927,2.5927,2.5781,2.5693,2.5693,2.5391,2.517,2.517,2.4437,2.3939,2.3867,2.3445,2.3171,2.3101,2.3091,2.3091,2.3091,2.3091,2.3091,2.3091,2.2053,2.2031,2.3091,2.2031,2.2053,2.3069,2.2009,2.1502,2.2962,2.2761,2.2048,2.1598,2.2196,2.2567,2.1381,2.2338,2.3436,2.3311,0.0,0.0,0.0,0.0,0.0,0.0,1.9558,1.8708,1.8194,1.7793,1.7933,1.902,1.863,1.8586,1.9344,1.9624,1.9835,2.0022,2.1276,2.1811,2.1257,2.1977,2.2088,2.1441,2.1045,2.1182,2.1896,2.206,2.2459,2.3091,2.3091,2.3091,2.3091,2.3091,2.3091,2.3091,2.3091,2.3091,2.3091,2.3091,2.3091,2.3091,2.3091,2.3091,2.3091,2.3091,2.3091,2.3091,2.3091,2.3091,2.3091,2.3091,2.3415,2.3867,2.4287,2.4727,2.5151,2.5381,2.5571,2.5693,2.5693,2.703,2.8226,2.772,2.8901,3.0022,2.9521,2.8448,2.7589,2.7589,2.6572,2.5693,2.5693,2.5693,2.5693,2.5693,2.5693,2.562,2.5381,2.5209,2.4994,2.4717,2.415,2.3789,2.3789,2.3367,2.3091,2.3091,2.3091,2.3091,2.3091,2.3091,2.2775,2.2076,2.1547,2.1203,2.102,2.0508,2.0517,2.102,2.1212,2.0913,2.2804,2.2655,2.1955,2.1499,2.1941,2.2329,2.1738,2.2519,2.352,2.4104,2.354,0.0,0.0,0.0,2.1136,0.0,0.0,1.858,1.7975,1.7512,1.7584,1.8492,1.8079,1.7754,1.7832,1.7842,1.8134,1.8878,1.997,2.0731,2.1039,2.1708,2.1876,2.1444,2.1013,2.1133,2.1896,2.2002,2.2401,2.3091,2.3091,2.3091,2.3091,2.3091,2.3091,2.3091,2.3091,2.3091,2.3091,2.3091,2.3091,2.3091,2.3091,2.3091,2.3091,2.3091,2.3091,2.3091,2.3091,2.3091,2.311,2.3259,2.3525,2.3867,2.4287,2.4727,2.516,2.5435,2.562,2.5693,2.5693,2.6644,2.7518,2.7149,2.8015,2.8808,2.8471,2.7696,2.7078,2.7078,2.6342,2.5693,2.5693,2.5693,2.5693,2.5693,2.5693,2.5591,2.5293,2.5063,2.4789,2.443,2.3913,2.3613,2.3613,2.3298,2.3091,2.3091,2.3091,2.296,2.2633,2.2906,2.2381,2.0845,2.08,2.0373,1.9497,1.9177,1.9001,1.9024,1.9898,1.983,2.1036,2.1868,2.2379,2.197,2.2902,2.3708,2.285,2.334,2.4125,2.4656,2.3576,2.2685,2.322,2.1475,0.0,0.0,0.0,0.0,0.0,1.7488,1.7699,1.85,1.8578,1.8264,1.7497,1.7419,1.7435,1.7468,1.8181,1.8463,1.8154,1.962,2.031,1.9968,2.0762,2.1405,2.1905,2.2295,2.2693,2.3091,2.3091,2.3091,2.3091,2.3091,2.3091,2.3091,2.3091,2.3091,2.3091,2.3091,2.3091,2.3091,2.3091,2.3091,2.3091,2.3091,2.3091,2.3091,2.3091,2.3091,2.3169,2.3633,2.3779,2.3867,2.4287,2.4727,2.5092,2.5112,2.54,2.5693,2.5693,2.6644,2.7292,2.6062,2.673,2.7315,2.6076,2.5781,2.5757,2.5757,2.5732,2.5693,2.5693,2.5693,2.5693,2.5693,2.5693,2.5708,2.5689,2.4947,2.441,2.4391,2.364,2.312,2.312,2.3101,2.3091,2.3091,2.3091,2.2589,2.1404,2.247,2.1974,1.9602,1.9557,1.9542,1.9497,1.8326,1.7754,1.7754,1.78,1.78,2.2352,2.2739,2.275,2.2058,2.2973,2.3608,2.2054,2.2901,2.3796,2.3042,2.2683,2.2459,2.2394,2.1259,0.0,0.0,0.0,0.0,0.0,1.7668,1.79,1.8166,1.7978,1.7695,1.7429,1.6887,1.6737,1.7221,1.8036,1.8718,1.9227,2.024,2.0828,2.0886,2.0835,2.1162,2.1896,2.2031,2.2451,2.3091,2.3091,2.3091,2.3091,2.3091,2.3091,2.3091,2.3091,2.3091,2.3091,2.3091,2.3091,2.3091,2.3091,2.3091,2.3091,2.3091,2.3091,2.3091,2.3091,2.3091,2.312,2.3288,2.3718,2.4228,2.4352,2.4908,2.5508,2.5508,2.5601,2.5693,2.5693,2.6014,2.6221,2.5805,2.6038,2.6221,2.5781,2.5693,2.5693,2.5693,2.5693,2.5693,2.5693,2.5693,2.5693,2.5693,2.5693,2.561,2.5332,2.4775,2.4307,2.4033,2.3464,2.3091,2.3091,2.3091,2.3091,2.3091,2.235,2.1734,2.1315,2.0921,1.9951,1.8342,1.8303,1.7878,1.7046,1.6638,1.6433,1.6433,1.6433,1.6433,2.2362,2.2718,2.2732,2.2081,2.2959,2.3554,2.1876,2.2673,2.3552,2.286,2.2364,2.2059,2.2179,2.1189,0.0,0.0,0.0,0.0,0.0,1.7842,1.7991,1.7991,1.7773,1.7565,1.7419,1.6881,1.6628,1.6797,1.769,1.8402,1.8744,1.9916,2.0611,2.065,2.0765,2.1152,2.1896,2.2031,2.2461,2.3091,2.3091,2.3091,2.3091,2.3091,2.3091,2.3091,2.3091,2.3091,2.3091,2.3091,2.3091,2.3091,2.3091,2.3091,2.3091,2.3091,2.3091,2.3091,2.3091,2.3091,2.312,2.3298,2.3825,2.442,2.46,2.5132,2.5693,2.5693,2.5693,2.5693,2.5693,2.5693,2.5693,2.5693,2.5693,2.5693,2.5693,2.5693,2.5693,2.5693,2.5693,2.5693,2.5693,2.5693,2.5693,2.5693,2.5693,2.561,2.5342,2.4922,2.4482,2.4062,2.3601,2.3279,2.311,2.2699,2.247,2.247,2.1324,2.0463,2.0034,1.9702,1.8781,1.7227,1.7541,1.7142,1.5985,1.5855,1.5808,1.5808,1.5808,1.5808]},{"header":{"parameterUnit":"m.s-1","parameterCategory":1,"la1":30.6,"la2":29.2853,"lo1":-89.7004,"lo2":-87.6739,"dx":0.0162,"dy":0.0183,"nx":112,"ny":82,"refTime":"2023-01-31T18:00:00:Z","depth":0,"parameterNumber":3,"parameterNumberName":"V-component_of_WINDS"},"data":[0.0,0.0,0.0,0.0,0.0,0.0,0.0,0.0,0.0,0.0,0.0,0.0,0.0,0.0,0.0,0.0,0.0,0.0,0.0,0.0,0.0,0.0,0.0,0.0,0.0,0.0,0.0,0.0,0.0,0.0,0.0,0.0,0.0,0.0,0.0,0.0,0.0,0.0,0.0,0.0,0.0,0.0,0.0,0.0,0.0,0.0,0.0,0.0,0.0,0.0,0.0,0.0,0.0,0.0,0.0,0.0,0.0,0.0,0.0,0.0,0.0,0.0,0.0,0.0,0.0,0.0,0.0,0.0,0.0,0.0,0.0,0.0,0.0,0.0,0.0,0.0,0.0,0.0,0.0,0.0,0.0,0.0,0.0,0.0,0.0,0.0,0.0,0.0,0.0,0.0,0.7677,0.614,0.658,0.7084,0.7363,0.2842,0.0521,0.1731,0.0,0.0,0.0,0.0,0.0,0.0,0.0,0.0,0.0,0.0,0.0,0.0,0.0,0.0,0.0,0.0,0.0,0.0,0.0,0.0,0.0,0.0,0.0,0.0,0.0,0.0,0.0,0.0,0.0,0.0,0.0,0.0,0.0,0.0,0.0,0.0,0.0,0.0,0.0,0.0,0.0,0.0,0.0,0.0,0.0,0.0,0.0,0.0,0.0,0.0,0.0,0.0,0.0,0.0,0.0,0.0,0.0,0.0,0.0,0.0,0.0,0.0,0.0,0.0,0.0,0.0,0.0,0.0,0.0,0.0,0.0,0.0,0.0,0.0,0.0,0.0,0.0,0.0,0.0,0.0,0.0,0.0,0.0,0.0,0.0,0.0,0.0,0.0,0.0,0.0,0.0,0.0,0.0,0.0,0.0,0.0,0.0,0.0,0.0,0.0,0.0,0.0,0.0,0.0,0.7412,0.6802,0.5211,0.4325,0.4583,0.1778,0.0517,0.1726,0.0,0.0,0.0,0.0,0.0,0.0,0.0,0.0,0.0,0.0,0.0,0.0,0.0,0.0,0.0,0.0,0.0,0.0,0.0,0.0,0.0,0.0,0.0,0.0,0.0,0.0,0.0,0.0,0.0,0.0,0.0,0.0,0.0,0.0,0.0,0.0,0.0,0.0,0.0,0.0,0.0,0.0,0.0,0.0,0.0,0.0,0.0,0.0,0.0,0.0,0.0,0.0,0.0,0.0,0.0,0.0,0.0,0.0,0.0,0.0,0.0,0.0,0.0,0.0,0.0,0.0,0.0,0.0,0.0,0.0,0.0,0.0,0.0,0.0,0.0,0.0,0.0,0.0,0.0,0.0,0.0,0.0,0.0,0.0,0.0,0.0,0.0,0.0,0.0,0.0,0.0,0.0,0.0,0.0,0.0,0.0,0.0,0.0,0.0,0.0,0.0,0.0,0.0,0.735,0.669,0.6988,0.6108,0.4502,0.2041,0.0705,0.0244,0.079,0.1958,0.0,0.0,0.0,0.0,0.0,0.0,0.0,0.0,0.0,0.0,0.0,0.0,0.0,0.0,0.0,0.0,0.0,0.0,0.0,0.0,0.0,0.0,0.0,0.0,0.0,0.0,0.0,0.0,0.0,0.0,0.0,0.0,0.0,0.0,0.0,0.0,0.0,0.0,0.0,0.0,0.0,0.0,0.0,0.0,0.0,0.0,0.0,0.0,0.0,0.0,0.0,0.0,0.0,0.0,0.0,0.0,0.0,0.0,0.0,0.0,0.0,0.0,0.0,0.0,0.0,0.0,0.0,0.0,0.0,0.0,0.0,0.0,0.0,0.0,0.0,0.0,0.0,0.0,0.0,0.0,0.0,0.0,0.0,0.0,0.0,0.0,0.0,0.0,0.0,0.0,0.0,0.0,0.0,0.0,0.0,0.0,0.0,0.0,0.0,0.0,0.0,0.0,0.6981,0.6137,0.6905,0.6562,0.5017,0.1941,0.0642,0.0,0.0,0.1133,0.0,0.0,0.0,0.0,0.0,0.0,0.0,0.0,0.0,0.0,0.0,0.0,0.0,0.0,0.0,0.0,0.0,0.0,0.0,0.0,0.0,0.0,0.0,0.0,0.0,0.0,0.0,0.0,0.0,0.0,0.0,0.0,0.0,0.0,0.0,0.0,0.0,0.0,0.0,0.0,0.0,0.0,0.0,0.0,0.0,0.0,0.0,0.0,0.0,0.0,0.0,0.0,0.0,0.0,0.0,0.0,0.0,0.0,0.0,0.0,0.0,0.0,0.0,0.0,0.0,0.0,0.0,0.0,0.0,0.0,0.0,0.0,0.0,0.0,0.0,0.0,0.0,0.0,0.0,0.0,0.0,0.0,0.0,0.0,0.0,0.0,0.0,0.0,0.0,0.0,0.0,0.0,0.0,0.0,0.0,0.0,0.0,0.0,0.0,0.0,0.0,0.0,0.6661,0.6149,0.6585,0.4969,0.46,0.6447,0.2551,0.0,0.0,0.1129,0.0,0.0,0.0,0.0,0.0,0.0,0.0,0.0,0.0,0.0,0.0,0.0,0.0,0.0,0.0,0.0,0.0,0.0,0.0,0.0,0.0,0.0,0.0,0.0,0.0,0.0,0.0,0.0,0.0,0.0,0.0,0.0,0.0,0.0,0.0,0.0,0.0,0.0,0.0,0.0,0.0,0.0,0.0,0.0,0.0,0.0,0.0,0.0,0.0,0.0,0.0,0.0,0.0,0.0,0.0,0.0,0.0,0.0,0.0,0.0,0.0,0.0,0.0,0.0,0.0,0.0,0.0,0.0,0.0,0.0,0.0,0.0,0.0,0.0,0.0,0.0,0.0,0.0,0.0,0.0,0.0,0.0,0.0,0.0,0.0,0.0,0.0,0.0,0.0,0.0,0.0,0.0,0.0,0.0,0.0,0.0,0.0,0.0,0.0,0.0,0.0,0.0,0.6271,0.5911,0.6361,0.4721,0.3347,0.273,0.1031,0.0,0.0,0.0,0.0,0.0,0.0,0.0,0.0,0.0,0.0,0.0,0.0,0.0,0.0,0.0,0.0,0.0,0.0,0.0,0.0,0.0,0.0,0.0,0.0,0.0,0.0,0.0,0.0,0.0,0.0,0.0,0.0,0.0,0.0,0.0,0.0,0.0,0.0,0.0,0.0,0.0,0.0,0.0,0.0,0.0,0.0,0.0,0.0,0.0,0.0,0.0,0.0,0.0,0.0,0.0,0.0,0.0,0.0,0.0,0.0,0.0,0.0,0.0,0.0,0.0,0.0,0.0,0.0,0.0,0.0,0.0,0.0,0.0,0.0,0.0,0.0,0.0,0.0,0.0,0.0,0.0,0.0,0.0,0.0,0.0,0.0,0.0,0.0,0.0,0.0,0.0,0.0,0.0,0.0,0.0,0.0,0.0,0.0,0.0,0.0,0.0,0.0,0.0,0.0,0.688,0.6103,0.5713,0.6151,0.5057,0.3132,0.0237,0.0,0.0,0.0,0.0,0.0,0.0,0.0,0.0,0.0,0.0,0.0,0.0,0.0,0.0,0.0,0.0,0.0,0.0,0.0,0.0,0.0,0.0,0.0,0.0,0.0,0.0,0.0,0.0,0.0,0.0,0.0,0.0,0.0,0.0,0.0,0.0,0.0,0.0,0.0,0.0,0.0,0.0,0.0,0.0,0.0,0.0,0.0,0.0,0.0,0.0,0.0,0.0,0.0,0.0,0.0,0.0,0.0,0.0,0.0,0.0,0.0,0.0,0.0,0.0,0.0,0.0,0.0,0.0,0.0,0.0,0.0,0.0,0.0,0.0,0.0,0.0,0.0,0.0,0.0,0.0,0.0,0.0,0.0,0.0,0.0,0.0,0.0,0.0,0.0,0.0,0.0,0.0,0.0,0.0,0.0,0.0,0.0,0.0,0.0,0.0,0.0,0.0,0.0,0.0,0.0,0.7249,0.6177,0.5552,0.5946,0.5874,0.4227,0.0352,0.0015,0.0,0.0,0.0,0.0,0.0,0.0,0.0,0.0,0.0,0.0,0.0,0.0,0.0,0.0,0.0,0.0,0.0,0.0,0.0,0.0,0.0,0.0,0.0,0.0,0.0,0.0,0.0,0.0,0.0,0.0,0.0,0.0,0.0,0.0,0.0,0.0,0.0,0.0,0.0,0.0,0.0,0.0,0.0,0.0,0.0,0.0,0.0,0.0,0.0,0.0,0.0,0.0,0.0,0.0,0.0,0.0,0.0,0.0,0.0,0.0,0.0,0.0,0.0,0.0,0.0,0.0,0.0,0.0,0.0,0.0,0.0,0.0,0.0,0.0,0.0,0.0,0.0,0.0,0.0,0.0,0.0,0.0,0.0,0.0,0.0,0.0,0.0,0.0,0.0,0.0,0.0,0.0,0.0,0.0,0.0,0.0,0.0,0.0,0.0,0.0,0.0,0.0,0.0,0.0,0.654,0.5874,0.5491,0.5696,0.5774,0.4743,0.2129,0.0728,0.0,0.0,0.0,0.0,0.0,0.0,0.0,0.0,0.0,0.0,0.0,0.0,0.0,0.0,0.0,0.0,0.0,0.0,0.0,0.0,0.0,0.0,0.0,0.0,0.0,0.0,0.0,0.0,0.0,0.0,0.0,0.0,0.0,0.0,0.0,0.0,0.0,0.0,0.0,0.0,0.0,0.0,0.0,0.0,0.0,0.0,0.0,0.0,0.0,0.0,0.0,0.0,0.0,0.0,0.0,0.0,0.0,0.0,0.0,0.0,0.0,0.0,0.0,0.0,0.0,0.0,0.0,0.0,0.0,0.0,0.0,0.0,0.0,0.0,0.0,0.0,0.0,0.0,0.0,0.0,0.0,0.0,0.0,0.0,0.0,0.0,0.0,0.0,0.0,0.0,0.0,0.0,0.0,0.0,0.0,0.0,0.0,0.0,0.0,0.0,0.0,0.0,0.0,0.0,0.6164,0.558,0.5283,0.5491,0.5586,0.4848,0.2868,0.1043,0.0,0.0,0.0,0.0,0.0,0.0,0.0,0.0,0.0,0.0,0.0,0.0,0.0,0.0,0.0,0.0,0.0,0.0,0.0,0.0,0.0,0.0,0.0,0.0,0.0,0.0,0.0,0.0,0.0,0.0,0.0,0.0,0.0,0.0,0.0,0.0,0.0,0.0,0.0,0.0,0.0,0.0,0.0,0.0,0.0,0.0,0.0,0.0,0.0,0.0,0.0,0.0,0.0,0.0,0.0,0.0,0.0,0.0,0.0,0.0,0.0,0.0,0.0,0.0,0.0,0.0,0.0,0.0,0.0,0.0,0.0,0.0,0.0,0.0,0.0,0.0,0.0,0.0,0.0,0.0,0.0,0.0,0.0,0.0,0.0,0.0,0.0,0.0,0.0,0.0,0.0,0.0,0.0,0.0,0.0,0.0,0.0,0.0,0.0,0.0,0.0,0.0,0.0,0.0,0.6151,0.5411,0.5047,0.5365,0.5413,0.4689,0.2855,0.1034,0.0,0.0,0.0,0.0,0.0,0.0,0.0,0.0,0.0,0.0,0.0,0.0,0.0,0.0,0.0,0.0,0.0,0.0,0.0,0.0,0.0,0.0,0.0,0.0,0.0,0.0,0.0,0.0,0.0,0.0,0.0,0.0,0.0,0.0,0.0,0.0,0.0,0.0,0.0,0.0,0.0,0.0,0.0,0.0,0.0,0.0,0.0,0.0,0.0,0.0,0.0,0.0,0.0,0.0,0.0,0.0,0.0,0.0,0.0,0.0,0.0,0.0,1.2707,1.2604,0.0,0.0,0.0,0.0,0.0,0.0,0.0,0.0,0.0,0.0,0.0,0.0,0.0,0.0,0.0,0.0,0.0,0.0,0.0,0.0,0.0,0.0,0.0,0.0,0.0,0.0,0.0,0.0,0.0,0.0,0.0,0.0,0.0,0.0,0.0,0.0,0.0,0.0,0.0,0.0,0.6845,0.5809,0.5139,0.5375,0.5535,0.4838,0.2875,0.1044,0.0,0.0,0.0,0.0,0.0,0.0,0.0,0.0,0.0,0.0,0.0,0.0,0.0,0.0,0.0,0.0,0.0,0.0,0.0,0.0,0.0,0.0,0.0,0.0,0.0,0.0,0.0,0.0,0.0,0.0,0.0,0.0,0.0,0.0,0.0,0.0,0.0,0.0,0.0,0.0,0.0,0.0,0.0,0.0,0.0,0.0,0.0,0.0,0.0,0.0,0.0,0.0,0.0,0.0,0.0,0.0,0.0,0.0,0.0,0.0,0.0,0.0,1.2883,1.2766,0.0,0.0,0.0,0.0,0.0,0.0,0.0,0.0,0.0,0.0,0.0,0.0,0.0,0.0,0.0,0.0,0.0,0.0,0.0,0.0,0.0,0.0,0.0,0.0,0.0,0.0,0.0,0.0,0.0,0.0,0.0,0.0,0.0,0.0,0.0,0.0,0.0,0.0,0.0,0.0,0.6568,0.5717,0.5173,0.5378,0.5491,0.5138,0.4089,0.1541,0.0,0.0,0.0,0.0,0.0,0.0,0.0,0.0,0.0,0.0,0.0,0.0,0.0,0.0,0.0,0.0,0.0,0.0,0.0,0.0,0.0,0.0,0.0,0.0,0.0,0.0,0.0,0.0,0.0,0.0,0.0,0.0,0.0,0.0,0.0,0.0,0.0,0.0,0.0,0.0,0.0,0.0,0.0,0.0,0.0,0.0,0.0,0.0,0.0,0.0,0.0,0.0,0.0,0.0,0.0,0.0,1.6772,1.6295,1.5586,1.4877,1.4294,1.3818,1.354,1.3286,1.3053,1.3132,0.0,0.0,0.0,0.0,0.0,0.0,0.0,0.0,0.0,0.0,0.0,0.0,0.0,0.0,0.0,0.0,0.0,0.0,0.0,0.0,0.0,0.0,1.2098,1.2098,1.2098,1.2,1.1674,0.0,0.0,0.0,0.0,0.0,0.0,0.0,0.0,0.0,0.0,0.0,0.6278,0.5705,0.536,0.5432,0.5409,0.54,0.5395,0.2368,0.0338,0.0026,0.0,0.0322,0.0,0.0,0.0,0.0,0.0,0.0,0.0,0.0,0.0,0.0,0.0,0.0,0.0,0.0,0.0,0.0,0.0,0.0,0.0,0.0,0.0,0.0,0.0,0.0,0.0,0.0,0.0,0.0,0.0,0.0,0.0,0.0,1.7258,1.7696,0.0,0.0,0.0,0.0,0.0,0.0,0.0,0.0,0.0,0.0,0.0,0.0,0.0,1.8205,1.8669,1.9208,1.9434,1.9358,1.8802,1.8102,1.7254,1.6635,1.5925,1.5165,1.5406,0.0,1.3716,1.4052,0.0,0.0,0.0,0.0,0.0,0.0,0.0,0.0,0.0,0.0,0.0,0.0,0.0,0.0,0.0,0.0,0.0,0.0,0.0,0.0,0.0,0.0,1.1683,1.1683,1.1683,1.1664,1.1616,1.1925,1.2192,1.2192,1.1885,1.1343,0.0,0.0,0.0,0.0,0.0,0.0,0.7199,0.6605,0.6057,0.5614,0.5477,0.5402,0.5402,0.3529,0.1676,0.0101,0.0,0.0048,0.0164,0.1876,0.0,0.0,0.0,0.0,0.0,0.0,0.0,0.0,0.0,0.0,0.0,0.0,0.0,0.0,0.0,0.0,0.0,0.0,0.0,0.0,0.0,0.0,0.0,0.0,0.0,0.0,0.0,0.0,0.0,1.7867,1.8292,1.8525,1.8826,1.8996,0.0,0.0,0.0,0.0,0.0,0.0,0.0,0.0,0.0,1.9171,1.8853,1.892,1.9447,2.0025,2.0314,2.0288,1.9422,1.8805,1.8404,1.7226,1.6482,1.6138,1.6496,1.6339,1.5827,1.5266,1.4886,1.4732,0.0,0.0,0.0,0.0,1.5269,1.531,1.4971,1.4895,1.492,1.4532,0.0,0.0,0.0,0.0,0.0,0.0,0.0,1.1306,1.1803,1.2131,1.2259,1.2003,1.2131,1.2328,1.2328,1.2266,1.2192,1.2192,1.2266,1.2063,1.1244,1.0792,0.0,0.0,0.0,0.8005,0.7485,0.6917,0.6294,0.5565,0.5498,0.5481,0.5399,0.3745,0.1928,0.0118,0.0,0.0,0.0,0.1414,0.2771,0.0,0.0,0.0,0.0,0.0,0.0,0.0,0.0,0.0,0.0,0.0,0.0,0.0,0.0,0.0,0.0,0.0,0.0,0.0,0.0,0.0,0.0,0.0,0.0,0.0,0.0,0.0,0.0,1.8792,1.9137,1.9109,1.9614,1.9893,0.0,0.0,0.0,0.0,0.0,0.0,2.0288,1.9268,1.9186,2.0347,2.0029,2.0099,2.0639,2.1382,2.1746,2.1732,2.0944,2.0251,1.9641,1.8459,1.7626,1.7173,1.7499,1.7687,1.7693,1.6577,1.5831,1.544,1.5892,1.5963,1.5831,1.5831,1.6031,1.6234,1.5779,1.5726,1.574,1.5029,1.4452,1.3828,1.2767,0.0,0.0,0.0,0.0,1.18,1.2301,1.2686,1.2849,1.2465,1.2646,1.2905,1.2905,1.2627,1.234,1.2221,1.2402,1.2368,1.1749,1.1092,0.0,1.0328,0.9373,0.841,0.7648,0.7309,0.6697,0.5571,0.5505,0.5515,0.5415,0.3746,0.1928,0.0118,0.0,0.0,0.0,0.1161,0.2409,0.3701,0.0,0.0,0.0,0.0,0.0,0.0,0.0,0.0,0.0,0.0,0.0,0.0,0.0,0.0,0.0,0.0,0.0,0.0,0.0,0.0,0.0,0.0,0.0,0.0,0.0,0.0,0.0,0.0,0.0,1.9668,2.0249,0.0,0.0,0.0,0.0,2.0615,2.0263,2.047,2.1466,2.0495,2.0386,2.1393,2.1888,2.2395,2.2932,2.4036,2.4591,2.4591,2.4536,2.3373,2.1284,2.119,2.0151,1.8426,1.869,1.8719,1.8506,1.7993,1.7581,1.727,1.7304,1.6966,1.6445,1.6445,1.6151,1.5731,1.571,1.5006,1.4202,1.4655,1.435,1.37,1.3056,1.2837,0.0,0.0,1.2998,1.3009,1.3053,1.3064,1.3052,1.29,1.2873,1.2905,1.2905,1.2873,1.2725,1.2291,1.1916,1.157,1.1283,0.0,1.0248,1.029,1.0134,0.9448,0.7884,0.8056,0.7616,0.5783,0.5487,0.5404,0.5405,0.3747,0.1928,0.0118,0.0,0.0,0.0,0.1157,0.261,0.4326,0.5482,0.0,0.0,0.0,0.0,0.0,0.0,0.0,0.0,0.0,0.0,0.0,0.0,0.0,0.0,0.0,0.0,0.0,0.0,0.0,0.0,0.0,0.0,0.0,0.0,0.0,0.0,0.0,0.0,2.0942,2.1585,0.0,2.2198,2.2258,2.2157,2.1876,2.217,2.2427,2.2625,2.2359,2.2642,2.3658,2.3507,2.365,2.4186,2.4603,2.4804,2.4788,2.3887,2.3031,2.2218,2.1298,2.0513,1.9859,1.9776,1.9697,1.961,1.9261,1.8648,1.7903,1.7903,1.779,1.759,1.759,1.725,1.6796,1.6796,1.6019,1.4878,1.3992,1.3302,1.2743,1.2225,1.2327,1.2707,1.3011,1.341,1.3795,1.4059,1.4124,1.4122,1.4075,1.3766,1.3588,1.3978,1.3654,1.3357,1.3563,1.2984,1.2404,1.2311,1.1521,1.0974,1.1174,1.0573,0.9562,0.8082,0.8032,0.7456,0.5659,0.5321,0.5267,0.5384,0.374,0.1928,0.0114,0.0,0.0,0.0,0.116,0.2621,0.4362,0.531,0.6422,0.0,0.0,0.0,0.0,0.0,0.0,0.0,0.0,0.0,0.0,0.0,0.0,0.0,0.0,0.0,0.0,0.0,0.0,0.0,0.0,0.0,0.0,0.0,0.0,0.0,2.1126,2.1834,2.2293,2.2921,2.3411,2.358,2.4014,2.3885,2.2916,2.388,2.4222,2.3541,2.377,2.4201,2.4851,2.4656,2.4707,2.5067,2.5272,2.5372,2.5356,2.4218,2.3417,2.2932,2.182,2.1106,2.0712,2.0355,2.0261,2.0342,1.9964,1.9384,1.8731,1.8543,1.8355,1.8204,1.8204,1.7978,1.7581,1.6968,1.612,1.5049,1.3526,1.2789,1.2477,1.2376,1.2623,1.3073,1.375,1.426,1.4671,1.4925,1.4994,1.4937,1.4667,1.4356,1.4241,1.4768,1.4491,1.4274,1.4612,1.3826,1.3147,1.3281,1.242,1.1797,1.2026,1.1346,1.0266,0.8761,0.8403,0.7643,0.6008,0.5462,0.5208,0.5192,0.3668,0.1932,0.0112,0.0,0.0,0.0,0.1636,0.3082,0.4247,0.5303,0.6482,0.78,0.0,0.0,0.0,0.0,0.0,0.0,0.0,0.0,0.0,0.0,0.0,0.0,0.0,0.0,0.0,0.0,0.0,0.0,0.0,0.0,0.0,0.0,0.0,2.1754,2.2832,2.3655,2.3714,2.4302,2.4455,2.3849,2.4956,2.513,2.3724,2.532,2.5701,2.423,2.4652,2.4918,2.4858,2.536,2.5624,2.5624,2.6197,2.6461,2.6461,2.5854,2.4847,2.3499,2.2957,2.2115,2.1027,2.0478,2.0421,2.0679,2.0062,1.9798,1.9748,1.9221,1.8719,1.8254,1.8254,1.8218,1.7927,1.6146,1.5158,1.449,1.3304,1.2915,1.3041,1.3613,1.3827,1.4098,1.5264,1.561,1.5632,1.5632,1.5632,1.5437,1.4655,1.4609,1.4849,1.5192,1.5426,1.5495,1.529,1.4343,1.3685,1.4036,1.3235,1.2594,1.276,1.2452,0.0,0.9904,0.9165,0.8248,0.6849,0.591,0.5227,0.4839,0.3554,0.1987,0.0182,0.0026,0.0013,0.005,0.2556,0.396,0.4027,0.5516,0.6792,0.7802,0.0,0.0,0.0,0.0,0.0,0.0,0.0,0.0,0.0,0.0,0.0,0.0,0.0,0.0,0.0,0.0,0.0,0.0,0.0,0.0,0.0,2.2761,2.3629,2.3146,2.3793,2.487,2.6327,2.6659,2.7078,2.7872,2.8276,2.7855,2.6302,2.7158,2.7007,2.5288,2.5828,2.6158,2.6038,2.6185,2.626,2.626,2.5979,2.5854,2.5841,2.4883,2.4245,2.3832,2.326,2.2812,2.2478,2.1539,2.1185,2.1206,2.0213,1.9798,1.9786,1.9635,1.9497,1.9359,1.9359,1.8783,1.7794,1.6468,1.5333,1.4359,1.3596,1.3426,1.3588,1.3755,1.4411,1.5163,1.551,1.5919,1.6249,1.6249,1.6249,1.6199,1.598,1.5935,1.6091,1.6668,1.6694,1.6546,1.6396,1.5743,1.5008,1.4227,1.3652,1.3115,1.2594,1.2336,1.1524,0.9657,0.8886,0.8076,0.6971,0.584,0.5133,0.5031,0.44,0.3311,0.1699,0.0593,0.0398,0.1271,0.2013,0.3139,0.4695,0.5667,0.6701,0.0,0.0,0.0,0.0,0.0,0.0,0.0,0.0,0.0,0.0,0.0,0.0,0.0,0.0,0.0,0.0,0.0,0.0,0.0,0.0,0.0,0.0,2.4511,2.56,2.6048,2.6213,2.6799,2.8274,2.8438,2.8738,2.9518,2.9832,2.9335,2.7823,2.8596,2.8418,2.6788,2.6963,2.7085,2.7011,2.6692,2.6499,2.6499,2.616,2.5979,2.5954,2.4858,2.4343,2.4302,2.3471,2.3108,2.3058,2.2194,2.1707,2.1432,2.054,2.0037,1.9798,0.0,0.0,0.0,0.0,1.9193,1.8184,1.6964,1.5927,1.4996,1.4061,1.3889,1.41,1.4351,1.5129,1.5988,1.6282,1.6768,1.7213,1.7213,1.7213,1.7185,1.711,1.7128,1.7299,1.7824,1.7892,1.7703,1.7227,1.6857,0.0,1.4873,1.434,1.3816,1.2952,1.287,1.221,1.026,0.917,0.8249,0.744,0.6077,0.5163,0.5029,0.4776,0.0,0.0,0.0,0.1863,0.1808,0.2367,0.0,0.0,0.0,0.6231,0.7173,0.7396,0.0,0.0,0.8322,0.8617,0.0,0.0,0.0,0.0,0.0,0.0,0.0,0.0,0.0,0.0,0.0,0.0,0.0,0.0,0.0,0.0,2.6512,2.7662,2.9443,2.931,2.9235,2.9758,2.9817,2.9847,2.9922,3.0402,3.0167,2.8813,2.9708,2.9708,2.8352,2.7999,0.0,0.0,0.0,2.6782,2.6782,2.6616,2.6514,2.6439,2.5271,2.4662,2.4578,2.3559,2.3108,2.307,2.2533,2.2033,2.1557,2.1018,2.0439,1.9899,1.9823,1.9798,1.9785,1.9708,1.937,1.8771,1.7402,0.0,0.0,1.4735,1.4499,1.4833,1.536,1.6031,1.6736,1.7314,1.7827,1.8204,1.8204,1.8204,1.8162,1.799,1.8118,1.8361,1.8663,1.8914,1.8792,1.7788,1.7605,1.7157,1.5716,1.5137,1.4533,1.3548,1.3688,1.3203,1.126,0.9702,0.8595,0.8075,0.6449,0.0,0.4977,0.4868,0.4735,0.4535,0.4489,0.3739,0.2116,0.322,0.4252,0.509,0.5127,0.5483,0.6217,0.6622,0.6683,0.6451,0.7357,0.7766,0.0,0.0,0.0,0.0,0.0,0.0,0.0,0.0,0.0,0.0,0.0,0.0,0.0,0.0,0.0,2.6971,2.8635,2.9879,3.0268,3.115,3.1585,3.1182,3.1122,3.1346,3.1898,3.2033,3.1708,3.0736,3.0444,2.9878,2.8899,2.8775,2.8748,2.8748,2.8604,2.8524,2.8524,2.7391,2.6604,2.6162,2.4791,0.0,2.3421,2.3208,2.3108,2.307,2.2533,2.2232,2.2108,2.157,2.1017,2.0478,1.9987,1.9798,1.9734,1.9136,1.884,1.8546,1.7101,1.6713,1.6705,1.5833,1.6091,1.6759,1.6881,1.7351,0.0,1.8005,1.8129,1.8204,1.8204,1.8204,1.8193,1.815,1.8497,1.8858,1.8933,1.9308,1.9235,1.787,1.7605,1.7255,1.6143,1.5591,1.4862,1.3581,1.3688,1.3203,1.126,0.9702,0.8639,0.8209,0.651,0.5371,0.5313,0.5041,0.4813,0.4674,0.44,0.4056,0.3591,0.363,0.3748,0.3925,0.4037,0.4603,0.5651,0.5269,0.5408,0.6045,0.7193,0.7544,0.0,0.0,0.0,0.0,0.0,0.0,0.0,0.0,0.0,0.0,0.0,2.4698,2.6184,0.0,2.7754,2.9743,3.0866,3.1495,3.1495,3.2377,3.2751,3.2078,3.1989,3.2258,3.2946,3.3006,3.2824,3.2382,3.2057,3.1551,3.0789,3.033,2.997,2.9658,2.9239,2.9002,2.9002,2.8289,2.7591,2.6881,2.5917,2.5061,2.434,2.4061,2.3948,2.391,2.3374,2.2972,2.2646,2.1832,2.1344,2.1067,2.0778,2.03,1.9797,1.9731,1.9512,1.9044,1.7564,1.7394,1.7676,1.6568,1.6835,1.7599,1.7599,1.8081,1.8606,1.8606,1.8794,1.9007,1.9007,1.9007,1.9007,1.9007,1.9208,1.9397,1.9397,1.9849,1.9922,1.8819,1.8473,1.8075,1.7199,1.6491,1.5525,1.3978,1.4007,1.3469,1.1461,1.0184,0.9176,0.8477,0.7048,0.594,0.5452,0.5035,0.4772,0.4712,0.4388,0.4168,0.4103,0.3839,0.3665,0.3602,0.3737,0.421,0.5042,0.4945,0.502,0.5289,0.673,0.7182,0.0,0.0,0.0,0.0,0.0,0.0,0.0,0.0,2.4529,2.5832,2.6108,2.6716,2.8693,2.9233,3.0057,3.2168,3.2721,3.2796,3.2542,3.308,3.3245,3.2572,3.2721,3.3095,3.3649,3.3679,3.3679,3.3679,3.3559,3.326,3.2721,3.2042,3.1411,3.0932,3.0115,2.9687,2.9687,2.9389,2.8773,2.7796,2.7186,2.6392,2.5435,2.4992,2.4804,2.4779,2.4243,2.3712,2.3183,2.2108,2.1658,2.1658,2.1658,2.1029,2.0162,2.0393,2.027,1.9754,1.8147,1.8192,1.8688,1.7357,1.7539,1.8276,1.8276,1.8767,1.9334,1.9334,1.9635,1.9962,1.9962,1.9962,1.9949,1.9823,1.9974,2.01,2.0,2.0439,2.0639,1.9899,1.9396,1.8891,1.8224,1.7466,1.6341,1.4547,1.4459,1.3862,1.1849,1.0816,0.9839,0.8722,0.7633,0.655,0.5492,0.4991,0.4721,0.4708,0.4385,0.4214,0.4263,0.3974,0.3765,0.3661,0.3722,0.3989,0.4446,0.4748,0.4792,0.4642,0.6238,0.6806,2.1733,2.1869,2.2382,2.3098,2.3603,2.4459,0.0,0.0,2.7466,2.9627,2.9888,3.0005,3.0903,3.1674,3.2241,3.2466,3.3499,3.3859,3.2662,3.308,3.3245,3.2572,3.3544,3.4324,3.4384,3.4383,3.4383,3.4383,3.3844,3.3469,3.338,3.3303,3.3212,3.3138,3.2466,3.2109,3.2109,3.08,2.9482,2.8124,2.7305,2.6184,2.4892,2.4829,2.4804,2.4779,2.4243,2.3966,2.3816,2.2686,2.2207,2.2207,2.2207,2.1845,2.1173,2.0121,2.009,2.0315,1.8299,1.8514,1.954,1.8715,1.897,1.9595,1.9595,2.0022,2.0515,2.0515,2.0553,2.0591,2.0591,2.0591,2.0465,1.9924,2.0564,2.1181,2.0704,2.1031,2.1185,2.0454,1.9653,1.8975,1.8591,1.8166,1.718,1.5206,1.4922,1.4272,1.2442,1.1445,1.0317,0.8775,0.7791,0.6748,0.5499,0.5074,0.4818,0.4715,0.4385,0.4276,0.4454,0.4091,0.3879,0.3864,0.3709,0.3707,0.3893,0.3818,0.4065,0.4632,0.5949,0.6548,2.2211,2.2957,2.4011,2.4363,2.5411,2.6623,2.7782,2.8347,2.909,3.0677,3.1277,3.1846,3.2949,3.3464,3.3817,3.4192,3.4711,3.4757,3.3799,3.3904,3.3694,3.2632,3.3335,3.4069,3.4458,3.4503,3.4652,3.504,3.4816,3.4487,3.4099,3.4084,3.3904,3.3499,3.323,3.308,3.308,3.2079,3.0793,2.9236,2.8479,2.7296,2.5791,2.5791,2.5603,2.5247,2.4691,2.4293,2.3941,2.311,2.2972,2.3248,2.2909,2.2834,2.2807,2.1603,2.1168,2.098,1.9683,1.9906,2.0669,1.9932,2.0181,2.0791,2.0791,2.0967,2.1169,2.1169,2.1169,2.1169,2.1169,2.1169,2.1093,2.0854,2.1155,2.1444,2.1206,2.1595,2.1872,2.1572,2.0683,2.0006,2.0096,1.9134,1.8016,1.7061,1.622,1.5173,1.3699,1.2491,1.0985,0.8931,0.7929,0.6931,0.5738,0.5362,0.5089,0.484,0.4608,0.4498,0.4501,0.4234,0.4026,0.3908,0.3702,0.3574,0.3507,0.3649,0.4017,0.4628,0.5669,0.6628,2.2692,2.3834,2.5192,2.5443,2.7063,2.874,2.9193,2.9933,3.0783,3.1778,3.2362,3.2971,3.3965,3.434,3.4661,3.5153,3.5373,3.5205,3.4339,3.4054,3.3514,3.2362,3.2482,3.3081,3.4113,3.4383,3.4772,3.5444,3.5504,3.5295,3.4802,3.4772,3.4563,3.4068,3.3858,3.3784,3.3784,3.311,3.2038,3.0606,2.9852,2.8717,2.7313,2.691,2.6411,2.5816,2.5272,2.4808,2.4393,2.3813,2.3838,2.4192,2.3735,2.3838,2.413,2.3286,2.2445,2.1611,2.0939,2.1047,2.1411,2.0878,2.1061,2.1507,2.1507,2.1594,2.1719,2.1719,2.1719,2.1719,2.1719,2.1719,2.1681,2.1545,2.1733,2.1895,2.1744,2.2146,2.2521,2.2521,2.1481,2.072,2.1135,1.9862,1.8792,1.8739,1.7731,1.6401,1.4851,1.3092,1.1217,0.9156,0.807,0.7039,0.5903,0.5549,0.5266,0.4977,0.4796,0.4661,0.4555,0.4378,0.4189,0.3986,0.3787,0.3579,0.3384,0.3575,0.3911,0.4404,0.5422,0.6649,0.0,0.0,2.537,2.6093,2.8225,3.034,3.1133,3.2083,3.302,3.3834,3.3669,3.3402,3.3514,3.4061,3.4522,3.4528,3.5072,3.5048,3.3712,3.2976,3.2303,3.1615,3.0972,3.1375,3.335,3.4113,3.4772,3.5444,3.5504,3.5489,3.5474,3.5474,3.5474,3.5444,3.4817,3.4458,3.4458,3.3799,3.3024,3.2112,3.1189,3.0269,2.9368,2.7931,2.6989,2.6436,2.5841,2.5561,2.5511,2.4967,2.4766,2.4763,2.4766,2.4766,2.4779,2.4741,2.3687,2.2194,2.1655,2.1481,2.1507,2.1467,2.1481,2.1507,2.1507,2.1857,2.227,2.227,2.227,2.227,2.227,2.227,2.2132,2.162,2.2282,2.2907,2.2383,2.2694,2.3083,2.3083,2.1745,2.072,2.1135,2.0131,1.9414,1.9787,1.931,1.8036,1.5585,1.2903,1.0737,0.9425,0.8217,0.7039,0.5903,0.5549,0.5311,0.5103,0.485,0.4702,0.4698,0.4559,0.4401,0.4194,0.3995,0.3792,0.3592,0.3401,0.3488,0.3863,0.5251,0.6448,0.0,0.0,2.8367,2.9633,3.1173,3.2526,3.307,3.3823,3.4135,3.3116,3.3175,3.3093,3.2099,3.2529,3.3188,3.3631,3.4348,3.483,3.4818,3.4247,3.341,3.2303,3.2347,3.2587,3.2811,3.344,3.4292,3.5429,3.5504,3.5504,3.5504,3.5504,3.5504,3.5504,3.528,3.516,3.516,3.4503,3.3735,3.2842,3.0873,2.9451,2.8548,2.768,2.7198,2.6989,2.6017,2.5598,2.5548,2.5017,2.5005,2.531,2.4942,2.5017,2.5297,2.4929,2.444,2.3876,2.3339,2.2899,2.2571,2.2571,2.2571,2.2571,2.2571,2.2696,2.2832,2.2832,2.2832,2.2832,2.2832,2.2832,2.2782,2.2594,2.2832,2.3058,2.2869,2.297,2.3221,2.3625,2.2233,2.1247,2.2061,2.0814,1.9618,1.9329,1.8339,1.706,1.5505,1.369,1.2099,1.1015,1.0333,0.9231,0.7414,0.6889,0.6273,0.5363,0.5006,0.4796,0.4708,0.4567,0.4405,0.4204,0.404,0.3889,0.3739,0.3575,0.3738,0.4221,0.5099,0.6282,0.0,2.8536,3.0629,3.1911,3.317,3.4179,3.4441,3.4726,3.4374,3.232,3.2273,3.2157,3.0622,3.098,3.1766,3.2498,3.3041,3.3619,3.4325,3.3858,3.329,3.2901,3.3036,3.3155,3.3215,3.3589,3.4307,3.5429,3.5504,3.5504,3.5504,3.5504,3.5504,3.5504,3.5504,3.5504,3.5504,3.507,3.4223,3.297,3.1367,2.9823,2.8367,2.8034,2.7758,2.7519,2.662,2.6218,2.618,2.5624,2.5598,2.5891,2.5536,2.5611,2.5879,2.5523,2.5272,2.498,2.4255,2.3738,2.3399,2.317,2.3246,2.3409,2.3409,2.3562,2.371,2.371,2.371,2.371,2.371,2.371,2.371,2.371,2.371,2.371,2.371,2.371,2.381,2.4202,2.2777,2.1738,2.2552,2.1271,2.0082,1.9826,1.8219,1.6612,1.5445,1.4144,1.2914,1.1814,1.1406,1.0487,0.868,0.777,0.6928,0.6056,0.5316,0.4859,0.4775,0.46,0.4436,0.4304,0.4156,0.3995,0.3829,0.3673,0.3771,0.4136,0.512,0.6268,2.8493,3.0513,3.2186,3.2981,3.4259,3.5265,3.5231,3.4784,3.3772,3.1579,3.1082,3.0581,0.0,0.0,3.0332,3.1202,3.1448,3.1791,3.2554,3.2108,3.2153,3.3395,3.3021,3.3155,3.4428,3.4548,3.4832,3.5504,3.5534,3.5504,3.5504,3.5504,3.5504,3.5504,3.5504,3.5504,3.5504,3.5504,3.4524,3.2593,3.2593,3.1315,2.8957,2.89,2.8618,2.8109,2.7532,2.7298,2.7261,2.6751,2.6512,2.6499,2.6524,2.6537,2.6537,2.6537,2.6168,2.5552,2.4481,2.4092,2.3941,2.3333,2.3549,2.4029,2.4004,2.4365,2.4804,2.4804,2.4804,2.4804,2.4804,2.4804,2.4804,2.4804,2.4804,2.4804,2.4804,2.4829,2.4854,2.4879,2.3408,2.2251,2.2606,2.1557,2.0791,2.1152,1.8985,1.6871,1.5559,1.4354,1.3167,1.1954,1.152,1.0837,0.9716,0.8303,0.7359,0.7125,0.5786,0.4965,0.4903,0.4647,0.4505,0.4505,0.4298,0.4098,0.3908,0.3709,0.362,0.3678,0.5331,0.6435,3.0185,3.2584,3.4825,3.5629,3.6105,3.6242,3.5624,3.4128,3.2385,3.0717,2.9473,2.8275,2.7002,2.8186,2.9614,3.0451,3.1919,3.338,3.4579,3.4592,3.4427,3.4263,0.0,3.4876,3.5205,3.525,3.5519,3.6194,3.5789,3.5504,3.5504,3.5504,3.5504,3.5504,3.5504,3.5504,3.5504,3.5504,3.4524,3.2593,3.2593,3.1542,2.9566,2.9107,2.8831,2.8643,2.7708,2.7298,2.7286,2.7148,2.6864,2.6537,2.6952,2.7097,2.7097,2.7097,2.6997,2.6771,2.6109,2.5314,2.4503,2.3938,2.4139,2.4515,2.4117,2.4365,2.4804,2.4804,2.4804,2.4804,2.4804,2.4804,2.4804,2.4804,2.4804,2.4804,2.4804,2.5105,2.5523,2.5979,2.5075,2.3774,2.2347,2.1809,2.1475,2.1249,1.9267,1.7573,1.6879,1.5146,1.3858,1.3528,1.3011,1.2281,1.123,1.0297,0.9043,0.7346,0.6705,0.5947,0.4943,0.4735,0.4607,0.4498,0.4301,0.4127,0.3973,0.3822,0.3897,0.4231,0.5508,0.7051,3.273,3.4833,3.671,3.7161,3.7038,3.6496,3.5368,3.3654,3.1701,2.9523,2.8398,2.7312,2.5769,2.7179,2.8777,0.0,0.0,0.0,3.4384,3.4622,3.4696,0.0,3.5265,3.5504,3.5504,3.5774,3.6088,3.6479,3.5878,3.5504,3.5504,3.5504,3.5504,3.5504,3.5504,3.5504,3.5504,3.5067,3.4092,3.2593,3.2177,3.1212,2.9779,2.9453,2.9283,2.9245,2.8386,2.8009,2.7984,2.7745,2.7457,2.7236,2.7537,2.7645,2.7645,2.7645,2.7512,2.7261,2.6964,2.6281,2.541,2.4619,2.4704,2.508,2.4795,2.5331,2.6057,2.6057,2.6353,2.6645,2.6645,2.6353,2.6057,2.6057,2.5982,2.59,2.59,2.6327,2.6534,2.5949,2.5385,2.4403,2.2484,2.2032,2.1865,2.1786,2.0026,1.8447,1.7709,1.5537,1.4109,1.4109,1.3674,1.31,1.2425,1.1394,1.0018,0.8207,0.7336,0.6326,0.5035,0.4806,0.4634,0.4508,0.4389,0.4247,0.4095,0.4014,0.4228,0.4744,0.618,0.7822,3.5228,3.6722,3.7896,3.7896,3.7268,3.6263,3.4833,3.3139,3.1082,2.8365,2.7629,2.695,2.5177,2.6542,2.8061,2.8491,0.0,3.1332,3.3471,3.3769,3.4203,3.537,3.5579,3.5669,3.5727,3.6267,3.6673,3.6748,3.6133,3.5759,3.5759,3.5684,3.5594,3.5504,3.5504,3.5504,3.5504,3.4509,3.3518,3.2575,3.1651,3.0714,2.9792,2.9792,2.9792,2.9767,2.9157,2.8888,2.8869,2.8392,2.8154,2.8109,2.8185,2.821,2.821,2.821,2.7908,2.7507,2.7507,2.7236,2.6696,2.5431,2.5417,2.5882,2.5882,2.6815,2.7884,2.798,2.8549,2.9125,2.908,2.8508,2.791,2.779,2.7579,2.7412,2.7412,2.7821,2.7606,2.5594,2.5195,2.4634,2.287,2.2295,2.2158,2.2471,2.0934,1.9401,1.8422,1.598,1.4291,1.4109,1.3834,1.354,1.3273,1.2018,1.0705,0.944,0.7978,0.6596,0.5357,0.4942,0.4654,0.4508,0.4501,0.4402,0.4197,0.4207,0.4549,0.5262,0.6996,0.8631,3.5366,3.6687,3.7819,3.7819,3.6798,3.5577,3.4706,3.1945,0.0,0.0,2.6826,2.5807,2.5243,2.6733,2.8363,2.9245,3.0931,3.2826,3.4877,3.516,3.525,0.0,3.5983,3.6522,3.703,3.718,3.7479,3.8035,3.7449,3.7075,3.7075,3.6596,3.6073,3.5519,3.5504,3.5504,3.5504,3.4509,3.3518,3.2575,3.1651,3.0714,2.9792,2.9792,2.9792,2.9767,2.9157,2.8888,2.8888,2.8806,2.8493,2.8129,2.8593,2.8769,2.8769,2.8769,2.8706,2.8618,2.8618,2.8776,2.8665,2.6807,2.6708,2.7344,2.7344,2.802,2.8876,2.9448,2.9716,2.9761,2.9479,2.9304,2.8987,2.8227,2.7992,2.7959,2.7959,2.838,2.8263,2.6562,2.6246,2.5548,2.3366,2.2947,2.2801,2.2527,2.1463,2.0476,1.9889,1.7437,1.5319,1.4214,1.4041,1.3874,1.3553,1.2896,1.1967,1.0754,0.9292,0.7849,0.6479,0.5422,0.4748,0.4508,0.4505,0.4395,0.4197,0.4197,0.4769,0.5878,0.7192,0.9232,3.6532,3.726,3.7882,3.8277,3.6966,3.5308,3.4184,0.0,0.0,0.0,2.6657,2.6074,2.578,2.7025,0.0,2.8983,3.0148,3.1794,3.4128,3.4157,3.4472,3.5848,3.6314,3.6748,3.7327,3.7719,3.8048,3.838,3.8093,3.7629,3.6971,3.6327,3.5833,3.5519,3.4986,3.4725,3.4725,3.3258,3.2321,3.1852,3.0927,3.0241,2.9792,2.9792,2.9792,2.9779,2.9503,2.9377,2.9377,2.9377,2.9227,2.9013,2.9277,2.9377,2.9377,2.9377,2.9498,2.9682,2.9682,2.9935,3.0177,2.9476,2.9335,2.9414,2.9414,3.0007,3.0738,3.1051,3.1457,3.1671,3.1029,3.0511,2.9943,2.9001,2.8646,2.8593,2.8925,2.9189,2.8966,2.7587,2.6883,2.5954,2.4275,2.3485,2.3023,2.2849,2.2198,2.1446,2.0677,1.8769,1.6984,1.5641,1.4798,1.4195,1.3901,1.3467,1.2602,1.1182,0.9809,0.8404,0.6971,0.5622,0.4813,0.4614,0.4532,0.4631,0.4875,0.4875,0.5742,0.7432,0.8718,1.0777,3.7394,3.7544,3.7717,3.8483,3.6862,3.4816,3.3669,3.1569,0.0,2.7131,2.67,2.6593,2.6272,2.7153,2.8101,0.0,2.9368,3.0716,3.335,3.338,3.3978,3.6239,3.6748,0.0,3.7569,3.8212,3.8542,3.8424,3.8275,3.7689,3.6568,3.5998,3.5654,3.5504,3.4526,3.401,3.401,3.2141,3.1199,3.1199,3.0241,2.9792,2.9792,2.9792,2.9792,2.9792,2.9792,2.9792,2.9792,2.9792,2.9792,2.9792,2.9792,2.9792,2.983,3.0017,3.0286,3.0606,3.0792,3.1214,3.1708,3.2132,3.18,3.1276,3.1416,3.1934,3.2518,3.2649,3.3197,3.3476,3.2482,3.1691,3.0894,2.9763,2.9282,2.922,2.9691,2.9792,2.9456,2.8327,2.7421,2.6399,2.5041,2.407,2.3387,2.3135,2.284,2.2327,2.1491,1.9955,1.8552,1.7484,1.5724,1.4496,1.4208,1.3827,1.3051,1.1702,1.0192,0.877,0.7475,0.5869,0.4911,0.4708,0.4756,0.5013,0.5501,0.5806,0.6897,0.8744,1.0228,1.2203,3.6702,3.6705,3.6904,3.7704,3.5685,3.3496,3.3426,0.0,2.8637,2.7038,2.67,2.6593,2.6272,2.6791,0.0,0.0,0.0,3.1345,3.4024,3.4876,3.5549,3.6404,0.0,0.0,3.8287,3.8898,3.9065,3.8454,3.7838,3.721,3.6538,3.6449,3.6118,3.5534,3.4526,3.401,3.401,3.2141,3.1199,3.1199,3.0241,2.9792,2.9792,2.9792,2.9792,2.9792,2.9792,2.9792,2.9792,2.9792,2.9792,2.9792,2.9792,2.9792,2.9895,3.0758,3.1085,3.1249,3.2096,3.2975,3.3736,3.3776,3.302,3.2191,3.2745,3.3144,3.3512,3.4109,3.4351,3.4121,3.2879,3.248,3.1978,3.0183,2.9743,2.9729,2.9779,2.9792,2.9456,2.8327,2.8024,2.7287,2.5157,2.4702,2.4296,2.3266,2.3062,2.3011,2.2902,2.0868,1.9385,1.9261,1.6667,1.4825,1.4481,1.3919,1.3426,1.3048,1.0785,0.9168,0.85,0.6452,0.5153,0.4715,0.5344,0.5617,0.5501,0.6785,0.785,0.875,1.0698,1.2643,3.5678,3.5968,3.6243,3.7501,3.5195,3.277,3.327,0.0,2.7977,2.6919,2.6754,2.6817,2.6797,2.7087,2.757,0.0,0.0,0.0,3.1299,3.2093,3.3335,3.5624,3.6686,3.7721,3.8901,3.9242,3.9107,3.8437,3.8138,3.7554,3.6553,3.6508,3.5915,3.4639,3.3653,3.289,3.2321,3.102,3.0362,3.0343,2.9991,2.9792,2.9792,2.9792,2.9792,2.9792,2.9792,2.9792,2.9837,3.04,3.0639,3.0696,3.1267,3.1494,3.1531,3.1906,3.2411,3.2943,3.331,3.4092,3.4889,3.4889,3.4583,3.423,3.4463,3.4618,3.4756,3.5026,3.51,3.4855,3.3734,3.2593,3.1439,3.0101,2.9792,2.9792,2.9792,2.9792,2.9663,2.9216,2.8577,2.7622,2.6088,2.5252,2.4414,2.3256,2.3091,2.3091,2.3091,2.1623,2.0576,2.0576,1.7387,1.5126,1.4832,1.4409,1.3947,1.348,1.1721,1.0237,0.9184,0.7316,0.6173,0.5915,0.5836,0.6242,0.7126,0.7887,0.9029,1.0545,1.2145,1.4052,3.4539,3.5243,3.5862,3.7413,3.5131,3.2677,0.0,0.0,2.7883,2.6903,2.6961,2.7169,2.7193,2.7454,2.7709,0.0,0.0,2.8425,2.9939,3.0702,3.2108,3.4876,3.5805,3.6881,3.8629,3.8808,3.8688,3.8424,3.823,3.7704,3.6806,3.6941,3.6117,3.4056,3.3101,3.2159,3.1217,3.026,2.9792,2.9792,2.9792,2.9792,2.9792,2.9792,2.9953,3.0216,3.0216,3.0375,3.0671,3.1347,3.1609,3.1669,3.2339,3.2593,3.2629,3.2908,3.3432,3.4044,3.4344,3.4905,3.5504,3.5504,3.5504,3.5504,3.5504,3.5504,3.5504,3.5504,3.5279,3.4822,3.3839,3.2411,3.097,3.0017,2.9792,2.9792,2.9792,2.9792,2.9792,2.9792,2.9157,2.8148,2.6739,2.5818,2.4798,2.3321,2.3091,2.3091,2.3091,2.2053,2.1293,2.1293,1.8177,1.5966,1.5684,1.4928,1.4281,1.3787,1.2366,1.1076,0.9981,0.8395,0.743,0.7144,0.6946,0.7442,0.8672,0.9214,1.0407,1.2243,1.3597,1.5479,3.3352,3.4487,3.5862,3.7413,3.5527,3.3312,0.0,0.0,2.8553,2.7021,2.7283,2.7677,2.7265,2.7801,2.8356,2.8559,0.0,0.0,3.1212,3.2063,3.2976,3.4338,3.51,3.6013,3.73,3.7417,3.7704,3.8365,3.7793,3.7387,3.7404,3.8018,3.7037,3.4102,3.3101,3.2159,3.1217,3.026,2.9792,2.9792,2.9792,2.9792,2.9792,2.9792,3.0317,3.118,3.118,3.1706,3.2558,3.2575,3.2575,3.2575,3.2593,3.2593,3.2713,3.3636,3.3993,3.4129,3.5133,3.5488,3.5504,3.5504,3.5504,3.5504,3.5504,3.5504,3.5504,3.5504,3.4774,3.3791,3.2873,3.1906,3.097,3.0017,2.9792,2.9792,2.9792,2.9792,2.9792,2.9792,2.9792,2.9079,2.6874,2.6483,2.5704,2.343,2.3091,2.3091,2.3091,2.2053,2.1293,2.1293,1.9131,1.7535,1.7206,1.5539,1.4374,1.4102,1.2592,1.1484,1.0993,0.975,0.8792,0.8188,0.8898,0.9436,0.9779,1.0796,1.2005,1.3417,1.4833,1.6704,2.9977,3.1358,3.2773,3.3339,3.1883,3.0446,3.1016,2.9228,2.7292,2.6801,2.7072,2.7345,2.7226,2.7544,2.7987,2.8522,2.8981,0.0,0.0,3.1539,3.3006,3.4338,3.6671,3.8315,3.8733,3.8763,3.8853,3.908,3.8883,3.8571,3.8108,3.8272,3.6966,3.3828,3.4069,3.3272,3.1217,3.1536,3.1701,3.1701,3.1701,3.1701,3.1701,3.1701,3.1883,3.2159,3.2159,3.2339,3.2646,3.3293,3.3567,3.3636,3.431,3.4574,3.4608,3.492,3.5019,3.5083,3.5392,3.5504,3.5504,3.5504,3.5504,3.5504,3.5504,3.5504,3.5504,3.5504,3.5262,3.4641,3.3013,3.2393,3.1756,3.0177,2.9792,2.9792,2.9792,2.9792,2.9792,2.9792,2.9792,2.9326,2.7855,2.6985,2.5996,2.4478,2.3594,2.3091,2.3091,2.2775,2.2536,2.2536,2.1101,1.9354,1.7364,1.5924,1.491,1.4394,1.372,1.2774,1.1535,1.078,1.0182,0.9712,0.9978,1.047,1.1171,1.259,1.4221,1.6033,1.7256,1.8207,0.0,2.9538,3.1024,3.14,3.0401,0.0,0.0,0.0,2.7046,2.6767,2.7151,2.7466,2.7237,2.7604,2.7996,2.8195,2.8785,2.9309,2.9563,3.1061,3.2617,3.3964,3.6806,3.8554,3.8332,3.8751,3.914,3.9376,3.9167,3.896,3.8796,3.8544,3.719,3.459,3.4832,3.3949,3.1756,3.2321,3.2593,3.2593,3.2593,3.2593,3.2593,3.2593,3.2802,3.3136,3.3136,3.3328,0.0,3.4327,3.456,3.4627,3.5262,3.5504,3.5504,3.5504,3.5504,3.5504,3.5504,3.5504,3.5504,3.5504,3.5504,3.5504,3.5504,3.5504,3.5504,3.5504,3.5504,3.5133,3.3533,3.3136,3.266,3.0771,3.0336,3.0222,2.9888,2.9792,2.9792,2.9792,2.9792,2.9443,2.8307,2.7209,2.612,2.4978,2.3833,2.3091,2.3091,2.3091,2.3091,2.3091,2.2031,2.0605,1.8881,1.7099,1.5889,1.5392,1.458,1.3799,1.3086,1.251,1.2236,1.2282,1.2143,1.2504,1.3395,1.5137,1.6623,1.7894,1.8838,1.9522,0.0,0.0,0.0,0.0,0.0,0.0,0.0,0.0,0.0,2.6911,2.7443,2.7901,2.7428,2.7941,2.828,2.7821,2.8261,2.8891,2.9563,3.0882,3.2258,3.3559,3.5983,3.73,3.6686,3.7751,3.8736,3.9346,3.8826,3.8721,3.9302,3.8736,3.7665,3.6085,3.5438,3.4333,3.2713,3.2784,3.282,3.282,3.282,3.282,3.282,3.282,3.3276,3.4112,3.4112,3.4641,3.5504,3.5504,3.5504,3.5504,3.5504,3.5504,3.5504,3.5504,3.5504,3.5504,3.5504,3.5504,3.5504,3.5504,3.5504,3.5504,3.5504,3.5504,3.5504,3.5504,3.5504,3.5262,3.4262,3.401,3.3564,3.1778,3.1307,3.1017,3.0158,2.9913,2.9842,2.9804,2.9829,2.9525,2.8466,2.7412,2.6354,2.5263,2.4057,2.3251,2.3222,2.3157,2.3091,2.3091,2.2098,2.1426,2.1426,1.8934,1.7221,1.6931,1.5348,1.4705,1.5393,1.4769,1.4727,1.5417,1.5025,1.5251,1.6173,1.8034,1.9014,1.9145,1.9749,2.0641,0.0,0.0,0.0,0.0,0.0,0.0,0.0,0.0,0.0,0.0,0.0,2.7699,2.8624,2.8259,2.8107,2.8989,2.9264,2.9578,3.0193,3.2751,3.4876,3.57,3.7659,3.8658,3.802,3.8691,3.9227,3.9391,3.9257,3.902,3.8646,3.8482,3.7781,3.6429,3.6236,3.5353,3.3702,3.4426,3.482,3.482,3.482,3.482,3.482,3.482,3.4937,3.5149,3.5149,3.5279,3.5504,3.5504,3.5504,3.5504,3.5504,3.5504,3.5504,3.5504,3.5504,3.5504,3.5504,3.5504,3.5504,3.5504,3.5504,3.5504,3.5504,3.5504,3.5504,3.5504,3.5504,3.5262,3.4262,3.401,3.3851,3.3191,3.2414,3.1777,3.1651,3.099,3.0294,2.988,3.0131,3.034,3.0057,2.945,2.8791,2.8059,2.6268,2.4872,2.4445,2.3637,2.3091,2.3091,2.284,2.2677,2.2677,2.0385,1.8689,1.8059,1.7615,1.7122,1.6558,1.6355,1.6087,1.5703,1.5898,1.6572,1.7759,1.894,1.9813,2.0389,2.1009,2.1436,0.0,0.0,0.0,0.0,0.0,0.0,0.0,0.0,0.0,0.0,0.0,0.0,2.8199,2.7924,2.7944,2.8979,2.9398,3.0132,3.1659,3.3694,3.528,3.5953,3.7764,3.8676,3.8003,3.8556,3.8945,3.8945,3.8658,3.8315,3.7958,3.7674,3.7212,3.6523,3.6193,3.5603,3.4691,3.523,3.5504,3.5504,3.5504,3.5504,3.5504,3.5504,3.5504,3.5504,3.5504,3.5504,3.5504,3.5504,3.5504,3.5504,3.5504,3.5504,3.5504,3.5504,3.5504,3.5504,3.5504,3.5504,3.5504,3.5504,3.5504,3.5504,3.5504,3.5504,3.5504,3.5504,3.5504,3.545,3.5207,3.5148,3.4939,3.4166,3.3528,3.2795,3.1694,3.1189,3.0809,3.0269,3.0608,3.0972,3.0972,3.0313,2.9687,2.9368,2.7632,2.6098,2.5262,2.442,2.3671,2.3157,2.3091,2.3091,2.3091,2.1908,2.0696,1.9609,1.883,1.8322,1.8155,1.7743,1.7589,1.7671,1.7829,1.8473,1.9637,2.0579,2.124,2.1679,2.2008,2.2303,0.0,0.0,0.0,0.0,0.0,0.0,0.0,0.0,0.0,0.0,0.0,0.0,0.0,2.7794,2.8104,2.877,2.9548,3.0925,3.344,3.4383,3.5056,3.5714,3.7419,3.8287,3.7629,3.8063,3.8409,3.8409,3.7778,3.736,3.727,3.6776,3.6449,3.6359,3.5804,3.5504,3.5504,3.5504,3.5504,3.5504,3.5504,3.5504,3.5504,3.5504,3.5504,3.5504,3.5504,3.5504,3.5504,3.5504,3.5504,3.5504,3.5504,3.5504,3.5504,3.5504,3.5504,3.5504,3.5504,3.5504,3.5504,3.5504,3.5504,3.5504,3.5504,3.5504,3.5534,3.5624,3.5579,3.5624,3.6193,3.6434,3.6208,3.5127,3.4696,3.3944,3.1804,3.1428,3.1361,3.0834,3.116,3.1512,3.1512,3.0838,3.0263,3.0179,2.8815,2.7389,2.626,2.5552,2.4775,2.3734,2.3616,2.3551,2.3365,2.3365,2.2754,2.1342,1.9856,1.9275,1.9807,1.9075,1.9093,1.9993,2.0053,2.0437,2.12,2.2266,2.2744,2.2691,2.279,2.3112,2.5683,2.7395,0.0,0.0,0.0,0.0,0.0,0.0,0.0,0.0,0.0,0.0,0.0,2.9523,2.9432,3.0109,3.1255,3.2781,3.4906,3.5759,3.6434,3.7045,3.8359,3.8973,3.8302,3.835,3.8409,3.8409,3.7778,3.718,3.6673,3.6553,3.6254,3.5669,3.5549,3.5504,3.5504,3.5504,3.5504,3.5504,3.5504,3.5504,3.5504,3.5504,3.5504,3.5504,3.5504,3.5504,3.5504,3.5504,3.5504,3.5504,3.5504,3.5504,3.5504,3.5504,3.5504,3.5504,3.5504,3.5504,3.5504,3.5504,3.5504,3.5504,3.5504,3.5504,3.5624,3.6194,3.5938,3.5534,3.5624,3.6073,3.6559,3.6865,3.6025,3.506,3.4727,3.3294,3.1926,3.1373,3.1712,3.2089,3.2089,3.2364,3.2429,3.19,3.084,2.9678,2.8541,2.7533,2.669,2.604,2.5975,2.5599,2.4628,2.4542,2.403,2.2831,2.2198,2.1602,2.0968,2.0508,2.0313,2.048,2.1304,2.1568,2.1188,2.2773,2.3243,2.2706,2.3219,2.3505,2.5815,2.7384,2.8718,0.0,0.0,0.0,0.0,0.0,0.0,0.0,0.0,0.0,0.0,3.0168,3.0378,3.1415,3.2706,3.4023,3.5325,3.6073,3.6716,3.7345,3.8272,3.8601,3.7913,3.7853,3.7719,3.7407,3.6746,3.6252,3.5968,3.5953,3.5818,3.5519,3.5504,3.5504,3.5504,3.5504,3.5504,3.5504,3.5504,3.5504,3.5504,3.5504,3.5504,3.5504,3.5504,3.5504,3.5504,3.5504,3.5504,3.5504,3.5504,3.5504,3.5504,3.5504,3.5504,3.5504,3.5504,3.5504,3.5504,3.5504,3.5504,3.5504,3.5504,3.5504,3.5639,3.6314,3.6284,3.6193,3.6881,3.7302,3.7553,3.7598,3.6684,3.5558,3.4715,3.3554,3.2516,3.1938,3.229,3.2679,3.2679,3.2927,3.3014,3.2717,3.2001,3.1077,2.9965,2.885,2.7845,2.7023,2.6681,2.6286,2.5755,2.5724,2.5135,2.3767,2.2938,2.2619,2.2861,2.1631,2.1279,2.2047,2.2411,2.2709,2.2934,2.41,2.453,2.4258,2.4179,2.4141,2.6255,2.7569,2.8879,0.0,0.0,3.2029,3.1979,0.0,0.0,0.0,0.0,0.0,0.0,3.0907,3.1418,3.2751,3.4083,3.5251,3.6058,3.6611,3.7165,3.7776,3.8182,3.8197,3.7689,3.736,3.7,3.6538,3.5878,3.5504,3.5504,3.5504,3.5504,3.5504,3.5504,3.5504,3.5504,3.5504,3.5504,3.5504,3.5504,3.5504,3.5504,3.5504,3.5504,3.5504,3.5504,3.5504,3.5504,3.5504,3.5504,3.5504,3.5504,3.5504,3.5504,3.5504,3.5504,3.5504,3.5504,3.5504,3.5504,3.5504,3.5504,3.5504,3.5504,3.5504,3.5639,3.6314,3.6613,3.6926,3.7898,3.8272,3.832,3.8014,3.7248,3.6166,3.4673,3.3887,3.3259,3.2546,3.2767,3.3102,3.3102,3.3102,3.3102,3.3102,3.2726,3.2057,3.1089,3.0211,2.9257,2.8192,2.7718,2.7306,2.6914,2.6637,2.611,2.5171,2.3961,2.3636,2.4428,2.2947,2.2626,2.3778,2.3922,2.4269,2.488,2.563,2.5861,2.5588,2.5068,2.4754,2.7837,2.898,2.9993,3.0072,0.0,0.0,3.3806,3.3694,0.0,3.4839,0.0,0.0,0.0,3.2392,3.2811,3.4144,3.5476,3.6793,3.802,3.8245,3.8512,3.9182,3.8751,3.838,3.8317,3.7272,3.6553,3.6508,3.5878,3.5504,3.5504,3.5504,3.5504,3.5504,3.5504,3.5504,3.5504,3.5504,3.5504,3.5504,3.5504,3.5504,3.5504,3.5504,3.5504,3.5504,3.5504,3.5504,3.5504,3.5504,3.5504,3.5504,3.5504,3.5504,3.5504,3.5504,3.5504,3.5504,3.5504,3.5504,3.5504,3.5504,3.5504,3.5504,3.5504,3.5504,3.5639,3.6314,3.6896,3.736,3.7464,3.7928,3.8392,3.8349,3.8004,3.7367,3.6274,3.5271,3.4283,3.3241,3.3077,3.3102,3.3102,3.3102,3.3102,3.3102,3.3065,3.2817,3.2172,3.2014,3.1555,3.0488,3.0331,2.9679,2.8111,2.7066,2.688,2.7765,2.6402,2.5378,2.4971,2.4805,2.4892,2.524,2.6332,2.6719,2.6359,2.7089,2.6805,2.5603,2.5543,2.5187,2.7803,2.9005,3.0217,3.0666,0.0,0.0,0.0,0.0,3.4799,3.4912,3.5289,0.0,0.0,3.4413,3.4531,3.5046,3.591,3.6808,3.7659,3.8138,3.8646,3.9316,3.8811,3.8227,3.7823,3.6985,3.6329,3.5908,3.5639,3.5504,3.5504,3.5504,3.5504,3.5504,3.5504,3.5504,3.5504,3.5504,3.5504,3.5504,3.5504,3.5504,3.5504,3.5504,3.5504,3.5504,3.5504,3.5504,3.5504,3.5504,3.5504,3.5504,3.5504,3.5504,3.5504,3.5504,3.5504,3.5504,3.5504,3.5504,3.5504,3.5504,3.5504,3.5504,3.5504,3.5789,3.6252,3.6881,3.7524,3.8018,3.8018,3.8527,3.9017,3.9017,3.8407,3.7696,3.7286,3.5882,3.4594,3.417,3.3556,3.3102,3.3102,3.3102,3.3102,3.3102,3.3102,3.3027,3.2801,3.2441,3.1926,3.1185,3.0495,2.9849,2.9209,2.8791,2.8732,2.9138,2.7318,2.6591,2.7387,2.703,2.6817,2.6841,2.7962,2.8268,2.7689,2.804,2.7949,2.7455,2.6617,2.6093,2.7702,2.8763,2.9922,0.0,0.0,0.0,0.0,0.0,3.6028,3.6225,3.5947,3.565,3.5615,3.5201,3.5003,3.5435,3.6058,3.6776,3.7599,3.7928,3.8332,3.8987,3.8317,3.7614,3.7165,3.6552,3.5983,3.5518,3.5504,3.5504,3.5504,3.5504,3.5504,3.5504,3.5504,3.5504,3.5504,3.5504,3.5504,3.5504,3.5504,3.5504,3.5504,3.5504,3.5504,3.5504,3.5504,3.5504,3.5504,3.5504,3.5504,3.5504,3.5504,3.5504,3.5504,3.5504,3.5504,3.5504,3.5504,3.5639,3.5774,3.5579,3.5774,3.6073,3.5863,3.6267,3.6866,3.7268,3.7883,3.8409,3.8409,3.8901,3.9406,3.9406,3.8837,3.8215,3.7866,3.6685,3.5574,3.5251,3.4568,3.4074,3.4074,3.4074,3.3982,3.3649,3.362,3.3471,3.3133,3.2729,3.2202,3.1482,3.0583,2.998,2.9804,2.9792,2.9934,3.0222,2.8817,2.8404,2.9337,2.9228,2.9126,2.9111,2.9694,2.9769,2.9389,2.9259,2.8996,2.8577,2.7649,2.7003,2.7815,2.8399,2.917,0.0,0.0,0.0,3.6474,3.6829,3.7438,3.9656,3.7811,3.5778,3.5646,3.447,3.3948,3.5279,3.6058,3.6943,3.82,3.7808,3.7644,3.8302,3.7272,3.6508,3.6508,3.5893,3.5504,3.5504,3.5504,3.5504,3.5504,3.5504,3.5504,3.5504,3.5504,3.5504,3.5504,3.5504,3.5504,3.5504,3.5504,3.5504,3.5504,3.5504,3.5504,3.5504,3.5504,3.5504,3.5504,3.5504,3.5504,3.5504,3.5504,3.5504,3.5504,3.5504,3.5504,3.5504,3.5504,3.5923,3.6372,3.5729,3.6372,3.7285,3.6686,3.6926,3.7404,3.7419,3.7883,3.8409,3.8424,3.8901,3.9406,3.9406,3.9406,3.9104,3.8032,3.781,3.7491,3.6428,3.6217,3.6198,3.6198,3.6198,3.5854,3.4856,3.4705,3.4324,3.3261,3.3111,3.265,3.1532,3.0922,3.0382,2.9861,2.9811,3.0216,3.1161,3.1217,3.0984,3.0443,3.1323,3.1943,3.2202,3.1554,3.1331,3.1511,3.0837,2.9849,2.8622,2.8607,2.7889,2.8645,2.8814,0.0,3.185,0.0,0.0,0.0,3.834,0.0,0.0,3.8143,3.6584,3.7056,3.5922,3.504,3.5444,3.5669,3.6088,3.6926,3.6881,3.7,3.7629,3.7002,3.6508,3.6508,3.5893,3.5504,3.5504,3.5504,3.5504,3.5504,3.5504,3.5504,3.5504,3.5504,3.5504,3.5504,3.5504,3.5504,3.5504,3.5504,3.5504,3.5504,3.5504,3.5504,3.5504,3.5504,3.5504,3.5504,3.5504,3.5504,3.5504,3.5504,3.5504,3.5504,3.5504,3.5504,3.5504,3.5504,3.5624,3.5833,3.6103,3.6133,3.6207,3.6926,3.6956,3.6941,3.7838,3.8242,3.8497,3.899,3.9257,3.9406,3.9406,3.9406,3.9301,3.898,3.8327,3.7715,3.7381,3.6716,3.6198,3.6198,3.6198,3.6113,3.5794,3.5754,3.5366,3.4345,3.2875,3.1783,3.1444,3.0583,3.0233,3.0746,3.0777,3.1193,3.2123,3.2802,3.2807,3.1986,3.2852,3.3182,3.2844,3.2832,3.2629,3.2198,3.1061,3.0313,2.9939,2.949,2.8845,2.8366,2.8764,0.0,3.2662,3.4421,3.6124,3.8814,0.0,0.0,0.0,3.7872,3.6773,3.6871,3.5919,3.519,3.5459,3.5504,3.5729,3.6404,3.6267,3.6327,3.6971,3.6492,3.6088,3.6088,3.5744,3.5504,3.5504,3.5504,3.5504,3.5504,3.5504,3.5504,3.5504,3.5504,3.5504,3.5504,3.5504,3.5504,3.5504,3.5504,3.5504,3.5504,3.5504,3.5504,3.5504,3.5504,3.5504,3.5504,3.5504,3.5504,3.5504,3.5504,3.5504,3.5504,3.5504,3.5504,3.5504,3.5504,3.5669,3.5923,3.6058,3.6163,3.634,3.6881,3.7135,3.7422,3.8167,3.8586,3.8901,3.9302,3.9406,3.9406,3.9406,3.9406,3.9406,3.9406,3.8889,3.8453,3.8453,3.7909,3.7463,3.7463,3.7463,3.7329,3.6891,3.6467,3.5994,3.5379,3.3913,3.2868,3.262,3.1777,3.1369,3.1733,3.176,3.2159,3.3101,3.3688,3.3925,3.3754,3.4293,3.4418,3.4067,3.3951,3.3575,3.2886,3.1824,3.1031,3.0492,3.0433,3.0035,2.7604,2.8543,2.983,3.2933,3.543,0.0,3.9639,4.0096,3.9679,3.8206,3.7363,3.6622,3.5757,3.5045,3.4787,3.54,3.5504,3.5714,3.6312,3.5878,3.5729,3.6344,3.5863,3.5504,3.5504,3.5504,3.5504,3.5504,3.5504,3.5504,3.5504,3.5444,3.5444,3.5504,3.5444,3.5444,3.5504,3.5504,3.5504,3.5504,3.5504,3.5504,3.5504,3.5504,3.5504,3.5504,3.5504,3.5504,3.5504,3.5504,3.5504,3.5504,3.5504,3.5504,3.5504,3.5504,3.5504,3.5504,3.5504,3.5893,3.6329,3.5774,3.6342,3.715,3.6701,3.73,3.8185,3.8365,3.8751,3.9182,3.9346,3.9346,3.9316,3.9391,3.9406,3.9406,3.9406,3.9406,3.9406,3.9406,3.9406,3.9406,3.9406,3.9406,3.9068,3.8088,3.704,3.6322,3.6266,3.5656,3.4986,3.437,3.3726,3.3165,3.2755,3.2731,3.3136,3.4078,3.4129,3.4543,3.5455,3.5504,3.5504,3.5504,3.4847,3.4203,3.3589,3.2856,3.1869,3.0701,3.1314,3.1219,0.0,2.9726,0.0,3.5024,3.7731,3.952,3.9994,4.0096,3.9837,3.8854,3.809,3.7324,3.6507,3.5773,3.5325,3.5489,3.5504,3.5549,3.5699,3.5594,3.5549,3.5699,3.5594,3.5504,3.5504,3.5504,3.5504,3.5504,3.5504,3.5504,3.5504,3.5012,3.4967,3.5473,3.4997,3.4982,3.5488,3.5504,3.5504,3.5504,3.5504,3.5504,3.5504,3.5504,3.5504,3.5504,3.5504,3.5504,3.5504,3.5504,3.5504,3.5504,3.5504,3.5504,3.5504,3.5504,3.5504,3.5504,3.5504,3.5594,3.5774,3.6148,3.6103,3.6073,3.6941,3.6701,3.6447,3.7975,3.7778,3.7479,3.9002,3.902,3.8751,3.9272,3.9406,3.9406,3.9406,3.9406,3.9406,3.9406,3.9406,3.9406,3.9406,3.9406,3.9319,3.9086,3.8144,3.7253,3.674,3.5456,3.4337,3.368,3.3123,3.303,3.365,3.3705,3.4126,3.5116,3.518,3.5262,3.5488,3.5504,3.5504,3.5504,3.4847,3.4444,3.4278,3.308,3.2347,3.2048,3.1698,3.1151,0.0,0.0,0.0,3.6197,0.0,4.0096,4.0096,4.0096,3.9769,3.861,3.8064,3.7457,3.629,3.575,3.5504,3.5504,3.5504,3.5504,3.5504,3.5504,3.5504,3.5504,3.5504,3.5504,3.5504,3.5205,3.5011,3.5011,3.4711,3.4547,3.4547,3.4518,3.4518,3.4532,3.4518,3.4667,3.5011,3.5011,3.5175,3.5504,3.5504,3.5504,3.5504,3.5504,3.5504,3.5504,3.5504,3.5504,3.5504,3.5504,3.5504,3.5504,3.5504,3.5504,3.5504,3.5504,3.5504,3.5504,3.5504,3.5504,3.5564,3.5908,3.5789,3.5684,3.6671,3.6507,3.6252,3.7554,3.7659,3.7629,3.8661,3.8901,3.8975,3.9316,3.9406,3.9406,3.9406,3.9406,3.9406,3.9406,3.9406,3.9406,3.9406,3.9406,3.9406,3.9406,3.8644,3.7948,3.7615,3.6309,3.5281,3.4933,3.4347,3.4192,3.4675,3.4725,3.4953,3.5472,3.5504,3.5504,3.5504,3.5504,3.5504,3.5504,3.516,3.4817,3.4503,3.4152,3.3637,3.3006,3.3715,3.3472,0.0,0.0,3.2916,3.6907,3.9017,0.0,4.0096,3.9978,3.9476,3.8092,3.7807,3.7324,3.5781,3.5504,3.5504,3.5504,3.5504,3.5504,3.5504,3.5504,3.5504,3.5504,3.5504,3.5459,3.534,3.4832,3.4443,3.4338,3.3814,3.3499,3.3499,3.3919,3.3949,3.3499,3.3934,3.4203,3.4323,3.4444,3.4772,3.5325,3.5575,3.5685,3.5685,3.5685,3.5619,3.5504,3.5504,3.5504,3.5504,3.5504,3.557,3.5685,3.5685,3.5685,3.5685,3.5685,3.5619,3.5504,3.5504,3.5504,3.5521,3.5636,3.5603,3.5625,3.6299,3.643,3.6464,3.7075,3.7644,3.8108,3.835,3.8811,3.9257,3.9376,3.9406,3.9406,3.9406,3.9406,3.9406,3.9406,3.9406,3.9406,3.9406,3.9406,3.9406,3.9406,3.8841,3.8365,3.8227,3.7227,3.6464,3.6344,3.5833,3.5504,3.5504,3.5504,3.5504,3.5504,3.5504,3.5504,3.5504,3.5504,3.5504,3.5504,3.5504,3.522,3.4667,3.5171,3.4805,3.3726,3.5575,3.5707,0.0,0.0,3.5492,0.0,3.9017,4.0096,4.0096,3.9555,3.8813,3.7978,3.7807,3.7324,3.5781,3.5504,3.5504,3.5504,3.5504,3.5504,3.5504,3.5504,3.5504,3.5504,3.5504,3.5265,3.4682,3.4548,3.4263,3.3679,3.3544,3.3499,3.3499,3.3036,3.2991,3.3484,3.3021,3.3051,3.3634,3.4203,3.4533,3.4653,3.5859,3.6461,3.6461,3.6461,3.6102,3.5504,3.5504,3.5504,3.5504,3.5504,3.5879,3.6461,3.6461,3.6461,3.6461,3.6461,3.6039,3.5504,3.5504,3.5504,3.5603,3.6259,3.6022,3.5634,3.6367,3.6128,3.5774,3.6432,3.6688,3.7017,3.8125,3.8484,3.8676,3.9257,3.9406,3.9406,3.9406,3.9406,3.9406,3.9406,3.9406,3.9406,3.9406,3.9406,3.9406,3.9406,3.8841,3.8182,3.7614,3.6926,3.6284,3.5699,3.5549,3.5504,3.5504,3.5504,3.5504,3.5504,3.5504,3.5504,3.5504,3.5504,3.5504,3.5504,3.5504,3.5459,3.537,3.4883,3.4538,3.4384,3.4793,3.4499,2.9694,3.1945,3.4201,0.0,3.7414,3.8426,3.9286,3.8861,3.8189,3.7879,3.7441,3.6798,3.5701,3.5504,3.5504,3.5504,3.5504,3.5504,3.5504,3.5504,3.5504,3.5504,3.516,3.4817,3.4518,3.3829,3.326,3.2961,3.2587,3.2377,3.2377,3.2452,3.2467,3.2377,3.2467,3.2632,3.2946,3.3589,3.4512,3.5691,3.6764,3.7263,3.7263,3.7263,3.6615,3.5504,3.5504,3.5504,3.5537,3.5943,3.6306,3.663,3.71,3.6994,3.6615,3.6615,3.6118,3.5504,3.5504,3.5504,3.5619,3.6353,3.6368,3.632,3.7479,3.7297,3.6819,3.749,3.7612,3.7689,3.8242,3.8676,3.9017,3.9331,3.9406,3.9406,3.9406,3.9406,3.9406,3.9406,3.9406,3.9406,3.9406,3.9406,3.9406,3.9406,3.8512,3.7734,3.7449,3.6552,3.5833,3.5518,3.5504,3.5504,3.5504,3.5879,3.5927,3.5537,3.5894,3.6117,3.6117,3.5733,3.5701,3.6117,3.5717,3.5701,3.6117,3.626,3.6363,3.6377,3.7302,3.707,0.0,0.0,3.2452,3.4292,3.5748,3.7016,3.8149,3.7964,3.7526,3.7498,3.6859,3.6149,3.5603,3.5504,3.5504,3.5504,3.5504,3.5504,3.5504,3.5504,3.5504,3.5504,3.4922,3.4428,3.4263,3.3185,3.2422,3.2258,3.178,3.1511,3.1511,3.1974,3.2018,3.1525,3.1989,3.2258,3.2258,3.3276,3.4759,3.6668,3.7623,3.8078,3.8078,3.8078,3.7354,3.6085,3.6085,3.6085,3.6132,3.6676,3.7024,3.7247,3.7847,3.7717,3.7158,3.6979,3.6554,3.6084,3.6075,3.6078,3.6242,3.7167,3.735,3.7383,3.8491,3.8252,3.773,3.8209,3.8246,3.8182,3.8365,3.8901,3.9406,3.9406,3.9406,3.9406,3.9406,3.9406,3.9406,3.9406,3.9406,3.9406,3.9406,3.9257,3.9197,3.9376,3.8255,3.7464,3.7644,3.6552,3.5825,3.6022,3.5888,3.5862,3.6069,3.66,3.6661,3.6116,3.66,3.6904,3.6904,3.6368,3.6337,3.6889,3.6352,3.6259,3.6615,3.7189,3.7602,3.782,3.9169,3.908,0.0,2.9574,0.0,3.2276,3.4647,3.6804,3.682,3.6794,3.6748,3.6673,3.607,3.5553,3.5504,3.5504,3.5504,3.5504,3.5504,3.5504,3.5504,3.5504,3.5504,3.5504,3.4922,3.4248,3.3604,3.2916,3.2243,3.16,3.1525,3.1511,3.1511,3.154,3.154,3.1511,3.154,3.1555,3.1555,3.3593,3.5348,3.681,3.8182,3.884,3.884,3.884,3.8414,3.7691,3.7691,3.7691,3.7691,3.7719,3.8147,3.8786,3.8827,3.8827,3.8704,3.8007,3.7704,3.7669,3.7608,3.7634,3.7934,3.9425,3.941,3.8786,3.8867,3.8329,3.7685,3.7653,3.7562,3.7599,3.8227,3.8901,3.9406,3.9406,3.9406,3.9406,3.9406,3.9406,3.9406,3.9406,3.9406,3.9406,3.9406,3.8871,3.8661,3.9302,3.8255,3.7629,3.8275,3.7242,3.6718,3.7417,3.6925,3.6859,3.7618,3.772,3.7719,3.7691,3.772,3.7733,3.7733,3.7706,3.7706,3.7733,3.7706,3.7323,3.6615,3.663,3.7054,3.7822,3.8594,3.8542,0.0,0.0,0.0,3.1001,3.2491,3.3726,3.5003,3.6012,3.6559,3.6072,3.6086,3.6054,3.5587,3.5504,3.5504,3.5504,3.5504,3.5504,3.5504,3.5504,3.5504,3.5504,3.4517,3.3769,3.3514,3.2497,3.1765,3.1525,3.1511,3.1511,3.1511,3.1511,3.1511,3.1511,3.1511,3.2161,3.3546,3.5206,3.6745,3.8161,3.9169,3.9662,3.9662,3.9662,3.9532,3.9279,3.9279,3.8723,3.7835,3.8302,3.8663,3.8948,3.9476,3.9342,3.8867,3.8608,3.822,3.7796,3.7771,3.778,3.7969,3.9001,3.9122,3.9088,4.0074,4.0113,3.9808,3.9738,4.0022,4.0142,3.928,3.9647,4.008,3.9535,3.9406,3.9406,3.9406,3.9406,3.9406,3.9406,3.9406,3.9406,3.9406,3.9197,3.9107,3.9361,3.8631,3.8123,3.8362,3.8112,3.8013,3.8272,3.8167,3.8195,3.8476,3.8505,3.8302,3.782,3.8232,3.8511,3.8511,3.805,3.8021,3.8497,3.8035,3.789,3.8072,3.8072,3.8481,3.9279,3.9545,3.9528,2.6977,0.0,0.0,2.9848,3.0527,3.1068,3.3296,3.4417,3.4907,3.4615,3.527,3.5751,3.5258,3.5355,3.5504,3.5504,3.5504,3.5504,3.5504,3.5504,3.5504,3.5504,3.4322,3.3499,3.3499,3.2288,3.1511,3.1511,3.1511,3.1511,3.1511,3.1511,3.1511,3.1511,3.1739,3.2547,3.3992,3.5866,3.7279,3.821,3.9479,4.0096,4.0096,4.0096,4.0096,4.0096,4.0096,3.9519,3.8596,3.9102,3.9302,3.9355,3.9889,3.9769,3.9276,3.8989,3.8761,3.856,3.8566,3.8571,3.8701,3.9424,3.9668,3.9861,4.0892,4.1139,4.1045,4.0921,4.1056,4.0947,3.9713,3.9829,4.0115,3.9553,3.9406,3.9406,3.9406,3.9406,3.9406,3.9406,3.9406,3.9406,3.9406,3.9212,3.9247,3.9763,3.9271,3.9013,3.9552,3.9535,3.9582,3.985,3.9749,3.9773,4.0018,3.9809,3.9466,3.8972,3.9167,3.9302,3.9302,3.8829,3.8802,3.9289,3.8816,3.8802,3.9302,3.9029,3.9315,4.0096,4.0096,4.0096,0.0,0.0,0.0,2.8704,2.8825,2.912,3.1694,3.1924,3.1744,3.2373,3.3546,3.446,3.4489,3.5044,3.5477,3.5477,3.5491,3.5504,3.5504,3.5504,3.5504,3.5504,3.4322,3.3499,3.3499,3.2288,3.1511,3.1525,3.1511,3.1511,3.1525,3.1525,3.1524,3.1524,3.2272,3.267,3.2685,3.5451,3.6839,3.6885,3.9064,4.0096,4.0096,4.0096,4.0096,4.0096,4.0096,4.0096,4.0096,4.0096,4.0096,4.0096,4.0096,4.0096,4.002,3.9219,3.9437,4.0109,4.0093,4.0094,4.0218,4.0933,4.117,4.1187,4.1221,4.1227,4.1194,4.1014,4.0434,3.9802,3.9536,3.9445,3.9427,3.9406,3.9409,3.9427,3.9406,3.9406,3.9406,3.9406,3.9406,3.9406,3.9406,3.8856,3.895,4.0463,4.0149,4.0279,4.1805,4.1437,4.1377,4.2147,4.1651,4.1546,4.228,4.1644,4.1204,4.1204,4.0506,4.0096,4.0096,4.0096,4.0096,4.0096,4.0096,4.0096,4.0096,3.9315,3.9342,4.0096,4.0096,4.0096,2.5411,0.0,0.0,0.0,0.0,0.0,2.9143,3.0294,3.1297,3.23,3.2872,3.3462,3.4342,3.465,3.4788,3.4788,3.518,3.5504,3.5504,3.5504,3.5504,3.5504,3.4322,3.3499,3.3499,3.2288,3.1705,3.2198,3.1765,3.1705,3.2198,3.2266,3.2299,3.2299,3.3427,3.4293,3.4841,3.6679,3.7854,3.8416,3.9551,4.0096,4.0096,4.0096,4.0096,4.0096,4.0096,4.0096,4.0096,4.0096,4.0096,4.0096,4.0096,4.0096,4.007,3.9846,3.9914,4.0104,4.0099,4.01,4.013,4.0337,4.0405,4.0608,4.1674,4.1997,4.2088,4.2512,4.2933,4.2951,4.1627,4.0809,4.0185,3.9538,3.9882,4.0168,3.9553,3.9406,3.9406,3.9406,3.9406,3.9406,3.9406,3.9242,3.9491,4.0555,4.0537,4.081,4.1853,4.239,4.2752,4.2963,4.2875,4.2863,4.3071,4.1918,4.1204,4.1204,4.0506,4.0096,4.0096,4.0096,4.0096,4.0096,4.0096,4.0096,4.0096,3.9876,3.9889,4.0096,4.0096,4.0096,0.0,0.0,0.0,0.0,0.0,0.0,2.7765,2.8457,2.9022,2.9793,3.0609,3.1474,3.2487,3.3142,3.364,3.3949,3.4589,3.5155,3.5492,3.5278,3.5183,3.5471,3.4059,3.3185,3.3469,3.2288,3.166,3.2049,3.172,3.1805,3.2498,3.2584,3.2736,3.3,3.405,3.495,3.5692,3.7155,3.8278,3.9017,3.9745,4.0096,4.0096,4.0096,4.0096,4.0096,4.0096,4.0096,4.0096,4.0096,4.0096,4.0096,4.0096,4.0096,4.0096,4.0096,4.0096,4.0096,4.0096,4.0096,4.0096,4.0096,4.0096,4.0383,4.186,4.2097,4.2055,4.3019,4.3411,4.3198,4.182,4.108,4.0571,4.0063,4.006,4.0115,3.9973,3.9648,3.9406,3.9406,3.9406,3.9406,3.9406,3.9702,4.0255,4.1113,4.156,4.2109,4.2969,4.353,4.3844,4.3844,4.388,4.3775,4.344,4.2337,4.1525,4.1221,4.0506,4.0096,4.0096,4.0096,4.0096,4.0096,4.0096,4.0096,4.0096,4.0096,4.0096,4.0096,4.0096,4.0096,0.0,0.0,0.0,0.0,2.711,0.0,2.7221,2.6753,2.6173,2.6565,2.7698,2.8935,2.9971,3.1237,3.2355,3.2987,3.3904,3.4779,3.5505,3.5043,3.4846,3.5437,3.3786,3.2856,3.3442,3.2287,3.1525,3.1615,3.1615,3.1928,3.2668,3.2722,3.3013,3.3684,3.4452,3.517,3.5832,3.7292,3.8345,3.9017,3.9745,4.0096,4.0096,4.0096,4.0096,4.0096,4.0096,4.0096,4.0096,4.0096,4.0096,4.0096,4.0096,4.0096,4.0096,4.0096,4.0096,4.0096,4.0096,4.0096,4.0096,4.0096,4.0163,4.0472,4.1877,4.1897,4.1718,4.3072,4.2816,4.1965,4.1197,4.0912,4.0811,4.0724,4.0115,3.9737,4.0414,4.0025,3.9538,3.9538,3.9538,3.9589,3.9681,4.0326,4.1147,4.2013,4.2801,4.3606,4.4499,4.4615,4.4615,4.4615,4.4516,4.4195,4.3457,4.2658,4.1897,4.1238,4.0506,4.0096,4.0096,4.0096,4.0096,4.0096,4.0096,4.0096,4.0096,4.0096,4.0096,4.0096,4.0096,4.0096,0.0,0.0,0.0,0.0,2.7856,0.0,2.7041,2.6589,2.68,2.7942,2.7152,2.7125,2.999,3.1162,3.1754,3.1846,3.3831,3.5418,3.5591,3.5479,3.5443,3.5556,3.4229,3.337,3.3478,3.2277,3.172,3.2258,3.2303,3.2626,3.3371,3.3404,3.371,3.4382,3.5687,3.6441,3.6575,3.8043,3.8865,3.9017,3.9745,4.0096,4.0096,4.0096,4.0096,4.0096,4.0096,4.0096,4.0096,4.0096,4.0096,4.0096,4.0096,4.0096,4.0096,4.0096,4.0096,4.0096,4.0096,4.0096,4.0096,4.0096,4.0506,4.1153,4.2029,4.2608,4.3159,4.4097,4.371,4.3017,4.2832,4.2268,4.1576,4.0861,4.0571,4.0309,3.9773,4.0063,4.0449,4.0449,4.0449,4.0673,4.1362,4.1625,4.2046,4.2909,4.3184,4.3606,4.4499,4.4615,4.4615,4.4615,4.4012,4.3575,4.3423,4.2172,4.1356,4.1221,4.0506,4.0096,4.0096,4.0096,4.0096,4.0096,4.0096,4.0096,4.0096,4.0096,4.0096,4.0096,4.0096,4.0096,0.0,0.0,2.7627,2.7957,2.8498,0.0,0.0,2.666,2.6536,2.7333,2.6596,2.6532,2.892,2.9672,3.028,3.1287,3.2309,3.345,3.4857,3.4769,3.4683,3.5014,3.3516,3.2733,3.3424,3.2582,3.2151,3.2519,3.2552,3.286,3.3563,3.3595,3.4062,3.5063,3.5818,3.6569,3.7342,3.8075,3.8819,3.9542,3.9926,4.0096,4.0096,4.0096,4.0096,4.0096,4.0096,4.0096,4.0096,4.0096,4.0096,4.0096,4.0096,4.0096,4.0096,4.0096,4.0096,4.0096,4.0096,4.0096,4.0096,4.0096,4.0354,4.0794,4.1525,4.251,4.349,4.3893,4.3981,4.3844,4.3396,4.2645,4.1901,4.1461,4.0673,4.006,4.006,4.038,4.0827,4.1263,4.1707,4.1997,4.1997,4.2363,4.2801,4.3214,4.3665,4.4124,4.4542,4.4615,4.4615,4.4615,4.3876,4.3254,4.2878,4.1847,4.1035,4.0663,4.0303,4.0096,4.0096,4.0096,4.0096,4.0096,4.0096,4.0096,4.0096,4.0096,4.0096,4.0096,4.0096,4.0096,2.8358,2.8763,2.9253,2.9833,2.9757,2.9196,0.0,0.0,0.0,2.6449,2.6155,2.634,2.7749,2.8173,2.8785,3.0218,3.0595,3.1353,3.3247,3.3262,3.3417,3.4386,3.2524,3.1783,3.3351,3.2769,3.2352,3.2549,3.2576,3.2927,3.3743,3.3797,3.435,3.5566,3.5752,3.6507,3.7877,3.8029,3.8768,4.0096,4.0096,4.0096,4.0096,4.0096,4.0096,4.0096,4.0096,4.0096,4.0096,4.0096,4.0096,4.0096,4.0096,4.0096,4.0096,4.0096,4.0096,4.0096,4.0096,4.0096,4.0096,4.0096,4.0197,4.0455,4.1187,4.2341,4.3406,4.3406,4.3978,4.4443,4.3741,4.2785,4.2046,4.2205,4.0926,3.99,4.0758,4.108,4.1412,4.2109,4.2955,4.3336,4.263,4.3077,4.3547,4.3547,4.4152,4.4615,4.4615,4.4465,4.4364,4.4364,4.3538,4.273,4.2134,4.1407,4.0743,4.0146,4.0096,4.0096,4.0096,4.0096,4.0096,4.0096,4.0204,4.0204,4.0096,4.0204,4.0204,4.0096,4.0204,4.0249,3.1754,3.3482,3.4374,3.1975,3.2682,3.2844,2.8502,0.0,2.7979,2.6829,0.0,2.6061,2.7411,0.0,0.0,2.7193,2.9876,3.1577,3.0175,3.0828,3.2221,3.4262,3.2033,3.1182,3.3287,3.2297,3.1783,3.2376,3.2482,3.3064,3.4337,3.4447,3.4835,3.5588,3.6282,3.7071,3.7877,3.8548,3.9288,4.0096,4.0096,4.0096,4.0096,4.0096,4.0096,4.0096,4.0096,4.0096,4.0096,4.0096,4.0096,4.0096,4.0096,4.0096,4.0096,4.0096,4.0096,4.0096,4.0096,4.0096,4.0096,4.0096,4.054,4.1221,4.1948,4.276,4.3406,4.3406,4.3978,4.457,4.4485,4.3228,4.2189,4.2971,4.182,4.0792,4.1674,4.2458,4.3032,4.3123,4.3858,4.4412,4.431,4.4384,4.4457,4.4457,4.4542,4.4615,4.4615,4.3978,4.3541,4.3541,4.2273,4.1411,4.1339,4.0658,4.0185,4.0113,4.0096,4.0096,4.0096,4.0096,4.0096,4.0096,4.0565,4.0577,4.0096,4.0577,4.0565,4.0108,4.0589,4.0815,3.2155,3.3626,3.4817,3.3179,3.283,3.2266,2.9803,2.8624,2.7961,2.7812,0.0,0.0,0.0,0.0,0.0,0.0,2.886,2.965,3.0355,2.9503,2.992,3.2861,3.1392,3.0667,3.2035,3.1634,3.1248,3.1128,3.1211,3.1698,3.2655,3.3164,3.3932,3.4988,3.5727,3.6688,3.7877,3.821,3.8949,4.0096,4.0096,4.0096,4.0096,4.0096,4.0096,4.0096,4.0096,4.0096,4.0096,4.0096,4.0096,4.0096,4.0096,4.0096,4.0096,4.0096,4.0096,4.0096,4.0096,4.0096,4.0096,4.0096,4.0608,4.1339,4.2066,4.2828,4.3507,4.3961,4.4347,4.4615,4.4615,4.368,4.2847,4.3199,4.2347,4.156,4.1917,4.2676,4.3306,4.3306,4.4006,4.4615,4.4615,4.4615,4.4615,4.4615,4.4615,4.4432,4.3961,4.3609,4.3237,4.2811,4.183,4.1204,4.1204,4.0523,4.0096,4.0096,4.0096,4.0096,4.0096,4.0096,4.0254,4.0552,4.0792,4.0949,4.1088,4.1302,4.1319,4.1088,4.0967,4.1099,3.3219,3.4472,3.5566,3.4239,3.3188,3.2075,3.0581,2.9447,2.8755,2.8854,2.894,0.0,0.0,0.0,2.9258,0.0,0.0,2.8851,3.0213,2.8965,2.9013,3.1948,3.1352,3.0751,3.0886,3.0903,3.0709,3.0212,3.0136,3.0448,3.1301,3.2146,3.3208,3.4527,3.5451,3.6558,3.7877,3.8108,3.8848,4.0096,4.0096,4.0096,4.0096,4.0096,4.0096,4.0096,4.0096,4.0096,4.0096,4.0096,4.0096,4.0096,4.0096,4.0096,4.0096,4.0096,4.0096,4.0096,4.0096,4.0096,4.013,4.0337,4.0747,4.1339,4.2066,4.2828,4.3524,4.411,4.4432,4.4615,4.4615,4.3962,4.3351,4.3606,4.2985,4.241,4.2661,4.3214,4.3651,4.3651,4.4167,4.4615,4.4615,4.4615,4.4615,4.4615,4.4615,4.4381,4.3809,4.3355,4.2882,4.2367,4.1471,4.0899,4.0899,4.0405,4.0096,4.0096,4.0096,4.0171,4.0311,4.0179,4.0429,4.1133,4.1155,4.1369,4.181,4.1958,4.2059,4.2049,4.1599,4.1632,3.6253,3.7734,3.8183,3.5373,3.4683,3.378,3.0323,3.0589,3.1193,2.9843,3.1145,3.2136,3.0778,3.0956,0.0,0.0,0.0,0.0,0.0,2.9322,3.0579,3.2124,3.2259,3.1674,3.0267,3.0132,3.0123,3.0104,2.9633,2.9872,3.1128,3.2095,3.3184,3.4456,3.596,3.7122,3.7893,3.8616,3.9356,4.0096,4.0096,4.0096,4.0096,4.0096,4.0096,4.0096,4.0096,4.0096,4.0096,4.0096,4.0096,4.0096,4.0096,4.0096,4.0096,4.0096,4.0096,4.0096,4.0096,4.0096,4.0231,4.0933,4.1187,4.1339,4.2066,4.2828,4.3406,4.344,4.3995,4.4615,4.4615,4.3962,4.3517,4.4355,4.3887,4.3502,4.4324,4.4542,4.4556,4.4556,4.457,4.4615,4.4615,4.4615,4.4615,4.4615,4.4615,4.4584,4.455,4.3264,4.2333,4.23,4.0997,4.0146,4.0146,4.0113,4.0096,4.0096,4.0096,4.0336,4.0845,4.038,4.063,4.1739,4.1761,4.1789,4.181,4.24,4.2664,4.2664,4.2645,4.2645,3.6789,3.822,3.9255,3.7307,3.5802,3.4349,3.2619,3.1958,3.1542,3.1033,3.1874,3.2413,3.1432,3.1741,0.0,0.0,0.0,0.0,0.0,3.0258,3.1004,3.1505,3.114,3.0649,3.0149,2.9176,2.845,2.8136,2.7575,2.7849,2.9222,3.0543,3.2073,3.3793,3.5239,3.6608,3.7877,3.8159,3.8886,4.0096,4.0096,4.0096,4.0096,4.0096,4.0096,4.0096,4.0096,4.0096,4.0096,4.0096,4.0096,4.0096,4.0096,4.0096,4.0096,4.0096,4.0096,4.0096,4.0096,4.0096,4.0146,4.0388,4.1132,4.1965,4.2232,4.3196,4.4181,4.4181,4.4398,4.4615,4.4615,4.4384,4.4239,4.4528,4.4369,4.4239,4.4542,4.4615,4.4615,4.4615,4.4615,4.4615,4.4615,4.4615,4.4615,4.4615,4.4615,4.4415,4.3876,4.2912,4.21,4.1627,4.0692,4.0096,4.0096,4.0096,4.0096,4.0096,4.0424,4.0714,4.0891,4.1116,4.1595,4.2372,4.241,4.257,4.2931,4.3133,4.3232,4.3232,4.3232,4.3232,3.6851,3.8232,3.9423,3.8198,3.692,3.5587,3.4255,3.3733,3.3364,3.28,3.347,3.3928,3.3194,3.3141,0.0,0.0,0.0,0.0,0.0,3.0903,3.12,3.12,3.0784,3.0386,3.0132,2.9202,2.8264,2.7411,2.7078,2.7379,2.8488,3.0055,3.1701,3.3411,3.5121,3.6637,3.7877,3.8159,3.8903,4.0096,4.0096,4.0096,4.0096,4.0096,4.0096,4.0096,4.0096,4.0096,4.0096,4.0096,4.0096,4.0096,4.0096,4.0096,4.0096,4.0096,4.0096,4.0096,4.0096,4.0096,4.0146,4.0405,4.1318,4.235,4.2608,4.3586,4.4615,4.4615,4.4615,4.4615,4.4615,4.4615,4.4615,4.4615,4.4615,4.4615,4.4615,4.4615,4.4615,4.4615,4.4615,4.4615,4.4615,4.4615,4.4615,4.4615,4.4615,4.4415,4.3893,4.3166,4.2405,4.1677,4.0929,4.0371,4.013,4.0274,4.038,4.038,4.0909,4.1324,4.1534,4.1714,4.2308,4.3385,4.2942,4.3103,4.392,4.3635,4.3506,4.3506,4.3506,4.3506]}]]